<?xml version="1.0" encoding="UTF-8" ?>
<gpx xmlns="http://www.topografix.com/GPX/1/1" version="1.1" creator="RouteGadget GPS Tracking" xmlns:xsi="http://www.w3.org/2001/XMLSchema-instance" xmlns:tp1="http://www.garmin.com/xmlschemas/TrackPointExtension/v1" xsi:schemaLocation="http://www.topografix.com/GPX/1/1 http://www.topografix.com/GPX/1/1/gpx.xsd http://www.garmin.com/xmlschemas/TrackPointExtension/v1 http://www.garmin.com/xmlschemas/TrackPointExtensionv1.xsd">
<trk>
<trkseg><trkpt lat="45.884671" lon="11.030245">
<time>2020-11-23T18:25:58Z</time>
</trkpt>
<trkpt lat="45.884671" lon="11.030245">
<time>2020-11-23T18:25:59Z</time>
</trkpt>
<trkpt lat="45.884673" lon="11.030233">
<time>2020-11-23T18:26:00Z</time>
</trkpt>
<trkpt lat="45.884676" lon="11.030211">
<time>2020-11-23T18:26:01Z</time>
</trkpt>
<trkpt lat="45.884676" lon="11.030191">
<time>2020-11-23T18:26:02Z</time>
</trkpt>
<trkpt lat="45.884668" lon="11.030171">
<time>2020-11-23T18:26:03Z</time>
</trkpt>
<trkpt lat="45.884653" lon="11.030155">
<time>2020-11-23T18:26:04Z</time>
</trkpt>
<trkpt lat="45.884631" lon="11.030145">
<time>2020-11-23T18:26:05Z</time>
</trkpt>
<trkpt lat="45.884608" lon="11.030133">
<time>2020-11-23T18:26:06Z</time>
</trkpt>
<trkpt lat="45.884581" lon="11.030126">
<time>2020-11-23T18:26:07Z</time>
</trkpt>
<trkpt lat="45.884556" lon="11.030121">
<time>2020-11-23T18:26:08Z</time>
</trkpt>
<trkpt lat="45.884535" lon="11.030113">
<time>2020-11-23T18:26:09Z</time>
</trkpt>
<trkpt lat="45.884511" lon="11.030103">
<time>2020-11-23T18:26:10Z</time>
</trkpt>
<trkpt lat="45.884491" lon="11.03009">
<time>2020-11-23T18:26:11Z</time>
</trkpt>
<trkpt lat="45.884471" lon="11.030076">
<time>2020-11-23T18:26:12Z</time>
</trkpt>
<trkpt lat="45.884455" lon="11.03006">
<time>2020-11-23T18:26:13Z</time>
</trkpt>
<trkpt lat="45.884441" lon="11.030038">
<time>2020-11-23T18:26:14Z</time>
</trkpt>
<trkpt lat="45.884425" lon="11.030011">
<time>2020-11-23T18:26:15Z</time>
</trkpt>
<trkpt lat="45.884411" lon="11.029983">
<time>2020-11-23T18:26:16Z</time>
</trkpt>
<trkpt lat="45.884398" lon="11.029953">
<time>2020-11-23T18:26:17Z</time>
</trkpt>
<trkpt lat="45.884388" lon="11.029918">
<time>2020-11-23T18:26:18Z</time>
</trkpt>
<trkpt lat="45.884378" lon="11.029885">
<time>2020-11-23T18:26:19Z</time>
</trkpt>
<trkpt lat="45.88437" lon="11.029848">
<time>2020-11-23T18:26:20Z</time>
</trkpt>
<trkpt lat="45.884365" lon="11.029811">
<time>2020-11-23T18:26:21Z</time>
</trkpt>
<trkpt lat="45.884358" lon="11.029776">
<time>2020-11-23T18:26:22Z</time>
</trkpt>
<trkpt lat="45.884356" lon="11.029738">
<time>2020-11-23T18:26:23Z</time>
</trkpt>
<trkpt lat="45.88435" lon="11.029698">
<time>2020-11-23T18:26:24Z</time>
</trkpt>
<trkpt lat="45.884345" lon="11.029658">
<time>2020-11-23T18:26:25Z</time>
</trkpt>
<trkpt lat="45.88434" lon="11.029615">
<time>2020-11-23T18:26:26Z</time>
</trkpt>
<trkpt lat="45.884335" lon="11.029573">
<time>2020-11-23T18:26:27Z</time>
</trkpt>
<trkpt lat="45.884328" lon="11.029533">
<time>2020-11-23T18:26:28Z</time>
</trkpt>
<trkpt lat="45.884321" lon="11.029491">
<time>2020-11-23T18:26:29Z</time>
</trkpt>
<trkpt lat="45.884316" lon="11.02945">
<time>2020-11-23T18:26:30Z</time>
</trkpt>
<trkpt lat="45.884308" lon="11.029406">
<time>2020-11-23T18:26:31Z</time>
</trkpt>
<trkpt lat="45.884301" lon="11.029366">
<time>2020-11-23T18:26:32Z</time>
</trkpt>
<trkpt lat="45.884296" lon="11.029323">
<time>2020-11-23T18:26:33Z</time>
</trkpt>
<trkpt lat="45.884291" lon="11.029283">
<time>2020-11-23T18:26:34Z</time>
</trkpt>
<trkpt lat="45.884286" lon="11.029241">
<time>2020-11-23T18:26:35Z</time>
</trkpt>
<trkpt lat="45.884285" lon="11.029198">
<time>2020-11-23T18:26:36Z</time>
</trkpt>
<trkpt lat="45.88428" lon="11.02916">
<time>2020-11-23T18:26:37Z</time>
</trkpt>
<trkpt lat="45.884276" lon="11.02912">
<time>2020-11-23T18:26:38Z</time>
</trkpt>
<trkpt lat="45.884271" lon="11.029085">
<time>2020-11-23T18:26:39Z</time>
</trkpt>
<trkpt lat="45.884266" lon="11.029051">
<time>2020-11-23T18:26:40Z</time>
</trkpt>
<trkpt lat="45.884263" lon="11.029018">
<time>2020-11-23T18:26:41Z</time>
</trkpt>
<trkpt lat="45.884256" lon="11.028988">
<time>2020-11-23T18:26:42Z</time>
</trkpt>
<trkpt lat="45.88425" lon="11.028956">
<time>2020-11-23T18:26:43Z</time>
</trkpt>
<trkpt lat="45.884245" lon="11.02892">
<time>2020-11-23T18:26:44Z</time>
</trkpt>
<trkpt lat="45.884241" lon="11.028881">
<time>2020-11-23T18:26:45Z</time>
</trkpt>
<trkpt lat="45.884238" lon="11.028838">
<time>2020-11-23T18:26:46Z</time>
</trkpt>
<trkpt lat="45.884231" lon="11.0288">
<time>2020-11-23T18:26:47Z</time>
</trkpt>
<trkpt lat="45.884226" lon="11.02876">
<time>2020-11-23T18:26:48Z</time>
</trkpt>
<trkpt lat="45.884223" lon="11.028716">
<time>2020-11-23T18:26:49Z</time>
</trkpt>
<trkpt lat="45.884218" lon="11.028671">
<time>2020-11-23T18:26:50Z</time>
</trkpt>
<trkpt lat="45.88421" lon="11.028626">
<time>2020-11-23T18:26:51Z</time>
</trkpt>
<trkpt lat="45.884201" lon="11.028581">
<time>2020-11-23T18:26:52Z</time>
</trkpt>
<trkpt lat="45.884193" lon="11.028538">
<time>2020-11-23T18:26:53Z</time>
</trkpt>
<trkpt lat="45.884185" lon="11.028495">
<time>2020-11-23T18:26:54Z</time>
</trkpt>
<trkpt lat="45.884178" lon="11.028453">
<time>2020-11-23T18:26:55Z</time>
</trkpt>
<trkpt lat="45.884173" lon="11.028408">
<time>2020-11-23T18:26:56Z</time>
</trkpt>
<trkpt lat="45.88417" lon="11.028366">
<time>2020-11-23T18:26:57Z</time>
</trkpt>
<trkpt lat="45.884163" lon="11.028325">
<time>2020-11-23T18:26:58Z</time>
</trkpt>
<trkpt lat="45.884161" lon="11.02828">
<time>2020-11-23T18:26:59Z</time>
</trkpt>
<trkpt lat="45.884156" lon="11.028236">
<time>2020-11-23T18:27:00Z</time>
</trkpt>
<trkpt lat="45.884153" lon="11.028193">
<time>2020-11-23T18:27:01Z</time>
</trkpt>
<trkpt lat="45.88415" lon="11.028153">
<time>2020-11-23T18:27:02Z</time>
</trkpt>
<trkpt lat="45.884146" lon="11.028111">
<time>2020-11-23T18:27:03Z</time>
</trkpt>
<trkpt lat="45.884138" lon="11.02807">
<time>2020-11-23T18:27:04Z</time>
</trkpt>
<trkpt lat="45.88413" lon="11.02803">
<time>2020-11-23T18:27:05Z</time>
</trkpt>
<trkpt lat="45.884123" lon="11.027985">
<time>2020-11-23T18:27:06Z</time>
</trkpt>
<trkpt lat="45.884116" lon="11.027941">
<time>2020-11-23T18:27:07Z</time>
</trkpt>
<trkpt lat="45.884111" lon="11.027898">
<time>2020-11-23T18:27:08Z</time>
</trkpt>
<trkpt lat="45.884106" lon="11.027855">
<time>2020-11-23T18:27:09Z</time>
</trkpt>
<trkpt lat="45.884101" lon="11.027811">
<time>2020-11-23T18:27:10Z</time>
</trkpt>
<trkpt lat="45.884096" lon="11.027771">
<time>2020-11-23T18:27:11Z</time>
</trkpt>
<trkpt lat="45.884091" lon="11.027731">
<time>2020-11-23T18:27:12Z</time>
</trkpt>
<trkpt lat="45.884088" lon="11.02769">
<time>2020-11-23T18:27:13Z</time>
</trkpt>
<trkpt lat="45.884081" lon="11.027646">
<time>2020-11-23T18:27:14Z</time>
</trkpt>
<trkpt lat="45.884076" lon="11.027605">
<time>2020-11-23T18:27:15Z</time>
</trkpt>
<trkpt lat="45.884073" lon="11.027561">
<time>2020-11-23T18:27:16Z</time>
</trkpt>
<trkpt lat="45.88407" lon="11.027516">
<time>2020-11-23T18:27:17Z</time>
</trkpt>
<trkpt lat="45.884061" lon="11.027476">
<time>2020-11-23T18:27:18Z</time>
</trkpt>
<trkpt lat="45.88405" lon="11.027441">
<time>2020-11-23T18:27:19Z</time>
</trkpt>
<trkpt lat="45.884046" lon="11.027398">
<time>2020-11-23T18:27:20Z</time>
</trkpt>
<trkpt lat="45.88404" lon="11.027356">
<time>2020-11-23T18:27:21Z</time>
</trkpt>
<trkpt lat="45.884033" lon="11.027315">
<time>2020-11-23T18:27:22Z</time>
</trkpt>
<trkpt lat="45.884026" lon="11.027275">
<time>2020-11-23T18:27:23Z</time>
</trkpt>
<trkpt lat="45.884016" lon="11.02724">
<time>2020-11-23T18:27:24Z</time>
</trkpt>
<trkpt lat="45.884008" lon="11.027203">
<time>2020-11-23T18:27:25Z</time>
</trkpt>
<trkpt lat="45.884003" lon="11.027168">
<time>2020-11-23T18:27:26Z</time>
</trkpt>
<trkpt lat="45.884001" lon="11.02713">
<time>2020-11-23T18:27:27Z</time>
</trkpt>
<trkpt lat="45.884" lon="11.027091">
<time>2020-11-23T18:27:28Z</time>
</trkpt>
<trkpt lat="45.883998" lon="11.027051">
<time>2020-11-23T18:27:29Z</time>
</trkpt>
<trkpt lat="45.884001" lon="11.027005">
<time>2020-11-23T18:27:30Z</time>
</trkpt>
<trkpt lat="45.884006" lon="11.026963">
<time>2020-11-23T18:27:31Z</time>
</trkpt>
<trkpt lat="45.884013" lon="11.026923">
<time>2020-11-23T18:27:32Z</time>
</trkpt>
<trkpt lat="45.88402" lon="11.026886">
<time>2020-11-23T18:27:33Z</time>
</trkpt>
<trkpt lat="45.884025" lon="11.026855">
<time>2020-11-23T18:27:34Z</time>
</trkpt>
<trkpt lat="45.884035" lon="11.026825">
<time>2020-11-23T18:27:35Z</time>
</trkpt>
<trkpt lat="45.884043" lon="11.026801">
<time>2020-11-23T18:27:36Z</time>
</trkpt>
<trkpt lat="45.88406" lon="11.026771">
<time>2020-11-23T18:27:37Z</time>
</trkpt>
<trkpt lat="45.884076" lon="11.026745">
<time>2020-11-23T18:27:38Z</time>
</trkpt>
<trkpt lat="45.884095" lon="11.026718">
<time>2020-11-23T18:27:39Z</time>
</trkpt>
<trkpt lat="45.884115" lon="11.0267">
<time>2020-11-23T18:27:40Z</time>
</trkpt>
<trkpt lat="45.88413" lon="11.026685">
<time>2020-11-23T18:27:41Z</time>
</trkpt>
<trkpt lat="45.884141" lon="11.02668">
<time>2020-11-23T18:27:42Z</time>
</trkpt>
<trkpt lat="45.88416" lon="11.026675">
<time>2020-11-23T18:27:43Z</time>
</trkpt>
<trkpt lat="45.884171" lon="11.02667">
<time>2020-11-23T18:27:44Z</time>
</trkpt>
<trkpt lat="45.884196" lon="11.02666">
<time>2020-11-23T18:27:45Z</time>
</trkpt>
<trkpt lat="45.88422" lon="11.026655">
<time>2020-11-23T18:27:46Z</time>
</trkpt>
<trkpt lat="45.884243" lon="11.026645">
<time>2020-11-23T18:27:47Z</time>
</trkpt>
<trkpt lat="45.88428" lon="11.026636">
<time>2020-11-23T18:27:48Z</time>
</trkpt>
<trkpt lat="45.884306" lon="11.02663">
<time>2020-11-23T18:27:49Z</time>
</trkpt>
<trkpt lat="45.884336" lon="11.026625">
<time>2020-11-23T18:27:50Z</time>
</trkpt>
<trkpt lat="45.884365" lon="11.026621">
<time>2020-11-23T18:27:51Z</time>
</trkpt>
<trkpt lat="45.884385" lon="11.02662">
<time>2020-11-23T18:27:52Z</time>
</trkpt>
<trkpt lat="45.88441" lon="11.026615">
<time>2020-11-23T18:27:53Z</time>
</trkpt>
<trkpt lat="45.884433" lon="11.026613">
<time>2020-11-23T18:27:54Z</time>
</trkpt>
<trkpt lat="45.884453" lon="11.026613">
<time>2020-11-23T18:27:55Z</time>
</trkpt>
<trkpt lat="45.884471" lon="11.026616">
<time>2020-11-23T18:27:56Z</time>
</trkpt>
<trkpt lat="45.884488" lon="11.02662">
<time>2020-11-23T18:27:57Z</time>
</trkpt>
<trkpt lat="45.884515" lon="11.02662">
<time>2020-11-23T18:27:58Z</time>
</trkpt>
<trkpt lat="45.884536" lon="11.026625">
<time>2020-11-23T18:27:59Z</time>
</trkpt>
<trkpt lat="45.884555" lon="11.026633">
<time>2020-11-23T18:28:00Z</time>
</trkpt>
<trkpt lat="45.88459" lon="11.026633">
<time>2020-11-23T18:28:01Z</time>
</trkpt>
<trkpt lat="45.884621" lon="11.02663">
<time>2020-11-23T18:28:02Z</time>
</trkpt>
<trkpt lat="45.884665" lon="11.026625">
<time>2020-11-23T18:28:03Z</time>
</trkpt>
<trkpt lat="45.884698" lon="11.02662">
<time>2020-11-23T18:28:04Z</time>
</trkpt>
<trkpt lat="45.884735" lon="11.02662">
<time>2020-11-23T18:28:05Z</time>
</trkpt>
<trkpt lat="45.884763" lon="11.026635">
<time>2020-11-23T18:28:06Z</time>
</trkpt>
<trkpt lat="45.884803" lon="11.026641">
<time>2020-11-23T18:28:07Z</time>
</trkpt>
<trkpt lat="45.884836" lon="11.026648">
<time>2020-11-23T18:28:08Z</time>
</trkpt>
<trkpt lat="45.884865" lon="11.026661">
<time>2020-11-23T18:28:09Z</time>
</trkpt>
<trkpt lat="45.884888" lon="11.026668">
<time>2020-11-23T18:28:10Z</time>
</trkpt>
<trkpt lat="45.884925" lon="11.026665">
<time>2020-11-23T18:28:11Z</time>
</trkpt>
<trkpt lat="45.884955" lon="11.026656">
<time>2020-11-23T18:28:12Z</time>
</trkpt>
<trkpt lat="45.884978" lon="11.026643">
<time>2020-11-23T18:28:13Z</time>
</trkpt>
<trkpt lat="45.885" lon="11.026631">
<time>2020-11-23T18:28:14Z</time>
</trkpt>
<trkpt lat="45.885025" lon="11.026611">
<time>2020-11-23T18:28:15Z</time>
</trkpt>
<trkpt lat="45.885055" lon="11.026586">
<time>2020-11-23T18:28:16Z</time>
</trkpt>
<trkpt lat="45.885083" lon="11.026555">
<time>2020-11-23T18:28:17Z</time>
</trkpt>
<trkpt lat="45.885106" lon="11.02652">
<time>2020-11-23T18:28:18Z</time>
</trkpt>
<trkpt lat="45.885123" lon="11.02649">
<time>2020-11-23T18:28:19Z</time>
</trkpt>
<trkpt lat="45.885138" lon="11.026458">
<time>2020-11-23T18:28:20Z</time>
</trkpt>
<trkpt lat="45.885156" lon="11.02643">
<time>2020-11-23T18:28:21Z</time>
</trkpt>
<trkpt lat="45.885176" lon="11.026395">
<time>2020-11-23T18:28:22Z</time>
</trkpt>
<trkpt lat="45.885193" lon="11.02637">
<time>2020-11-23T18:28:23Z</time>
</trkpt>
<trkpt lat="45.885215" lon="11.026343">
<time>2020-11-23T18:28:24Z</time>
</trkpt>
<trkpt lat="45.885233" lon="11.026326">
<time>2020-11-23T18:28:25Z</time>
</trkpt>
<trkpt lat="45.885261" lon="11.026305">
<time>2020-11-23T18:28:26Z</time>
</trkpt>
<trkpt lat="45.885288" lon="11.026286">
<time>2020-11-23T18:28:27Z</time>
</trkpt>
<trkpt lat="45.885308" lon="11.026276">
<time>2020-11-23T18:28:28Z</time>
</trkpt>
<trkpt lat="45.885333" lon="11.026263">
<time>2020-11-23T18:28:29Z</time>
</trkpt>
<trkpt lat="45.885355" lon="11.026251">
<time>2020-11-23T18:28:30Z</time>
</trkpt>
<trkpt lat="45.88537" lon="11.026251">
<time>2020-11-23T18:28:31Z</time>
</trkpt>
<trkpt lat="45.885386" lon="11.026248">
<time>2020-11-23T18:28:32Z</time>
</trkpt>
<trkpt lat="45.8854" lon="11.026251">
<time>2020-11-23T18:28:33Z</time>
</trkpt>
<trkpt lat="45.88542" lon="11.026245">
<time>2020-11-23T18:28:34Z</time>
</trkpt>
<trkpt lat="45.88544" lon="11.026236">
<time>2020-11-23T18:28:35Z</time>
</trkpt>
<trkpt lat="45.885458" lon="11.026226">
<time>2020-11-23T18:28:36Z</time>
</trkpt>
<trkpt lat="45.885473" lon="11.02622">
<time>2020-11-23T18:28:37Z</time>
</trkpt>
<trkpt lat="45.885485" lon="11.026191">
<time>2020-11-23T18:28:38Z</time>
</trkpt>
<trkpt lat="45.885491" lon="11.026155">
<time>2020-11-23T18:28:39Z</time>
</trkpt>
<trkpt lat="45.885496" lon="11.026101">
<time>2020-11-23T18:28:40Z</time>
</trkpt>
<trkpt lat="45.885493" lon="11.026066">
<time>2020-11-23T18:28:41Z</time>
</trkpt>
<trkpt lat="45.88549" lon="11.02602">
<time>2020-11-23T18:28:42Z</time>
</trkpt>
<trkpt lat="45.885483" lon="11.025976">
<time>2020-11-23T18:28:43Z</time>
</trkpt>
<trkpt lat="45.885475" lon="11.025933">
<time>2020-11-23T18:28:44Z</time>
</trkpt>
<trkpt lat="45.885468" lon="11.02589">
<time>2020-11-23T18:28:45Z</time>
</trkpt>
<trkpt lat="45.885461" lon="11.025855">
<time>2020-11-23T18:28:46Z</time>
</trkpt>
<trkpt lat="45.885451" lon="11.02581">
<time>2020-11-23T18:28:47Z</time>
</trkpt>
<trkpt lat="45.885443" lon="11.025766">
<time>2020-11-23T18:28:48Z</time>
</trkpt>
<trkpt lat="45.885433" lon="11.025715">
<time>2020-11-23T18:28:49Z</time>
</trkpt>
<trkpt lat="45.885423" lon="11.025675">
<time>2020-11-23T18:28:50Z</time>
</trkpt>
<trkpt lat="45.885416" lon="11.025645">
<time>2020-11-23T18:28:51Z</time>
</trkpt>
<trkpt lat="45.885408" lon="11.025596">
<time>2020-11-23T18:28:52Z</time>
</trkpt>
<trkpt lat="45.885401" lon="11.025548">
<time>2020-11-23T18:28:53Z</time>
</trkpt>
<trkpt lat="45.885396" lon="11.025496">
<time>2020-11-23T18:28:54Z</time>
</trkpt>
<trkpt lat="45.885388" lon="11.025463">
<time>2020-11-23T18:28:55Z</time>
</trkpt>
<trkpt lat="45.88538" lon="11.02542">
<time>2020-11-23T18:28:56Z</time>
</trkpt>
<trkpt lat="45.88537" lon="11.02537">
<time>2020-11-23T18:28:57Z</time>
</trkpt>
<trkpt lat="45.885358" lon="11.025328">
<time>2020-11-23T18:28:58Z</time>
</trkpt>
<trkpt lat="45.88535" lon="11.025288">
<time>2020-11-23T18:28:59Z</time>
</trkpt>
<trkpt lat="45.885338" lon="11.02525">
<time>2020-11-23T18:29:00Z</time>
</trkpt>
<trkpt lat="45.885325" lon="11.02521">
<time>2020-11-23T18:29:01Z</time>
</trkpt>
<trkpt lat="45.885315" lon="11.02517">
<time>2020-11-23T18:29:02Z</time>
</trkpt>
<trkpt lat="45.885306" lon="11.025128">
<time>2020-11-23T18:29:03Z</time>
</trkpt>
<trkpt lat="45.885298" lon="11.025093">
<time>2020-11-23T18:29:04Z</time>
</trkpt>
<trkpt lat="45.885288" lon="11.025056">
<time>2020-11-23T18:29:05Z</time>
</trkpt>
<trkpt lat="45.885275" lon="11.025013">
<time>2020-11-23T18:29:06Z</time>
</trkpt>
<trkpt lat="45.885263" lon="11.024973">
<time>2020-11-23T18:29:07Z</time>
</trkpt>
<trkpt lat="45.885255" lon="11.024941">
<time>2020-11-23T18:29:08Z</time>
</trkpt>
<trkpt lat="45.885245" lon="11.024901">
<time>2020-11-23T18:29:09Z</time>
</trkpt>
<trkpt lat="45.885233" lon="11.02486">
<time>2020-11-23T18:29:10Z</time>
</trkpt>
<trkpt lat="45.88522" lon="11.024811">
<time>2020-11-23T18:29:11Z</time>
</trkpt>
<trkpt lat="45.885206" lon="11.024768">
<time>2020-11-23T18:29:12Z</time>
</trkpt>
<trkpt lat="45.88519" lon="11.024726">
<time>2020-11-23T18:29:13Z</time>
</trkpt>
<trkpt lat="45.885175" lon="11.0247">
<time>2020-11-23T18:29:14Z</time>
</trkpt>
<trkpt lat="45.885163" lon="11.024666">
<time>2020-11-23T18:29:15Z</time>
</trkpt>
<trkpt lat="45.885153" lon="11.024625">
<time>2020-11-23T18:29:16Z</time>
</trkpt>
<trkpt lat="45.885146" lon="11.024586">
<time>2020-11-23T18:29:17Z</time>
</trkpt>
<trkpt lat="45.885143" lon="11.024546">
<time>2020-11-23T18:29:18Z</time>
</trkpt>
<trkpt lat="45.885135" lon="11.024518">
<time>2020-11-23T18:29:19Z</time>
</trkpt>
<trkpt lat="45.885123" lon="11.024466">
<time>2020-11-23T18:29:20Z</time>
</trkpt>
<trkpt lat="45.885111" lon="11.024418">
<time>2020-11-23T18:29:21Z</time>
</trkpt>
<trkpt lat="45.885101" lon="11.024375">
<time>2020-11-23T18:29:22Z</time>
</trkpt>
<trkpt lat="45.885098" lon="11.024338">
<time>2020-11-23T18:29:23Z</time>
</trkpt>
<trkpt lat="45.88509" lon="11.024291">
<time>2020-11-23T18:29:24Z</time>
</trkpt>
<trkpt lat="45.88508" lon="11.024253">
<time>2020-11-23T18:29:25Z</time>
</trkpt>
<trkpt lat="45.885065" lon="11.024216">
<time>2020-11-23T18:29:26Z</time>
</trkpt>
<trkpt lat="45.885056" lon="11.024185">
<time>2020-11-23T18:29:27Z</time>
</trkpt>
<trkpt lat="45.885045" lon="11.024148">
<time>2020-11-23T18:29:28Z</time>
</trkpt>
<trkpt lat="45.885035" lon="11.02411">
<time>2020-11-23T18:29:29Z</time>
</trkpt>
<trkpt lat="45.885023" lon="11.024065">
<time>2020-11-23T18:29:30Z</time>
</trkpt>
<trkpt lat="45.885013" lon="11.024028">
<time>2020-11-23T18:29:31Z</time>
</trkpt>
<trkpt lat="45.885005" lon="11.023995">
<time>2020-11-23T18:29:32Z</time>
</trkpt>
<trkpt lat="45.884995" lon="11.023955">
<time>2020-11-23T18:29:33Z</time>
</trkpt>
<trkpt lat="45.884983" lon="11.023905">
<time>2020-11-23T18:29:34Z</time>
</trkpt>
<trkpt lat="45.884973" lon="11.023863">
<time>2020-11-23T18:29:35Z</time>
</trkpt>
<trkpt lat="45.884961" lon="11.023823">
<time>2020-11-23T18:29:36Z</time>
</trkpt>
<trkpt lat="45.884953" lon="11.023791">
<time>2020-11-23T18:29:37Z</time>
</trkpt>
<trkpt lat="45.88494" lon="11.023745">
<time>2020-11-23T18:29:38Z</time>
</trkpt>
<trkpt lat="45.88493" lon="11.023711">
<time>2020-11-23T18:29:39Z</time>
</trkpt>
<trkpt lat="45.884915" lon="11.023665">
<time>2020-11-23T18:29:40Z</time>
</trkpt>
<trkpt lat="45.884903" lon="11.023626">
<time>2020-11-23T18:29:41Z</time>
</trkpt>
<trkpt lat="45.88489" lon="11.02359">
<time>2020-11-23T18:29:42Z</time>
</trkpt>
<trkpt lat="45.884876" lon="11.023553">
<time>2020-11-23T18:29:43Z</time>
</trkpt>
<trkpt lat="45.884865" lon="11.023516">
<time>2020-11-23T18:29:44Z</time>
</trkpt>
<trkpt lat="45.884858" lon="11.023486">
<time>2020-11-23T18:29:45Z</time>
</trkpt>
<trkpt lat="45.884846" lon="11.02345">
<time>2020-11-23T18:29:46Z</time>
</trkpt>
<trkpt lat="45.884828" lon="11.023406">
<time>2020-11-23T18:29:47Z</time>
</trkpt>
<trkpt lat="45.884816" lon="11.023376">
<time>2020-11-23T18:29:48Z</time>
</trkpt>
<trkpt lat="45.884806" lon="11.023336">
<time>2020-11-23T18:29:49Z</time>
</trkpt>
<trkpt lat="45.884798" lon="11.023295">
<time>2020-11-23T18:29:50Z</time>
</trkpt>
<trkpt lat="45.88479" lon="11.023253">
<time>2020-11-23T18:29:51Z</time>
</trkpt>
<trkpt lat="45.884776" lon="11.023205">
<time>2020-11-23T18:29:52Z</time>
</trkpt>
<trkpt lat="45.884763" lon="11.023168">
<time>2020-11-23T18:29:53Z</time>
</trkpt>
<trkpt lat="45.884751" lon="11.023133">
<time>2020-11-23T18:29:54Z</time>
</trkpt>
<trkpt lat="45.884741" lon="11.023108">
<time>2020-11-23T18:29:55Z</time>
</trkpt>
<trkpt lat="45.884731" lon="11.023066">
<time>2020-11-23T18:29:56Z</time>
</trkpt>
<trkpt lat="45.884723" lon="11.02303">
<time>2020-11-23T18:29:57Z</time>
</trkpt>
<trkpt lat="45.884713" lon="11.022993">
<time>2020-11-23T18:29:58Z</time>
</trkpt>
<trkpt lat="45.884711" lon="11.022961">
<time>2020-11-23T18:29:59Z</time>
</trkpt>
<trkpt lat="45.884701" lon="11.02292">
<time>2020-11-23T18:30:00Z</time>
</trkpt>
<trkpt lat="45.884695" lon="11.022883">
<time>2020-11-23T18:30:01Z</time>
</trkpt>
<trkpt lat="45.884693" lon="11.022845">
<time>2020-11-23T18:30:02Z</time>
</trkpt>
<trkpt lat="45.884693" lon="11.022803">
<time>2020-11-23T18:30:03Z</time>
</trkpt>
<trkpt lat="45.884691" lon="11.022758">
<time>2020-11-23T18:30:04Z</time>
</trkpt>
<trkpt lat="45.884683" lon="11.022718">
<time>2020-11-23T18:30:05Z</time>
</trkpt>
<trkpt lat="45.884678" lon="11.022676">
<time>2020-11-23T18:30:06Z</time>
</trkpt>
<trkpt lat="45.884673" lon="11.022638">
<time>2020-11-23T18:30:07Z</time>
</trkpt>
<trkpt lat="45.884665" lon="11.022603">
<time>2020-11-23T18:30:08Z</time>
</trkpt>
<trkpt lat="45.884658" lon="11.022566">
<time>2020-11-23T18:30:09Z</time>
</trkpt>
<trkpt lat="45.884648" lon="11.022531">
<time>2020-11-23T18:30:10Z</time>
</trkpt>
<trkpt lat="45.884636" lon="11.022498">
<time>2020-11-23T18:30:11Z</time>
</trkpt>
<trkpt lat="45.88463" lon="11.022458">
<time>2020-11-23T18:30:12Z</time>
</trkpt>
<trkpt lat="45.88462" lon="11.02242">
<time>2020-11-23T18:30:13Z</time>
</trkpt>
<trkpt lat="45.884608" lon="11.022383">
<time>2020-11-23T18:30:14Z</time>
</trkpt>
<trkpt lat="45.8846" lon="11.022343">
<time>2020-11-23T18:30:15Z</time>
</trkpt>
<trkpt lat="45.884595" lon="11.022301">
<time>2020-11-23T18:30:16Z</time>
</trkpt>
<trkpt lat="45.884586" lon="11.022263">
<time>2020-11-23T18:30:17Z</time>
</trkpt>
<trkpt lat="45.884575" lon="11.022228">
<time>2020-11-23T18:30:18Z</time>
</trkpt>
<trkpt lat="45.884568" lon="11.022203">
<time>2020-11-23T18:30:19Z</time>
</trkpt>
<trkpt lat="45.884556" lon="11.022171">
<time>2020-11-23T18:30:20Z</time>
</trkpt>
<trkpt lat="45.88454" lon="11.022135">
<time>2020-11-23T18:30:21Z</time>
</trkpt>
<trkpt lat="45.884528" lon="11.022096">
<time>2020-11-23T18:30:22Z</time>
</trkpt>
<trkpt lat="45.884511" lon="11.02206">
<time>2020-11-23T18:30:23Z</time>
</trkpt>
<trkpt lat="45.884493" lon="11.022026">
<time>2020-11-23T18:30:24Z</time>
</trkpt>
<trkpt lat="45.884475" lon="11.021996">
<time>2020-11-23T18:30:25Z</time>
</trkpt>
<trkpt lat="45.884463" lon="11.021971">
<time>2020-11-23T18:30:26Z</time>
</trkpt>
<trkpt lat="45.88445" lon="11.021935">
<time>2020-11-23T18:30:27Z</time>
</trkpt>
<trkpt lat="45.884436" lon="11.021905">
<time>2020-11-23T18:30:28Z</time>
</trkpt>
<trkpt lat="45.884423" lon="11.021875">
<time>2020-11-23T18:30:29Z</time>
</trkpt>
<trkpt lat="45.884411" lon="11.021843">
<time>2020-11-23T18:30:30Z</time>
</trkpt>
<trkpt lat="45.884398" lon="11.021803">
<time>2020-11-23T18:30:31Z</time>
</trkpt>
<trkpt lat="45.884378" lon="11.021758">
<time>2020-11-23T18:30:32Z</time>
</trkpt>
<trkpt lat="45.884363" lon="11.021725">
<time>2020-11-23T18:30:33Z</time>
</trkpt>
<trkpt lat="45.88435" lon="11.021698">
<time>2020-11-23T18:30:34Z</time>
</trkpt>
<trkpt lat="45.884336" lon="11.021668">
<time>2020-11-23T18:30:35Z</time>
</trkpt>
<trkpt lat="45.884328" lon="11.021646">
<time>2020-11-23T18:30:36Z</time>
</trkpt>
<trkpt lat="45.884315" lon="11.02161">
<time>2020-11-23T18:30:37Z</time>
</trkpt>
<trkpt lat="45.884303" lon="11.021576">
<time>2020-11-23T18:30:38Z</time>
</trkpt>
<trkpt lat="45.884293" lon="11.02154">
<time>2020-11-23T18:30:39Z</time>
</trkpt>
<trkpt lat="45.884285" lon="11.021508">
<time>2020-11-23T18:30:40Z</time>
</trkpt>
<trkpt lat="45.884273" lon="11.021475">
<time>2020-11-23T18:30:41Z</time>
</trkpt>
<trkpt lat="45.884256" lon="11.021433">
<time>2020-11-23T18:30:42Z</time>
</trkpt>
<trkpt lat="45.884238" lon="11.021401">
<time>2020-11-23T18:30:43Z</time>
</trkpt>
<trkpt lat="45.884218" lon="11.02137">
<time>2020-11-23T18:30:44Z</time>
</trkpt>
<trkpt lat="45.884201" lon="11.021346">
<time>2020-11-23T18:30:45Z</time>
</trkpt>
<trkpt lat="45.884173" lon="11.021316">
<time>2020-11-23T18:30:46Z</time>
</trkpt>
<trkpt lat="45.88415" lon="11.021286">
<time>2020-11-23T18:30:47Z</time>
</trkpt>
<trkpt lat="45.884126" lon="11.02126">
<time>2020-11-23T18:30:48Z</time>
</trkpt>
<trkpt lat="45.884106" lon="11.021231">
<time>2020-11-23T18:30:49Z</time>
</trkpt>
<trkpt lat="45.88409" lon="11.021208">
<time>2020-11-23T18:30:50Z</time>
</trkpt>
<trkpt lat="45.884068" lon="11.021171">
<time>2020-11-23T18:30:51Z</time>
</trkpt>
<trkpt lat="45.88405" lon="11.021138">
<time>2020-11-23T18:30:52Z</time>
</trkpt>
<trkpt lat="45.88403" lon="11.021101">
<time>2020-11-23T18:30:53Z</time>
</trkpt>
<trkpt lat="45.884013" lon="11.021071">
<time>2020-11-23T18:30:54Z</time>
</trkpt>
<trkpt lat="45.884001" lon="11.021045">
<time>2020-11-23T18:30:55Z</time>
</trkpt>
<trkpt lat="45.883985" lon="11.021018">
<time>2020-11-23T18:30:56Z</time>
</trkpt>
<trkpt lat="45.883971" lon="11.020988">
<time>2020-11-23T18:30:57Z</time>
</trkpt>
<trkpt lat="45.883958" lon="11.02096">
<time>2020-11-23T18:30:58Z</time>
</trkpt>
<trkpt lat="45.883945" lon="11.020931">
<time>2020-11-23T18:30:59Z</time>
</trkpt>
<trkpt lat="45.883935" lon="11.020903">
<time>2020-11-23T18:31:00Z</time>
</trkpt>
<trkpt lat="45.883923" lon="11.020866">
<time>2020-11-23T18:31:01Z</time>
</trkpt>
<trkpt lat="45.883906" lon="11.020835">
<time>2020-11-23T18:31:02Z</time>
</trkpt>
<trkpt lat="45.883891" lon="11.020813">
<time>2020-11-23T18:31:03Z</time>
</trkpt>
<trkpt lat="45.883865" lon="11.020808">
<time>2020-11-23T18:31:04Z</time>
</trkpt>
<trkpt lat="45.88383" lon="11.020806">
<time>2020-11-23T18:31:05Z</time>
</trkpt>
<trkpt lat="45.883801" lon="11.020815">
<time>2020-11-23T18:31:06Z</time>
</trkpt>
<trkpt lat="45.883781" lon="11.020836">
<time>2020-11-23T18:31:07Z</time>
</trkpt>
<trkpt lat="45.883768" lon="11.020863">
<time>2020-11-23T18:31:08Z</time>
</trkpt>
<trkpt lat="45.883756" lon="11.020888">
<time>2020-11-23T18:31:09Z</time>
</trkpt>
<trkpt lat="45.883741" lon="11.020903">
<time>2020-11-23T18:31:10Z</time>
</trkpt>
<trkpt lat="45.883723" lon="11.020906">
<time>2020-11-23T18:31:11Z</time>
</trkpt>
<trkpt lat="45.8837" lon="11.020903">
<time>2020-11-23T18:31:12Z</time>
</trkpt>
<trkpt lat="45.883675" lon="11.0209">
<time>2020-11-23T18:31:13Z</time>
</trkpt>
<trkpt lat="45.883645" lon="11.020908">
<time>2020-11-23T18:31:14Z</time>
</trkpt>
<trkpt lat="45.883618" lon="11.02091">
<time>2020-11-23T18:31:15Z</time>
</trkpt>
<trkpt lat="45.883598" lon="11.020898">
<time>2020-11-23T18:31:16Z</time>
</trkpt>
<trkpt lat="45.883573" lon="11.020888">
<time>2020-11-23T18:31:17Z</time>
</trkpt>
<trkpt lat="45.883545" lon="11.020871">
<time>2020-11-23T18:31:18Z</time>
</trkpt>
<trkpt lat="45.88352" lon="11.020853">
<time>2020-11-23T18:31:19Z</time>
</trkpt>
<trkpt lat="45.883498" lon="11.020838">
<time>2020-11-23T18:31:20Z</time>
</trkpt>
<trkpt lat="45.883473" lon="11.020823">
<time>2020-11-23T18:31:21Z</time>
</trkpt>
<trkpt lat="45.883448" lon="11.020808">
<time>2020-11-23T18:31:22Z</time>
</trkpt>
<trkpt lat="45.883423" lon="11.020793">
<time>2020-11-23T18:31:23Z</time>
</trkpt>
<trkpt lat="45.883398" lon="11.020788">
<time>2020-11-23T18:31:24Z</time>
</trkpt>
<trkpt lat="45.883373" lon="11.020788">
<time>2020-11-23T18:31:25Z</time>
</trkpt>
<trkpt lat="45.883345" lon="11.020793">
<time>2020-11-23T18:31:26Z</time>
</trkpt>
<trkpt lat="45.883315" lon="11.020805">
<time>2020-11-23T18:31:27Z</time>
</trkpt>
<trkpt lat="45.883281" lon="11.020825">
<time>2020-11-23T18:31:28Z</time>
</trkpt>
<trkpt lat="45.883246" lon="11.020845">
<time>2020-11-23T18:31:29Z</time>
</trkpt>
<trkpt lat="45.883206" lon="11.020853">
<time>2020-11-23T18:31:30Z</time>
</trkpt>
<trkpt lat="45.88317" lon="11.020865">
<time>2020-11-23T18:31:31Z</time>
</trkpt>
<trkpt lat="45.883135" lon="11.020886">
<time>2020-11-23T18:31:32Z</time>
</trkpt>
<trkpt lat="45.883113" lon="11.020903">
<time>2020-11-23T18:31:33Z</time>
</trkpt>
<trkpt lat="45.8831" lon="11.020923">
<time>2020-11-23T18:31:34Z</time>
</trkpt>
<trkpt lat="45.883088" lon="11.020945">
<time>2020-11-23T18:31:35Z</time>
</trkpt>
<trkpt lat="45.883075" lon="11.020973">
<time>2020-11-23T18:31:36Z</time>
</trkpt>
<trkpt lat="45.883056" lon="11.020998">
<time>2020-11-23T18:31:37Z</time>
</trkpt>
<trkpt lat="45.883041" lon="11.021021">
<time>2020-11-23T18:31:38Z</time>
</trkpt>
<trkpt lat="45.883026" lon="11.021045">
<time>2020-11-23T18:31:39Z</time>
</trkpt>
<trkpt lat="45.883005" lon="11.02108">
<time>2020-11-23T18:31:40Z</time>
</trkpt>
<trkpt lat="45.882981" lon="11.02111">
<time>2020-11-23T18:31:41Z</time>
</trkpt>
<trkpt lat="45.882956" lon="11.021141">
<time>2020-11-23T18:31:42Z</time>
</trkpt>
<trkpt lat="45.882931" lon="11.021176">
<time>2020-11-23T18:31:43Z</time>
</trkpt>
<trkpt lat="45.88291" lon="11.021205">
<time>2020-11-23T18:31:44Z</time>
</trkpt>
<trkpt lat="45.882876" lon="11.021245">
<time>2020-11-23T18:31:45Z</time>
</trkpt>
<trkpt lat="45.88284" lon="11.021286">
<time>2020-11-23T18:31:46Z</time>
</trkpt>
<trkpt lat="45.882806" lon="11.021323">
<time>2020-11-23T18:31:47Z</time>
</trkpt>
<trkpt lat="45.882773" lon="11.021361">
<time>2020-11-23T18:31:48Z</time>
</trkpt>
<trkpt lat="45.882751" lon="11.021385">
<time>2020-11-23T18:31:49Z</time>
</trkpt>
<trkpt lat="45.88273" lon="11.021413">
<time>2020-11-23T18:31:50Z</time>
</trkpt>
<trkpt lat="45.882706" lon="11.021443">
<time>2020-11-23T18:31:51Z</time>
</trkpt>
<trkpt lat="45.882685" lon="11.02147">
<time>2020-11-23T18:31:52Z</time>
</trkpt>
<trkpt lat="45.882661" lon="11.021501">
<time>2020-11-23T18:31:53Z</time>
</trkpt>
<trkpt lat="45.882635" lon="11.021531">
<time>2020-11-23T18:31:54Z</time>
</trkpt>
<trkpt lat="45.882615" lon="11.021556">
<time>2020-11-23T18:31:55Z</time>
</trkpt>
<trkpt lat="45.882596" lon="11.021583">
<time>2020-11-23T18:31:56Z</time>
</trkpt>
<trkpt lat="45.88258" lon="11.021606">
<time>2020-11-23T18:31:57Z</time>
</trkpt>
<trkpt lat="45.882558" lon="11.021636">
<time>2020-11-23T18:31:58Z</time>
</trkpt>
<trkpt lat="45.882526" lon="11.021666">
<time>2020-11-23T18:31:59Z</time>
</trkpt>
<trkpt lat="45.882503" lon="11.021696">
<time>2020-11-23T18:32:00Z</time>
</trkpt>
<trkpt lat="45.882481" lon="11.021725">
<time>2020-11-23T18:32:01Z</time>
</trkpt>
<trkpt lat="45.882456" lon="11.021748">
<time>2020-11-23T18:32:02Z</time>
</trkpt>
<trkpt lat="45.882433" lon="11.021766">
<time>2020-11-23T18:32:03Z</time>
</trkpt>
<trkpt lat="45.882403" lon="11.021783">
<time>2020-11-23T18:32:04Z</time>
</trkpt>
<trkpt lat="45.882381" lon="11.021801">
<time>2020-11-23T18:32:05Z</time>
</trkpt>
<trkpt lat="45.88236" lon="11.021811">
<time>2020-11-23T18:32:06Z</time>
</trkpt>
<trkpt lat="45.88233" lon="11.021831">
<time>2020-11-23T18:32:07Z</time>
</trkpt>
<trkpt lat="45.882303" lon="11.021845">
<time>2020-11-23T18:32:08Z</time>
</trkpt>
<trkpt lat="45.88228" lon="11.021851">
<time>2020-11-23T18:32:09Z</time>
</trkpt>
<trkpt lat="45.882253" lon="11.021855">
<time>2020-11-23T18:32:10Z</time>
</trkpt>
<trkpt lat="45.882221" lon="11.021861">
<time>2020-11-23T18:32:11Z</time>
</trkpt>
<trkpt lat="45.882186" lon="11.021863">
<time>2020-11-23T18:32:12Z</time>
</trkpt>
<trkpt lat="45.882158" lon="11.02186">
<time>2020-11-23T18:32:13Z</time>
</trkpt>
<trkpt lat="45.88213" lon="11.02186">
<time>2020-11-23T18:32:14Z</time>
</trkpt>
<trkpt lat="45.882103" lon="11.021858">
<time>2020-11-23T18:32:15Z</time>
</trkpt>
<trkpt lat="45.88208" lon="11.02186">
<time>2020-11-23T18:32:16Z</time>
</trkpt>
<trkpt lat="45.882056" lon="11.021863">
<time>2020-11-23T18:32:17Z</time>
</trkpt>
<trkpt lat="45.882033" lon="11.021866">
<time>2020-11-23T18:32:18Z</time>
</trkpt>
<trkpt lat="45.882008" lon="11.021865">
<time>2020-11-23T18:32:19Z</time>
</trkpt>
<trkpt lat="45.881985" lon="11.021865">
<time>2020-11-23T18:32:20Z</time>
</trkpt>
<trkpt lat="45.881963" lon="11.021861">
<time>2020-11-23T18:32:21Z</time>
</trkpt>
<trkpt lat="45.881945" lon="11.021861">
<time>2020-11-23T18:32:22Z</time>
</trkpt>
<trkpt lat="45.881923" lon="11.021858">
<time>2020-11-23T18:32:23Z</time>
</trkpt>
<trkpt lat="45.881906" lon="11.021853">
<time>2020-11-23T18:32:24Z</time>
</trkpt>
<trkpt lat="45.881881" lon="11.021858">
<time>2020-11-23T18:32:25Z</time>
</trkpt>
<trkpt lat="45.881861" lon="11.021861">
<time>2020-11-23T18:32:26Z</time>
</trkpt>
<trkpt lat="45.881841" lon="11.021866">
<time>2020-11-23T18:32:27Z</time>
</trkpt>
<trkpt lat="45.881813" lon="11.021871">
<time>2020-11-23T18:32:28Z</time>
</trkpt>
<trkpt lat="45.881783" lon="11.021883">
<time>2020-11-23T18:32:29Z</time>
</trkpt>
<trkpt lat="45.88176" lon="11.02189">
<time>2020-11-23T18:32:30Z</time>
</trkpt>
<trkpt lat="45.881738" lon="11.021893">
<time>2020-11-23T18:32:31Z</time>
</trkpt>
<trkpt lat="45.881706" lon="11.021901">
<time>2020-11-23T18:32:32Z</time>
</trkpt>
<trkpt lat="45.881675" lon="11.021913">
<time>2020-11-23T18:32:33Z</time>
</trkpt>
<trkpt lat="45.881645" lon="11.021925">
<time>2020-11-23T18:32:34Z</time>
</trkpt>
<trkpt lat="45.881618" lon="11.021928">
<time>2020-11-23T18:32:35Z</time>
</trkpt>
<trkpt lat="45.881595" lon="11.021926">
<time>2020-11-23T18:32:36Z</time>
</trkpt>
<trkpt lat="45.881568" lon="11.02192">
<time>2020-11-23T18:32:37Z</time>
</trkpt>
<trkpt lat="45.881535" lon="11.021921">
<time>2020-11-23T18:32:38Z</time>
</trkpt>
<trkpt lat="45.881508" lon="11.02192">
<time>2020-11-23T18:32:39Z</time>
</trkpt>
<trkpt lat="45.881483" lon="11.021916">
<time>2020-11-23T18:32:40Z</time>
</trkpt>
<trkpt lat="45.881458" lon="11.021915">
<time>2020-11-23T18:32:41Z</time>
</trkpt>
<trkpt lat="45.88143" lon="11.021913">
<time>2020-11-23T18:32:42Z</time>
</trkpt>
<trkpt lat="45.881406" lon="11.021921">
<time>2020-11-23T18:32:43Z</time>
</trkpt>
<trkpt lat="45.881386" lon="11.021921">
<time>2020-11-23T18:32:44Z</time>
</trkpt>
<trkpt lat="45.88136" lon="11.02192">
<time>2020-11-23T18:32:45Z</time>
</trkpt>
<trkpt lat="45.881336" lon="11.021913">
<time>2020-11-23T18:32:46Z</time>
</trkpt>
<trkpt lat="45.881321" lon="11.021906">
<time>2020-11-23T18:32:47Z</time>
</trkpt>
<trkpt lat="45.88132" lon="11.021903">
<time>2020-11-23T18:32:48Z</time>
</trkpt>
<trkpt lat="45.881303" lon="11.021901">
<time>2020-11-23T18:32:49Z</time>
</trkpt>
<trkpt lat="45.88128" lon="11.021903">
<time>2020-11-23T18:32:50Z</time>
</trkpt>
<trkpt lat="45.881251" lon="11.02191">
<time>2020-11-23T18:32:51Z</time>
</trkpt>
<trkpt lat="45.881225" lon="11.021913">
<time>2020-11-23T18:32:52Z</time>
</trkpt>
<trkpt lat="45.881198" lon="11.021915">
<time>2020-11-23T18:32:53Z</time>
</trkpt>
<trkpt lat="45.881178" lon="11.021911">
<time>2020-11-23T18:32:54Z</time>
</trkpt>
<trkpt lat="45.881158" lon="11.021908">
<time>2020-11-23T18:32:55Z</time>
</trkpt>
<trkpt lat="45.881136" lon="11.021901">
<time>2020-11-23T18:32:56Z</time>
</trkpt>
<trkpt lat="45.881118" lon="11.021885">
<time>2020-11-23T18:32:57Z</time>
</trkpt>
<trkpt lat="45.881098" lon="11.021866">
<time>2020-11-23T18:32:58Z</time>
</trkpt>
<trkpt lat="45.881078" lon="11.021846">
<time>2020-11-23T18:32:59Z</time>
</trkpt>
<trkpt lat="45.881058" lon="11.021823">
<time>2020-11-23T18:33:00Z</time>
</trkpt>
<trkpt lat="45.881045" lon="11.02179">
<time>2020-11-23T18:33:01Z</time>
</trkpt>
<trkpt lat="45.88103" lon="11.021751">
<time>2020-11-23T18:33:02Z</time>
</trkpt>
<trkpt lat="45.881013" lon="11.02171">
<time>2020-11-23T18:33:03Z</time>
</trkpt>
<trkpt lat="45.880995" lon="11.02167">
<time>2020-11-23T18:33:04Z</time>
</trkpt>
<trkpt lat="45.880981" lon="11.02163">
<time>2020-11-23T18:33:05Z</time>
</trkpt>
<trkpt lat="45.880971" lon="11.02159">
<time>2020-11-23T18:33:06Z</time>
</trkpt>
<trkpt lat="45.880956" lon="11.021555">
<time>2020-11-23T18:33:07Z</time>
</trkpt>
<trkpt lat="45.880941" lon="11.02152">
<time>2020-11-23T18:33:08Z</time>
</trkpt>
<trkpt lat="45.880928" lon="11.021486">
<time>2020-11-23T18:33:09Z</time>
</trkpt>
<trkpt lat="45.880915" lon="11.021451">
<time>2020-11-23T18:33:10Z</time>
</trkpt>
<trkpt lat="45.880901" lon="11.021416">
<time>2020-11-23T18:33:11Z</time>
</trkpt>
<trkpt lat="45.88089" lon="11.021383">
<time>2020-11-23T18:33:12Z</time>
</trkpt>
<trkpt lat="45.880876" lon="11.02135">
<time>2020-11-23T18:33:13Z</time>
</trkpt>
<trkpt lat="45.880863" lon="11.021316">
<time>2020-11-23T18:33:14Z</time>
</trkpt>
<trkpt lat="45.880851" lon="11.02128">
<time>2020-11-23T18:33:15Z</time>
</trkpt>
<trkpt lat="45.88084" lon="11.021243">
<time>2020-11-23T18:33:16Z</time>
</trkpt>
<trkpt lat="45.880826" lon="11.021208">
<time>2020-11-23T18:33:17Z</time>
</trkpt>
<trkpt lat="45.880813" lon="11.021171">
<time>2020-11-23T18:33:18Z</time>
</trkpt>
<trkpt lat="45.880798" lon="11.021133">
<time>2020-11-23T18:33:19Z</time>
</trkpt>
<trkpt lat="45.880783" lon="11.021096">
<time>2020-11-23T18:33:20Z</time>
</trkpt>
<trkpt lat="45.880766" lon="11.02106">
<time>2020-11-23T18:33:21Z</time>
</trkpt>
<trkpt lat="45.880751" lon="11.021025">
<time>2020-11-23T18:33:22Z</time>
</trkpt>
<trkpt lat="45.880733" lon="11.02099">
<time>2020-11-23T18:33:23Z</time>
</trkpt>
<trkpt lat="45.880716" lon="11.020946">
<time>2020-11-23T18:33:24Z</time>
</trkpt>
<trkpt lat="45.8807" lon="11.020905">
<time>2020-11-23T18:33:25Z</time>
</trkpt>
<trkpt lat="45.880681" lon="11.020865">
<time>2020-11-23T18:33:26Z</time>
</trkpt>
<trkpt lat="45.880665" lon="11.020825">
<time>2020-11-23T18:33:27Z</time>
</trkpt>
<trkpt lat="45.880653" lon="11.020785">
<time>2020-11-23T18:33:28Z</time>
</trkpt>
<trkpt lat="45.880636" lon="11.020746">
<time>2020-11-23T18:33:29Z</time>
</trkpt>
<trkpt lat="45.88062" lon="11.020708">
<time>2020-11-23T18:33:30Z</time>
</trkpt>
<trkpt lat="45.880601" lon="11.020673">
<time>2020-11-23T18:33:31Z</time>
</trkpt>
<trkpt lat="45.880585" lon="11.02064">
<time>2020-11-23T18:33:32Z</time>
</trkpt>
<trkpt lat="45.88057" lon="11.0206">
<time>2020-11-23T18:33:33Z</time>
</trkpt>
<trkpt lat="45.880551" lon="11.020565">
<time>2020-11-23T18:33:34Z</time>
</trkpt>
<trkpt lat="45.880533" lon="11.020528">
<time>2020-11-23T18:33:35Z</time>
</trkpt>
<trkpt lat="45.880516" lon="11.020491">
<time>2020-11-23T18:33:36Z</time>
</trkpt>
<trkpt lat="45.880496" lon="11.02046">
<time>2020-11-23T18:33:37Z</time>
</trkpt>
<trkpt lat="45.880478" lon="11.020425">
<time>2020-11-23T18:33:38Z</time>
</trkpt>
<trkpt lat="45.880461" lon="11.02039">
<time>2020-11-23T18:33:39Z</time>
</trkpt>
<trkpt lat="45.880445" lon="11.020353">
<time>2020-11-23T18:33:40Z</time>
</trkpt>
<trkpt lat="45.880426" lon="11.020316">
<time>2020-11-23T18:33:41Z</time>
</trkpt>
<trkpt lat="45.880411" lon="11.02028">
<time>2020-11-23T18:33:42Z</time>
</trkpt>
<trkpt lat="45.880393" lon="11.020245">
<time>2020-11-23T18:33:43Z</time>
</trkpt>
<trkpt lat="45.880378" lon="11.02021">
<time>2020-11-23T18:33:44Z</time>
</trkpt>
<trkpt lat="45.880361" lon="11.020178">
<time>2020-11-23T18:33:45Z</time>
</trkpt>
<trkpt lat="45.880345" lon="11.020143">
<time>2020-11-23T18:33:46Z</time>
</trkpt>
<trkpt lat="45.88033" lon="11.020108">
<time>2020-11-23T18:33:47Z</time>
</trkpt>
<trkpt lat="45.880318" lon="11.020071">
<time>2020-11-23T18:33:48Z</time>
</trkpt>
<trkpt lat="45.880311" lon="11.020035">
<time>2020-11-23T18:33:49Z</time>
</trkpt>
<trkpt lat="45.880308" lon="11.019996">
<time>2020-11-23T18:33:50Z</time>
</trkpt>
<trkpt lat="45.88031" lon="11.019958">
<time>2020-11-23T18:33:51Z</time>
</trkpt>
<trkpt lat="45.880316" lon="11.019921">
<time>2020-11-23T18:33:52Z</time>
</trkpt>
<trkpt lat="45.880326" lon="11.019886">
<time>2020-11-23T18:33:53Z</time>
</trkpt>
<trkpt lat="45.880338" lon="11.01987">
<time>2020-11-23T18:33:54Z</time>
</trkpt>
<trkpt lat="45.880356" lon="11.01986">
<time>2020-11-23T18:33:55Z</time>
</trkpt>
<trkpt lat="45.880376" lon="11.019858">
<time>2020-11-23T18:33:56Z</time>
</trkpt>
<trkpt lat="45.880398" lon="11.019865">
<time>2020-11-23T18:33:57Z</time>
</trkpt>
<trkpt lat="45.880423" lon="11.019875">
<time>2020-11-23T18:33:58Z</time>
</trkpt>
<trkpt lat="45.880445" lon="11.01989">
<time>2020-11-23T18:33:59Z</time>
</trkpt>
<trkpt lat="45.880461" lon="11.019901">
<time>2020-11-23T18:34:00Z</time>
</trkpt>
<trkpt lat="45.880475" lon="11.01991">
<time>2020-11-23T18:34:01Z</time>
</trkpt>
<trkpt lat="45.880491" lon="11.01992">
<time>2020-11-23T18:34:02Z</time>
</trkpt>
<trkpt lat="45.880515" lon="11.019931">
<time>2020-11-23T18:34:03Z</time>
</trkpt>
<trkpt lat="45.880538" lon="11.019936">
<time>2020-11-23T18:34:04Z</time>
</trkpt>
<trkpt lat="45.880558" lon="11.01994">
<time>2020-11-23T18:34:05Z</time>
</trkpt>
<trkpt lat="45.88058" lon="11.019948">
<time>2020-11-23T18:34:06Z</time>
</trkpt>
<trkpt lat="45.880603" lon="11.019955">
<time>2020-11-23T18:34:07Z</time>
</trkpt>
<trkpt lat="45.880631" lon="11.019968">
<time>2020-11-23T18:34:08Z</time>
</trkpt>
<trkpt lat="45.880655" lon="11.019976">
<time>2020-11-23T18:34:09Z</time>
</trkpt>
<trkpt lat="45.880678" lon="11.019991">
<time>2020-11-23T18:34:10Z</time>
</trkpt>
<trkpt lat="45.880715" lon="11.019996">
<time>2020-11-23T18:34:11Z</time>
</trkpt>
<trkpt lat="45.88075" lon="11.019998">
<time>2020-11-23T18:34:12Z</time>
</trkpt>
<trkpt lat="45.88078" lon="11.020001">
<time>2020-11-23T18:34:13Z</time>
</trkpt>
<trkpt lat="45.880803" lon="11.020003">
<time>2020-11-23T18:34:14Z</time>
</trkpt>
<trkpt lat="45.880833" lon="11.02">
<time>2020-11-23T18:34:15Z</time>
</trkpt>
<trkpt lat="45.880861" lon="11.019996">
<time>2020-11-23T18:34:16Z</time>
</trkpt>
<trkpt lat="45.880888" lon="11.019995">
<time>2020-11-23T18:34:17Z</time>
</trkpt>
<trkpt lat="45.880916" lon="11.019991">
<time>2020-11-23T18:34:18Z</time>
</trkpt>
<trkpt lat="45.880946" lon="11.019985">
<time>2020-11-23T18:34:19Z</time>
</trkpt>
<trkpt lat="45.880975" lon="11.019981">
<time>2020-11-23T18:34:20Z</time>
</trkpt>
<trkpt lat="45.881005" lon="11.019978">
<time>2020-11-23T18:34:21Z</time>
</trkpt>
<trkpt lat="45.88104" lon="11.019971">
<time>2020-11-23T18:34:22Z</time>
</trkpt>
<trkpt lat="45.881063" lon="11.019966">
<time>2020-11-23T18:34:23Z</time>
</trkpt>
<trkpt lat="45.881098" lon="11.019961">
<time>2020-11-23T18:34:24Z</time>
</trkpt>
<trkpt lat="45.881125" lon="11.019956">
<time>2020-11-23T18:34:25Z</time>
</trkpt>
<trkpt lat="45.881155" lon="11.01995">
<time>2020-11-23T18:34:26Z</time>
</trkpt>
<trkpt lat="45.881185" lon="11.019941">
<time>2020-11-23T18:34:27Z</time>
</trkpt>
<trkpt lat="45.881208" lon="11.019935">
<time>2020-11-23T18:34:28Z</time>
</trkpt>
<trkpt lat="45.881243" lon="11.019921">
<time>2020-11-23T18:34:29Z</time>
</trkpt>
<trkpt lat="45.881271" lon="11.01991">
<time>2020-11-23T18:34:30Z</time>
</trkpt>
<trkpt lat="45.881298" lon="11.019903">
<time>2020-11-23T18:34:31Z</time>
</trkpt>
<trkpt lat="45.881316" lon="11.019903">
<time>2020-11-23T18:34:32Z</time>
</trkpt>
<trkpt lat="45.881346" lon="11.019891">
<time>2020-11-23T18:34:33Z</time>
</trkpt>
<trkpt lat="45.88138" lon="11.019875">
<time>2020-11-23T18:34:34Z</time>
</trkpt>
<trkpt lat="45.88141" lon="11.01986">
<time>2020-11-23T18:34:35Z</time>
</trkpt>
<trkpt lat="45.881438" lon="11.019843">
<time>2020-11-23T18:34:36Z</time>
</trkpt>
<trkpt lat="45.881461" lon="11.019828">
<time>2020-11-23T18:34:37Z</time>
</trkpt>
<trkpt lat="45.881491" lon="11.01981">
<time>2020-11-23T18:34:38Z</time>
</trkpt>
<trkpt lat="45.881516" lon="11.01979">
<time>2020-11-23T18:34:39Z</time>
</trkpt>
<trkpt lat="45.881538" lon="11.019768">
<time>2020-11-23T18:34:40Z</time>
</trkpt>
<trkpt lat="45.88157" lon="11.019741">
<time>2020-11-23T18:34:41Z</time>
</trkpt>
<trkpt lat="45.881595" lon="11.019715">
<time>2020-11-23T18:34:42Z</time>
</trkpt>
<trkpt lat="45.881621" lon="11.019691">
<time>2020-11-23T18:34:43Z</time>
</trkpt>
<trkpt lat="45.881645" lon="11.019668">
<time>2020-11-23T18:34:44Z</time>
</trkpt>
<trkpt lat="45.881666" lon="11.019648">
<time>2020-11-23T18:34:45Z</time>
</trkpt>
<trkpt lat="45.88168" lon="11.019631">
<time>2020-11-23T18:34:46Z</time>
</trkpt>
<trkpt lat="45.8817" lon="11.019616">
<time>2020-11-23T18:34:47Z</time>
</trkpt>
<trkpt lat="45.88172" lon="11.019598">
<time>2020-11-23T18:34:48Z</time>
</trkpt>
<trkpt lat="45.881748" lon="11.019575">
<time>2020-11-23T18:34:49Z</time>
</trkpt>
<trkpt lat="45.881775" lon="11.019551">
<time>2020-11-23T18:34:50Z</time>
</trkpt>
<trkpt lat="45.881803" lon="11.019525">
<time>2020-11-23T18:34:51Z</time>
</trkpt>
<trkpt lat="45.881836" lon="11.019491">
<time>2020-11-23T18:34:52Z</time>
</trkpt>
<trkpt lat="45.88186" lon="11.019471">
<time>2020-11-23T18:34:53Z</time>
</trkpt>
<trkpt lat="45.881883" lon="11.019446">
<time>2020-11-23T18:34:54Z</time>
</trkpt>
<trkpt lat="45.881908" lon="11.019421">
<time>2020-11-23T18:34:55Z</time>
</trkpt>
<trkpt lat="45.881935" lon="11.019395">
<time>2020-11-23T18:34:56Z</time>
</trkpt>
<trkpt lat="45.88196" lon="11.01937">
<time>2020-11-23T18:34:57Z</time>
</trkpt>
<trkpt lat="45.881983" lon="11.019343">
<time>2020-11-23T18:34:58Z</time>
</trkpt>
<trkpt lat="45.882008" lon="11.019313">
<time>2020-11-23T18:34:59Z</time>
</trkpt>
<trkpt lat="45.882036" lon="11.019281">
<time>2020-11-23T18:35:00Z</time>
</trkpt>
<trkpt lat="45.882056" lon="11.019253">
<time>2020-11-23T18:35:01Z</time>
</trkpt>
<trkpt lat="45.882081" lon="11.019225">
<time>2020-11-23T18:35:02Z</time>
</trkpt>
<trkpt lat="45.882108" lon="11.019193">
<time>2020-11-23T18:35:03Z</time>
</trkpt>
<trkpt lat="45.88213" lon="11.019166">
<time>2020-11-23T18:35:04Z</time>
</trkpt>
<trkpt lat="45.882148" lon="11.019145">
<time>2020-11-23T18:35:05Z</time>
</trkpt>
<trkpt lat="45.882171" lon="11.019121">
<time>2020-11-23T18:35:06Z</time>
</trkpt>
<trkpt lat="45.8822" lon="11.019098">
<time>2020-11-23T18:35:07Z</time>
</trkpt>
<trkpt lat="45.882223" lon="11.01908">
<time>2020-11-23T18:35:08Z</time>
</trkpt>
<trkpt lat="45.882241" lon="11.01907">
<time>2020-11-23T18:35:09Z</time>
</trkpt>
<trkpt lat="45.88227" lon="11.019051">
<time>2020-11-23T18:35:10Z</time>
</trkpt>
<trkpt lat="45.882298" lon="11.019035">
<time>2020-11-23T18:35:11Z</time>
</trkpt>
<trkpt lat="45.882321" lon="11.019015">
<time>2020-11-23T18:35:12Z</time>
</trkpt>
<trkpt lat="45.882343" lon="11.018996">
<time>2020-11-23T18:35:13Z</time>
</trkpt>
<trkpt lat="45.882365" lon="11.018978">
<time>2020-11-23T18:35:14Z</time>
</trkpt>
<trkpt lat="45.882383" lon="11.018958">
<time>2020-11-23T18:35:15Z</time>
</trkpt>
<trkpt lat="45.882403" lon="11.018938">
<time>2020-11-23T18:35:16Z</time>
</trkpt>
<trkpt lat="45.882425" lon="11.018915">
<time>2020-11-23T18:35:17Z</time>
</trkpt>
<trkpt lat="45.882441" lon="11.018898">
<time>2020-11-23T18:35:18Z</time>
</trkpt>
<trkpt lat="45.882456" lon="11.01888">
<time>2020-11-23T18:35:19Z</time>
</trkpt>
<trkpt lat="45.882471" lon="11.018863">
<time>2020-11-23T18:35:20Z</time>
</trkpt>
<trkpt lat="45.882488" lon="11.018845">
<time>2020-11-23T18:35:21Z</time>
</trkpt>
<trkpt lat="45.882506" lon="11.018828">
<time>2020-11-23T18:35:22Z</time>
</trkpt>
<trkpt lat="45.882523" lon="11.018815">
<time>2020-11-23T18:35:23Z</time>
</trkpt>
<trkpt lat="45.882538" lon="11.018806">
<time>2020-11-23T18:35:24Z</time>
</trkpt>
<trkpt lat="45.88256" lon="11.018795">
<time>2020-11-23T18:35:25Z</time>
</trkpt>
<trkpt lat="45.882585" lon="11.01878">
<time>2020-11-23T18:35:26Z</time>
</trkpt>
<trkpt lat="45.882608" lon="11.018763">
<time>2020-11-23T18:35:27Z</time>
</trkpt>
<trkpt lat="45.882628" lon="11.018746">
<time>2020-11-23T18:35:28Z</time>
</trkpt>
<trkpt lat="45.882655" lon="11.018726">
<time>2020-11-23T18:35:29Z</time>
</trkpt>
<trkpt lat="45.88268" lon="11.01871">
<time>2020-11-23T18:35:30Z</time>
</trkpt>
<trkpt lat="45.882701" lon="11.018693">
<time>2020-11-23T18:35:31Z</time>
</trkpt>
<trkpt lat="45.882723" lon="11.018678">
<time>2020-11-23T18:35:32Z</time>
</trkpt>
<trkpt lat="45.882743" lon="11.018665">
<time>2020-11-23T18:35:33Z</time>
</trkpt>
<trkpt lat="45.88276" lon="11.018653">
<time>2020-11-23T18:35:34Z</time>
</trkpt>
<trkpt lat="45.882781" lon="11.018641">
<time>2020-11-23T18:35:35Z</time>
</trkpt>
<trkpt lat="45.882801" lon="11.018633">
<time>2020-11-23T18:35:36Z</time>
</trkpt>
<trkpt lat="45.882821" lon="11.018625">
<time>2020-11-23T18:35:37Z</time>
</trkpt>
<trkpt lat="45.882835" lon="11.018616">
<time>2020-11-23T18:35:38Z</time>
</trkpt>
<trkpt lat="45.882855" lon="11.018601">
<time>2020-11-23T18:35:39Z</time>
</trkpt>
<trkpt lat="45.882876" lon="11.01858">
<time>2020-11-23T18:35:40Z</time>
</trkpt>
<trkpt lat="45.882895" lon="11.01857">
<time>2020-11-23T18:35:41Z</time>
</trkpt>
<trkpt lat="45.882908" lon="11.018573">
<time>2020-11-23T18:35:42Z</time>
</trkpt>
<trkpt lat="45.88293" lon="11.018565">
<time>2020-11-23T18:35:43Z</time>
</trkpt>
<trkpt lat="45.882951" lon="11.018543">
<time>2020-11-23T18:35:44Z</time>
</trkpt>
<trkpt lat="45.882966" lon="11.018531">
<time>2020-11-23T18:35:45Z</time>
</trkpt>
<trkpt lat="45.882971" lon="11.018526">
<time>2020-11-23T18:35:46Z</time>
</trkpt>
<trkpt lat="45.882981" lon="11.018516">
<time>2020-11-23T18:35:47Z</time>
</trkpt>
<trkpt lat="45.882998" lon="11.018503">
<time>2020-11-23T18:35:48Z</time>
</trkpt>
<trkpt lat="45.88301" lon="11.018493">
<time>2020-11-23T18:35:49Z</time>
</trkpt>
<trkpt lat="45.88303" lon="11.018483">
<time>2020-11-23T18:35:50Z</time>
</trkpt>
<trkpt lat="45.883043" lon="11.018478">
<time>2020-11-23T18:35:51Z</time>
</trkpt>
<trkpt lat="45.883061" lon="11.018468">
<time>2020-11-23T18:35:52Z</time>
</trkpt>
<trkpt lat="45.883093" lon="11.018455">
<time>2020-11-23T18:35:53Z</time>
</trkpt>
<trkpt lat="45.88312" lon="11.018438">
<time>2020-11-23T18:35:54Z</time>
</trkpt>
<trkpt lat="45.883148" lon="11.018421">
<time>2020-11-23T18:35:55Z</time>
</trkpt>
<trkpt lat="45.88317" lon="11.01842">
<time>2020-11-23T18:35:56Z</time>
</trkpt>
<trkpt lat="45.883188" lon="11.018416">
<time>2020-11-23T18:35:57Z</time>
</trkpt>
<trkpt lat="45.883215" lon="11.01841">
<time>2020-11-23T18:35:58Z</time>
</trkpt>
<trkpt lat="45.88323" lon="11.018413">
<time>2020-11-23T18:35:59Z</time>
</trkpt>
<trkpt lat="45.883248" lon="11.018416">
<time>2020-11-23T18:36:00Z</time>
</trkpt>
<trkpt lat="45.88327" lon="11.01842">
<time>2020-11-23T18:36:01Z</time>
</trkpt>
<trkpt lat="45.8833" lon="11.018418">
<time>2020-11-23T18:36:02Z</time>
</trkpt>
<trkpt lat="45.883325" lon="11.018415">
<time>2020-11-23T18:36:03Z</time>
</trkpt>
<trkpt lat="45.883348" lon="11.01841">
<time>2020-11-23T18:36:04Z</time>
</trkpt>
<trkpt lat="45.88337" lon="11.018403">
<time>2020-11-23T18:36:05Z</time>
</trkpt>
<trkpt lat="45.883388" lon="11.018401">
<time>2020-11-23T18:36:06Z</time>
</trkpt>
<trkpt lat="45.883411" lon="11.018396">
<time>2020-11-23T18:36:07Z</time>
</trkpt>
<trkpt lat="45.883431" lon="11.018395">
<time>2020-11-23T18:36:08Z</time>
</trkpt>
<trkpt lat="45.883456" lon="11.018386">
<time>2020-11-23T18:36:09Z</time>
</trkpt>
<trkpt lat="45.883473" lon="11.018385">
<time>2020-11-23T18:36:10Z</time>
</trkpt>
<trkpt lat="45.883496" lon="11.018383">
<time>2020-11-23T18:36:11Z</time>
</trkpt>
<trkpt lat="45.883518" lon="11.01838">
<time>2020-11-23T18:36:12Z</time>
</trkpt>
<trkpt lat="45.883533" lon="11.01838">
<time>2020-11-23T18:36:13Z</time>
</trkpt>
<trkpt lat="45.883548" lon="11.01838">
<time>2020-11-23T18:36:14Z</time>
</trkpt>
<trkpt lat="45.88357" lon="11.018373">
<time>2020-11-23T18:36:15Z</time>
</trkpt>
<trkpt lat="45.883596" lon="11.018363">
<time>2020-11-23T18:36:16Z</time>
</trkpt>
<trkpt lat="45.883623" lon="11.018345">
<time>2020-11-23T18:36:17Z</time>
</trkpt>
<trkpt lat="45.88365" lon="11.01834">
<time>2020-11-23T18:36:18Z</time>
</trkpt>
<trkpt lat="45.88368" lon="11.01833">
<time>2020-11-23T18:36:19Z</time>
</trkpt>
<trkpt lat="45.883718" lon="11.018325">
<time>2020-11-23T18:36:20Z</time>
</trkpt>
<trkpt lat="45.883751" lon="11.018325">
<time>2020-11-23T18:36:21Z</time>
</trkpt>
<trkpt lat="45.883783" lon="11.018323">
<time>2020-11-23T18:36:22Z</time>
</trkpt>
<trkpt lat="45.88381" lon="11.018316">
<time>2020-11-23T18:36:23Z</time>
</trkpt>
<trkpt lat="45.883831" lon="11.018308">
<time>2020-11-23T18:36:24Z</time>
</trkpt>
<trkpt lat="45.883855" lon="11.018301">
<time>2020-11-23T18:36:25Z</time>
</trkpt>
<trkpt lat="45.883873" lon="11.018303">
<time>2020-11-23T18:36:26Z</time>
</trkpt>
<trkpt lat="45.883895" lon="11.018305">
<time>2020-11-23T18:36:27Z</time>
</trkpt>
<trkpt lat="45.883916" lon="11.018305">
<time>2020-11-23T18:36:28Z</time>
</trkpt>
<trkpt lat="45.883936" lon="11.018311">
<time>2020-11-23T18:36:29Z</time>
</trkpt>
<trkpt lat="45.883958" lon="11.018316">
<time>2020-11-23T18:36:30Z</time>
</trkpt>
<trkpt lat="45.883981" lon="11.018323">
<time>2020-11-23T18:36:31Z</time>
</trkpt>
<trkpt lat="45.884" lon="11.018336">
<time>2020-11-23T18:36:32Z</time>
</trkpt>
<trkpt lat="45.884015" lon="11.01836">
<time>2020-11-23T18:36:33Z</time>
</trkpt>
<trkpt lat="45.884041" lon="11.01839">
<time>2020-11-23T18:36:34Z</time>
</trkpt>
<trkpt lat="45.884076" lon="11.018411">
<time>2020-11-23T18:36:35Z</time>
</trkpt>
<trkpt lat="45.884108" lon="11.018431">
<time>2020-11-23T18:36:36Z</time>
</trkpt>
<trkpt lat="45.884141" lon="11.018448">
<time>2020-11-23T18:36:37Z</time>
</trkpt>
<trkpt lat="45.884173" lon="11.018465">
<time>2020-11-23T18:36:38Z</time>
</trkpt>
<trkpt lat="45.884195" lon="11.018486">
<time>2020-11-23T18:36:39Z</time>
</trkpt>
<trkpt lat="45.884211" lon="11.018518">
<time>2020-11-23T18:36:40Z</time>
</trkpt>
<trkpt lat="45.88422" lon="11.018546">
<time>2020-11-23T18:36:41Z</time>
</trkpt>
<trkpt lat="45.88422" lon="11.018576">
<time>2020-11-23T18:36:42Z</time>
</trkpt>
<trkpt lat="45.884213" lon="11.018611">
<time>2020-11-23T18:36:43Z</time>
</trkpt>
<trkpt lat="45.884208" lon="11.018651">
<time>2020-11-23T18:36:44Z</time>
</trkpt>
<trkpt lat="45.884218" lon="11.018693">
<time>2020-11-23T18:36:45Z</time>
</trkpt>
<trkpt lat="45.884228" lon="11.018731">
<time>2020-11-23T18:36:46Z</time>
</trkpt>
<trkpt lat="45.884235" lon="11.01877">
<time>2020-11-23T18:36:47Z</time>
</trkpt>
<trkpt lat="45.884246" lon="11.018813">
<time>2020-11-23T18:36:48Z</time>
</trkpt>
<trkpt lat="45.884243" lon="11.018851">
<time>2020-11-23T18:36:49Z</time>
</trkpt>
<trkpt lat="45.88423" lon="11.01889">
<time>2020-11-23T18:36:50Z</time>
</trkpt>
<trkpt lat="45.884215" lon="11.018921">
<time>2020-11-23T18:36:51Z</time>
</trkpt>
<trkpt lat="45.8842" lon="11.018963">
<time>2020-11-23T18:36:52Z</time>
</trkpt>
<trkpt lat="45.884193" lon="11.018996">
<time>2020-11-23T18:36:53Z</time>
</trkpt>
<trkpt lat="45.884185" lon="11.019031">
<time>2020-11-23T18:36:54Z</time>
</trkpt>
<trkpt lat="45.884173" lon="11.019073">
<time>2020-11-23T18:36:55Z</time>
</trkpt>
<trkpt lat="45.884168" lon="11.019113">
<time>2020-11-23T18:36:56Z</time>
</trkpt>
<trkpt lat="45.884161" lon="11.019161">
<time>2020-11-23T18:36:57Z</time>
</trkpt>
<trkpt lat="45.884165" lon="11.019198">
<time>2020-11-23T18:36:58Z</time>
</trkpt>
<trkpt lat="45.88417" lon="11.019238">
<time>2020-11-23T18:36:59Z</time>
</trkpt>
<trkpt lat="45.884155" lon="11.019293">
<time>2020-11-23T18:37:00Z</time>
</trkpt>
<trkpt lat="45.884136" lon="11.019346">
<time>2020-11-23T18:37:01Z</time>
</trkpt>
<trkpt lat="45.884116" lon="11.0194">
<time>2020-11-23T18:37:02Z</time>
</trkpt>
<trkpt lat="45.88411" lon="11.019436">
<time>2020-11-23T18:37:03Z</time>
</trkpt>
<trkpt lat="45.884106" lon="11.019475">
<time>2020-11-23T18:37:04Z</time>
</trkpt>
<trkpt lat="45.88411" lon="11.019506">
<time>2020-11-23T18:37:05Z</time>
</trkpt>
<trkpt lat="45.88412" lon="11.019543">
<time>2020-11-23T18:37:06Z</time>
</trkpt>
<trkpt lat="45.884125" lon="11.01958">
<time>2020-11-23T18:37:07Z</time>
</trkpt>
<trkpt lat="45.884126" lon="11.019618">
<time>2020-11-23T18:37:08Z</time>
</trkpt>
<trkpt lat="45.884125" lon="11.019651">
<time>2020-11-23T18:37:09Z</time>
</trkpt>
<trkpt lat="45.884118" lon="11.019681">
<time>2020-11-23T18:37:10Z</time>
</trkpt>
<trkpt lat="45.884106" lon="11.019716">
<time>2020-11-23T18:37:11Z</time>
</trkpt>
<trkpt lat="45.884095" lon="11.019751">
<time>2020-11-23T18:37:12Z</time>
</trkpt>
<trkpt lat="45.884081" lon="11.019786">
<time>2020-11-23T18:37:13Z</time>
</trkpt>
<trkpt lat="45.884071" lon="11.019815">
<time>2020-11-23T18:37:14Z</time>
</trkpt>
<trkpt lat="45.884061" lon="11.019843">
<time>2020-11-23T18:37:15Z</time>
</trkpt>
<trkpt lat="45.884055" lon="11.019871">
<time>2020-11-23T18:37:16Z</time>
</trkpt>
<trkpt lat="45.884046" lon="11.019911">
<time>2020-11-23T18:37:17Z</time>
</trkpt>
<trkpt lat="45.884043" lon="11.019946">
<time>2020-11-23T18:37:18Z</time>
</trkpt>
<trkpt lat="45.884038" lon="11.019983">
<time>2020-11-23T18:37:19Z</time>
</trkpt>
<trkpt lat="45.88403" lon="11.020026">
<time>2020-11-23T18:37:20Z</time>
</trkpt>
<trkpt lat="45.884025" lon="11.020061">
<time>2020-11-23T18:37:21Z</time>
</trkpt>
<trkpt lat="45.884011" lon="11.020098">
<time>2020-11-23T18:37:22Z</time>
</trkpt>
<trkpt lat="45.883995" lon="11.020141">
<time>2020-11-23T18:37:23Z</time>
</trkpt>
<trkpt lat="45.883985" lon="11.020178">
<time>2020-11-23T18:37:24Z</time>
</trkpt>
<trkpt lat="45.883983" lon="11.020208">
<time>2020-11-23T18:37:25Z</time>
</trkpt>
<trkpt lat="45.883996" lon="11.020226">
<time>2020-11-23T18:37:26Z</time>
</trkpt>
<trkpt lat="45.884015" lon="11.02024">
<time>2020-11-23T18:37:27Z</time>
</trkpt>
<trkpt lat="45.88403" lon="11.020251">
<time>2020-11-23T18:37:28Z</time>
</trkpt>
<trkpt lat="45.884051" lon="11.020273">
<time>2020-11-23T18:37:29Z</time>
</trkpt>
<trkpt lat="45.88407" lon="11.020293">
<time>2020-11-23T18:37:30Z</time>
</trkpt>
<trkpt lat="45.884083" lon="11.020315">
<time>2020-11-23T18:37:31Z</time>
</trkpt>
<trkpt lat="45.8841" lon="11.020336">
<time>2020-11-23T18:37:32Z</time>
</trkpt>
<trkpt lat="45.884113" lon="11.020358">
<time>2020-11-23T18:37:33Z</time>
</trkpt>
<trkpt lat="45.884126" lon="11.02038">
<time>2020-11-23T18:37:34Z</time>
</trkpt>
<trkpt lat="45.884145" lon="11.020398">
<time>2020-11-23T18:37:35Z</time>
</trkpt>
<trkpt lat="45.884158" lon="11.02041">
<time>2020-11-23T18:37:36Z</time>
</trkpt>
<trkpt lat="45.884166" lon="11.02043">
<time>2020-11-23T18:37:37Z</time>
</trkpt>
<trkpt lat="45.884175" lon="11.020456">
<time>2020-11-23T18:37:38Z</time>
</trkpt>
<trkpt lat="45.884185" lon="11.020478">
<time>2020-11-23T18:37:39Z</time>
</trkpt>
<trkpt lat="45.884196" lon="11.020503">
<time>2020-11-23T18:37:40Z</time>
</trkpt>
<trkpt lat="45.88421" lon="11.02053">
<time>2020-11-23T18:37:41Z</time>
</trkpt>
<trkpt lat="45.884223" lon="11.020561">
<time>2020-11-23T18:37:42Z</time>
</trkpt>
<trkpt lat="45.884236" lon="11.020581">
<time>2020-11-23T18:37:43Z</time>
</trkpt>
<trkpt lat="45.884248" lon="11.020605">
<time>2020-11-23T18:37:44Z</time>
</trkpt>
<trkpt lat="45.884258" lon="11.020633">
<time>2020-11-23T18:37:45Z</time>
</trkpt>
<trkpt lat="45.884268" lon="11.020655">
<time>2020-11-23T18:37:46Z</time>
</trkpt>
<trkpt lat="45.884275" lon="11.020675">
<time>2020-11-23T18:37:47Z</time>
</trkpt>
<trkpt lat="45.88428" lon="11.020693">
<time>2020-11-23T18:37:48Z</time>
</trkpt>
<trkpt lat="45.884286" lon="11.020706">
<time>2020-11-23T18:37:49Z</time>
</trkpt>
<trkpt lat="45.884285" lon="11.020725">
<time>2020-11-23T18:37:50Z</time>
</trkpt>
<trkpt lat="45.884285" lon="11.020745">
<time>2020-11-23T18:37:51Z</time>
</trkpt>
<trkpt lat="45.884283" lon="11.020768">
<time>2020-11-23T18:37:52Z</time>
</trkpt>
<trkpt lat="45.88428" lon="11.020785">
<time>2020-11-23T18:37:53Z</time>
</trkpt>
<trkpt lat="45.88428" lon="11.020803">
<time>2020-11-23T18:37:54Z</time>
</trkpt>
<trkpt lat="45.88428" lon="11.020821">
<time>2020-11-23T18:37:55Z</time>
</trkpt>
<trkpt lat="45.88428" lon="11.020843">
<time>2020-11-23T18:37:56Z</time>
</trkpt>
<trkpt lat="45.88428" lon="11.020865">
<time>2020-11-23T18:37:57Z</time>
</trkpt>
<trkpt lat="45.88428" lon="11.020873">
<time>2020-11-23T18:37:58Z</time>
</trkpt>
<trkpt lat="45.884276" lon="11.020885">
<time>2020-11-23T18:37:59Z</time>
</trkpt>
<trkpt lat="45.884278" lon="11.020891">
<time>2020-11-23T18:38:00Z</time>
</trkpt>
<trkpt lat="45.884278" lon="11.020895">
<time>2020-11-23T18:38:01Z</time>
</trkpt>
<trkpt lat="45.884276" lon="11.020898">
<time>2020-11-23T18:38:02Z</time>
</trkpt>
<trkpt lat="45.884276" lon="11.020908">
<time>2020-11-23T18:38:03Z</time>
</trkpt>
<trkpt lat="45.88428" lon="11.020913">
<time>2020-11-23T18:38:04Z</time>
</trkpt>
<trkpt lat="45.884288" lon="11.020911">
<time>2020-11-23T18:38:05Z</time>
</trkpt>
<trkpt lat="45.884301" lon="11.020901">
<time>2020-11-23T18:38:06Z</time>
</trkpt>
<trkpt lat="45.884313" lon="11.020881">
<time>2020-11-23T18:38:07Z</time>
</trkpt>
<trkpt lat="45.884316" lon="11.020865">
<time>2020-11-23T18:38:08Z</time>
</trkpt>
<trkpt lat="45.884315" lon="11.02086">
<time>2020-11-23T18:38:09Z</time>
</trkpt>
<trkpt lat="45.884315" lon="11.020855">
<time>2020-11-23T18:38:10Z</time>
</trkpt>
<trkpt lat="45.884315" lon="11.02085">
<time>2020-11-23T18:38:11Z</time>
</trkpt>
<trkpt lat="45.884311" lon="11.020843">
<time>2020-11-23T18:38:12Z</time>
</trkpt>
<trkpt lat="45.884311" lon="11.020833">
<time>2020-11-23T18:38:13Z</time>
</trkpt>
<trkpt lat="45.884308" lon="11.020831">
<time>2020-11-23T18:38:14Z</time>
</trkpt>
<trkpt lat="45.884305" lon="11.020835">
<time>2020-11-23T18:38:15Z</time>
</trkpt>
<trkpt lat="45.884303" lon="11.020835">
<time>2020-11-23T18:38:16Z</time>
</trkpt>
<trkpt lat="45.884306" lon="11.020835">
<time>2020-11-23T18:38:17Z</time>
</trkpt>
<trkpt lat="45.884315" lon="11.020835">
<time>2020-11-23T18:38:18Z</time>
</trkpt>
<trkpt lat="45.88432" lon="11.020841">
<time>2020-11-23T18:38:19Z</time>
</trkpt>
<trkpt lat="45.884321" lon="11.020848">
<time>2020-11-23T18:38:20Z</time>
</trkpt>
<trkpt lat="45.884316" lon="11.020855">
<time>2020-11-23T18:38:21Z</time>
</trkpt>
<trkpt lat="45.884315" lon="11.020856">
<time>2020-11-23T18:38:22Z</time>
</trkpt>
<trkpt lat="45.884313" lon="11.020865">
<time>2020-11-23T18:38:23Z</time>
</trkpt>
<trkpt lat="45.884315" lon="11.020878">
<time>2020-11-23T18:38:24Z</time>
</trkpt>
<trkpt lat="45.884315" lon="11.0209">
<time>2020-11-23T18:38:25Z</time>
</trkpt>
<trkpt lat="45.884316" lon="11.020916">
<time>2020-11-23T18:38:26Z</time>
</trkpt>
<trkpt lat="45.884316" lon="11.020916">
<time>2020-11-23T18:38:27Z</time>
</trkpt>
<trkpt lat="45.884316" lon="11.020916">
<time>2020-11-23T18:38:28Z</time>
</trkpt>
<trkpt lat="45.884316" lon="11.020916">
<time>2020-11-23T18:38:29Z</time>
</trkpt>
<trkpt lat="45.884316" lon="11.020916">
<time>2020-11-23T18:38:30Z</time>
</trkpt>
<trkpt lat="45.884316" lon="11.020916">
<time>2020-11-23T18:38:31Z</time>
</trkpt>
<trkpt lat="45.884316" lon="11.020916">
<time>2020-11-23T18:38:32Z</time>
</trkpt>
<trkpt lat="45.884316" lon="11.020916">
<time>2020-11-23T18:38:33Z</time>
</trkpt>
<trkpt lat="45.884316" lon="11.020916">
<time>2020-11-23T18:38:34Z</time>
</trkpt>
<trkpt lat="45.884316" lon="11.020916">
<time>2020-11-23T18:38:35Z</time>
</trkpt>
<trkpt lat="45.884316" lon="11.020916">
<time>2020-11-23T18:38:36Z</time>
</trkpt>
<trkpt lat="45.884316" lon="11.020916">
<time>2020-11-23T18:38:37Z</time>
</trkpt>
<trkpt lat="45.884316" lon="11.020916">
<time>2020-11-23T18:38:38Z</time>
</trkpt>
<trkpt lat="45.884315" lon="11.020916">
<time>2020-11-23T18:38:39Z</time>
</trkpt>
<trkpt lat="45.884315" lon="11.020916">
<time>2020-11-23T18:38:40Z</time>
</trkpt>
<trkpt lat="45.884315" lon="11.020916">
<time>2020-11-23T18:38:41Z</time>
</trkpt>
<trkpt lat="45.884315" lon="11.020916">
<time>2020-11-23T18:38:42Z</time>
</trkpt>
<trkpt lat="45.884315" lon="11.020916">
<time>2020-11-23T18:38:43Z</time>
</trkpt>
<trkpt lat="45.884313" lon="11.020916">
<time>2020-11-23T18:38:44Z</time>
</trkpt>
<trkpt lat="45.88431" lon="11.020916">
<time>2020-11-23T18:38:45Z</time>
</trkpt>
<trkpt lat="45.884305" lon="11.020918">
<time>2020-11-23T18:38:46Z</time>
</trkpt>
<trkpt lat="45.884301" lon="11.020921">
<time>2020-11-23T18:38:47Z</time>
</trkpt>
<trkpt lat="45.884301" lon="11.02093">
<time>2020-11-23T18:38:48Z</time>
</trkpt>
<trkpt lat="45.884301" lon="11.020941">
<time>2020-11-23T18:38:49Z</time>
</trkpt>
<trkpt lat="45.884301" lon="11.020955">
<time>2020-11-23T18:38:50Z</time>
</trkpt>
<trkpt lat="45.8843" lon="11.020963">
<time>2020-11-23T18:38:51Z</time>
</trkpt>
<trkpt lat="45.8843" lon="11.020965">
<time>2020-11-23T18:38:52Z</time>
</trkpt>
<trkpt lat="45.8843" lon="11.020966">
<time>2020-11-23T18:38:53Z</time>
</trkpt>
<trkpt lat="45.884301" lon="11.020975">
<time>2020-11-23T18:38:54Z</time>
</trkpt>
<trkpt lat="45.884303" lon="11.021021">
<time>2020-11-23T18:38:55Z</time>
</trkpt>
<trkpt lat="45.884308" lon="11.021081">
<time>2020-11-23T18:38:56Z</time>
</trkpt>
<trkpt lat="45.884308" lon="11.02113">
<time>2020-11-23T18:38:57Z</time>
</trkpt>
<trkpt lat="45.884311" lon="11.021195">
<time>2020-11-23T18:38:58Z</time>
</trkpt>
<trkpt lat="45.884318" lon="11.021241">
<time>2020-11-23T18:38:59Z</time>
</trkpt>
<trkpt lat="45.884325" lon="11.021293">
<time>2020-11-23T18:39:00Z</time>
</trkpt>
<trkpt lat="45.88433" lon="11.021353">
<time>2020-11-23T18:39:01Z</time>
</trkpt>
<trkpt lat="45.884335" lon="11.021388">
<time>2020-11-23T18:39:02Z</time>
</trkpt>
<trkpt lat="45.88434" lon="11.02141">
<time>2020-11-23T18:39:03Z</time>
</trkpt>
<trkpt lat="45.884343" lon="11.021423">
<time>2020-11-23T18:39:04Z</time>
</trkpt>
<trkpt lat="45.884348" lon="11.02143">
<time>2020-11-23T18:39:05Z</time>
</trkpt>
<trkpt lat="45.884351" lon="11.021431">
<time>2020-11-23T18:39:06Z</time>
</trkpt>
<trkpt lat="45.884348" lon="11.021445">
<time>2020-11-23T18:39:07Z</time>
</trkpt>
<trkpt lat="45.884346" lon="11.021456">
<time>2020-11-23T18:39:08Z</time>
</trkpt>
<trkpt lat="45.884346" lon="11.021465">
<time>2020-11-23T18:39:09Z</time>
</trkpt>
<trkpt lat="45.884345" lon="11.021483">
<time>2020-11-23T18:39:10Z</time>
</trkpt>
<trkpt lat="45.884348" lon="11.021491">
<time>2020-11-23T18:39:11Z</time>
</trkpt>
<trkpt lat="45.88435" lon="11.0215">
<time>2020-11-23T18:39:12Z</time>
</trkpt>
<trkpt lat="45.884351" lon="11.021508">
<time>2020-11-23T18:39:13Z</time>
</trkpt>
<trkpt lat="45.884355" lon="11.021513">
<time>2020-11-23T18:39:14Z</time>
</trkpt>
<trkpt lat="45.884356" lon="11.02152">
<time>2020-11-23T18:39:15Z</time>
</trkpt>
<trkpt lat="45.884356" lon="11.021526">
<time>2020-11-23T18:39:16Z</time>
</trkpt>
<trkpt lat="45.884358" lon="11.021531">
<time>2020-11-23T18:39:17Z</time>
</trkpt>
<trkpt lat="45.884358" lon="11.021536">
<time>2020-11-23T18:39:18Z</time>
</trkpt>
<trkpt lat="45.884358" lon="11.021543">
<time>2020-11-23T18:39:19Z</time>
</trkpt>
<trkpt lat="45.88436" lon="11.021548">
<time>2020-11-23T18:39:20Z</time>
</trkpt>
<trkpt lat="45.884363" lon="11.021551">
<time>2020-11-23T18:39:21Z</time>
</trkpt>
<trkpt lat="45.884368" lon="11.02156">
<time>2020-11-23T18:39:22Z</time>
</trkpt>
<trkpt lat="45.884368" lon="11.021573">
<time>2020-11-23T18:39:23Z</time>
</trkpt>
<trkpt lat="45.884376" lon="11.02158">
<time>2020-11-23T18:39:24Z</time>
</trkpt>
<trkpt lat="45.884388" lon="11.021575">
<time>2020-11-23T18:39:25Z</time>
</trkpt>
<trkpt lat="45.884391" lon="11.02158">
<time>2020-11-23T18:39:26Z</time>
</trkpt>
<trkpt lat="45.884395" lon="11.021581">
<time>2020-11-23T18:39:27Z</time>
</trkpt>
<trkpt lat="45.884398" lon="11.021588">
<time>2020-11-23T18:39:28Z</time>
</trkpt>
<trkpt lat="45.884401" lon="11.02158">
<time>2020-11-23T18:39:29Z</time>
</trkpt>
<trkpt lat="45.884405" lon="11.021555">
<time>2020-11-23T18:39:30Z</time>
</trkpt>
<trkpt lat="45.884406" lon="11.02152">
<time>2020-11-23T18:39:31Z</time>
</trkpt>
<trkpt lat="45.884411" lon="11.02148">
<time>2020-11-23T18:39:32Z</time>
</trkpt>
<trkpt lat="45.884408" lon="11.021435">
<time>2020-11-23T18:39:33Z</time>
</trkpt>
<trkpt lat="45.884406" lon="11.021396">
<time>2020-11-23T18:39:34Z</time>
</trkpt>
<trkpt lat="45.884403" lon="11.021368">
<time>2020-11-23T18:39:35Z</time>
</trkpt>
<trkpt lat="45.884401" lon="11.021336">
<time>2020-11-23T18:39:36Z</time>
</trkpt>
<trkpt lat="45.8844" lon="11.021296">
<time>2020-11-23T18:39:37Z</time>
</trkpt>
<trkpt lat="45.8844" lon="11.02126">
<time>2020-11-23T18:39:38Z</time>
</trkpt>
<trkpt lat="45.884398" lon="11.02122">
<time>2020-11-23T18:39:39Z</time>
</trkpt>
<trkpt lat="45.884396" lon="11.02119">
<time>2020-11-23T18:39:40Z</time>
</trkpt>
<trkpt lat="45.884393" lon="11.021156">
<time>2020-11-23T18:39:41Z</time>
</trkpt>
<trkpt lat="45.884391" lon="11.021135">
<time>2020-11-23T18:39:42Z</time>
</trkpt>
<trkpt lat="45.88439" lon="11.021113">
<time>2020-11-23T18:39:43Z</time>
</trkpt>
<trkpt lat="45.884388" lon="11.021103">
<time>2020-11-23T18:39:44Z</time>
</trkpt>
<trkpt lat="45.884381" lon="11.021096">
<time>2020-11-23T18:39:45Z</time>
</trkpt>
<trkpt lat="45.884375" lon="11.021096">
<time>2020-11-23T18:39:46Z</time>
</trkpt>
<trkpt lat="45.884371" lon="11.021103">
<time>2020-11-23T18:39:47Z</time>
</trkpt>
<trkpt lat="45.884376" lon="11.021108">
<time>2020-11-23T18:39:48Z</time>
</trkpt>
<trkpt lat="45.884381" lon="11.02111">
<time>2020-11-23T18:39:49Z</time>
</trkpt>
<trkpt lat="45.884383" lon="11.021106">
<time>2020-11-23T18:39:50Z</time>
</trkpt>
<trkpt lat="45.884381" lon="11.021106">
<time>2020-11-23T18:39:51Z</time>
</trkpt>
<trkpt lat="45.884376" lon="11.021101">
<time>2020-11-23T18:39:52Z</time>
</trkpt>
<trkpt lat="45.884371" lon="11.021098">
<time>2020-11-23T18:39:53Z</time>
</trkpt>
<trkpt lat="45.884368" lon="11.021095">
<time>2020-11-23T18:39:54Z</time>
</trkpt>
<trkpt lat="45.884363" lon="11.021096">
<time>2020-11-23T18:39:55Z</time>
</trkpt>
<trkpt lat="45.884363" lon="11.021091">
<time>2020-11-23T18:39:56Z</time>
</trkpt>
<trkpt lat="45.884363" lon="11.021091">
<time>2020-11-23T18:39:57Z</time>
</trkpt>
<trkpt lat="45.884363" lon="11.021091">
<time>2020-11-23T18:39:58Z</time>
</trkpt>
<trkpt lat="45.884363" lon="11.021091">
<time>2020-11-23T18:39:59Z</time>
</trkpt>
<trkpt lat="45.884363" lon="11.021091">
<time>2020-11-23T18:40:00Z</time>
</trkpt>
<trkpt lat="45.884363" lon="11.021091">
<time>2020-11-23T18:40:01Z</time>
</trkpt>
<trkpt lat="45.884363" lon="11.021091">
<time>2020-11-23T18:40:02Z</time>
</trkpt>
<trkpt lat="45.884363" lon="11.021091">
<time>2020-11-23T18:40:03Z</time>
</trkpt>
<trkpt lat="45.884363" lon="11.021091">
<time>2020-11-23T18:40:04Z</time>
</trkpt>
<trkpt lat="45.884363" lon="11.021091">
<time>2020-11-23T18:40:05Z</time>
</trkpt>
<trkpt lat="45.884363" lon="11.021091">
<time>2020-11-23T18:40:06Z</time>
</trkpt>
<trkpt lat="45.884363" lon="11.021091">
<time>2020-11-23T18:40:07Z</time>
</trkpt>
<trkpt lat="45.884363" lon="11.021091">
<time>2020-11-23T18:40:08Z</time>
</trkpt>
<trkpt lat="45.884363" lon="11.021091">
<time>2020-11-23T18:40:09Z</time>
</trkpt>
<trkpt lat="45.884363" lon="11.021091">
<time>2020-11-23T18:40:10Z</time>
</trkpt>
<trkpt lat="45.884363" lon="11.021091">
<time>2020-11-23T18:40:11Z</time>
</trkpt>
<trkpt lat="45.884363" lon="11.021091">
<time>2020-11-23T18:40:12Z</time>
</trkpt>
<trkpt lat="45.884361" lon="11.02109">
<time>2020-11-23T18:40:13Z</time>
</trkpt>
<trkpt lat="45.884361" lon="11.021085">
<time>2020-11-23T18:40:14Z</time>
</trkpt>
<trkpt lat="45.884361" lon="11.021081">
<time>2020-11-23T18:40:15Z</time>
</trkpt>
<trkpt lat="45.88436" lon="11.021075">
<time>2020-11-23T18:40:16Z</time>
</trkpt>
<trkpt lat="45.88436" lon="11.021066">
<time>2020-11-23T18:40:17Z</time>
</trkpt>
<trkpt lat="45.88436" lon="11.021065">
<time>2020-11-23T18:40:18Z</time>
</trkpt>
<trkpt lat="45.88436" lon="11.021061">
<time>2020-11-23T18:40:19Z</time>
</trkpt>
<trkpt lat="45.88436" lon="11.021061">
<time>2020-11-23T18:40:20Z</time>
</trkpt>
<trkpt lat="45.88436" lon="11.021061">
<time>2020-11-23T18:40:21Z</time>
</trkpt>
<trkpt lat="45.88436" lon="11.021058">
<time>2020-11-23T18:40:22Z</time>
</trkpt>
<trkpt lat="45.88436" lon="11.021058">
<time>2020-11-23T18:40:23Z</time>
</trkpt>
<trkpt lat="45.88436" lon="11.021055">
<time>2020-11-23T18:40:24Z</time>
</trkpt>
<trkpt lat="45.88436" lon="11.021055">
<time>2020-11-23T18:40:25Z</time>
</trkpt>
<trkpt lat="45.88436" lon="11.021055">
<time>2020-11-23T18:40:26Z</time>
</trkpt>
<trkpt lat="45.88436" lon="11.021055">
<time>2020-11-23T18:40:27Z</time>
</trkpt>
<trkpt lat="45.88436" lon="11.021055">
<time>2020-11-23T18:40:28Z</time>
</trkpt>
<trkpt lat="45.88436" lon="11.021055">
<time>2020-11-23T18:40:29Z</time>
</trkpt>
<trkpt lat="45.88436" lon="11.021055">
<time>2020-11-23T18:40:30Z</time>
</trkpt>
<trkpt lat="45.88436" lon="11.021055">
<time>2020-11-23T18:40:31Z</time>
</trkpt>
<trkpt lat="45.88436" lon="11.021053">
<time>2020-11-23T18:40:32Z</time>
</trkpt>
<trkpt lat="45.88436" lon="11.021051">
<time>2020-11-23T18:40:33Z</time>
</trkpt>
<trkpt lat="45.88436" lon="11.021051">
<time>2020-11-23T18:40:34Z</time>
</trkpt>
<trkpt lat="45.884361" lon="11.021051">
<time>2020-11-23T18:40:35Z</time>
</trkpt>
<trkpt lat="45.884361" lon="11.021051">
<time>2020-11-23T18:40:36Z</time>
</trkpt>
<trkpt lat="45.884361" lon="11.021051">
<time>2020-11-23T18:40:37Z</time>
</trkpt>
<trkpt lat="45.884361" lon="11.021051">
<time>2020-11-23T18:40:38Z</time>
</trkpt>
<trkpt lat="45.884361" lon="11.021051">
<time>2020-11-23T18:40:39Z</time>
</trkpt>
<trkpt lat="45.884361" lon="11.02105">
<time>2020-11-23T18:40:40Z</time>
</trkpt>
<trkpt lat="45.884363" lon="11.021048">
<time>2020-11-23T18:40:41Z</time>
</trkpt>
<trkpt lat="45.884363" lon="11.021046">
<time>2020-11-23T18:40:42Z</time>
</trkpt>
<trkpt lat="45.884363" lon="11.021046">
<time>2020-11-23T18:40:43Z</time>
</trkpt>
<trkpt lat="45.884363" lon="11.021045">
<time>2020-11-23T18:40:44Z</time>
</trkpt>
<trkpt lat="45.884363" lon="11.021041">
<time>2020-11-23T18:40:45Z</time>
</trkpt>
<trkpt lat="45.884363" lon="11.02104">
<time>2020-11-23T18:40:46Z</time>
</trkpt>
<trkpt lat="45.884363" lon="11.021036">
<time>2020-11-23T18:40:47Z</time>
</trkpt>
<trkpt lat="45.884363" lon="11.021033">
<time>2020-11-23T18:40:48Z</time>
</trkpt>
<trkpt lat="45.884363" lon="11.021026">
<time>2020-11-23T18:40:49Z</time>
</trkpt>
<trkpt lat="45.884363" lon="11.021025">
<time>2020-11-23T18:40:50Z</time>
</trkpt>
<trkpt lat="45.884363" lon="11.021023">
<time>2020-11-23T18:40:51Z</time>
</trkpt>
<trkpt lat="45.884363" lon="11.021023">
<time>2020-11-23T18:40:52Z</time>
</trkpt>
<trkpt lat="45.884363" lon="11.021016">
<time>2020-11-23T18:40:53Z</time>
</trkpt>
<trkpt lat="45.884361" lon="11.021008">
<time>2020-11-23T18:40:54Z</time>
</trkpt>
<trkpt lat="45.884361" lon="11.020996">
<time>2020-11-23T18:40:55Z</time>
</trkpt>
<trkpt lat="45.884361" lon="11.020993">
<time>2020-11-23T18:40:56Z</time>
</trkpt>
<trkpt lat="45.884361" lon="11.020991">
<time>2020-11-23T18:40:57Z</time>
</trkpt>
<trkpt lat="45.884361" lon="11.020991">
<time>2020-11-23T18:40:58Z</time>
</trkpt>
<trkpt lat="45.884361" lon="11.020988">
<time>2020-11-23T18:40:59Z</time>
</trkpt>
<trkpt lat="45.884361" lon="11.020988">
<time>2020-11-23T18:41:00Z</time>
</trkpt>
<trkpt lat="45.884361" lon="11.020986">
<time>2020-11-23T18:41:01Z</time>
</trkpt>
<trkpt lat="45.884361" lon="11.020986">
<time>2020-11-23T18:41:02Z</time>
</trkpt>
<trkpt lat="45.884361" lon="11.020985">
<time>2020-11-23T18:41:03Z</time>
</trkpt>
<trkpt lat="45.884363" lon="11.020985">
<time>2020-11-23T18:41:04Z</time>
</trkpt>
<trkpt lat="45.884363" lon="11.020985">
<time>2020-11-23T18:41:05Z</time>
</trkpt>
<trkpt lat="45.884365" lon="11.020985">
<time>2020-11-23T18:41:06Z</time>
</trkpt>
<trkpt lat="45.884366" lon="11.020985">
<time>2020-11-23T18:41:07Z</time>
</trkpt>
<trkpt lat="45.884366" lon="11.020983">
<time>2020-11-23T18:41:08Z</time>
</trkpt>
<trkpt lat="45.884366" lon="11.020981">
<time>2020-11-23T18:41:09Z</time>
</trkpt>
<trkpt lat="45.884366" lon="11.020981">
<time>2020-11-23T18:41:10Z</time>
</trkpt>
<trkpt lat="45.884366" lon="11.020978">
<time>2020-11-23T18:41:11Z</time>
</trkpt>
<trkpt lat="45.884366" lon="11.020975">
<time>2020-11-23T18:41:12Z</time>
</trkpt>
<trkpt lat="45.884366" lon="11.020975">
<time>2020-11-23T18:41:13Z</time>
</trkpt>
<trkpt lat="45.884368" lon="11.020975">
<time>2020-11-23T18:41:14Z</time>
</trkpt>
<trkpt lat="45.884368" lon="11.020973">
<time>2020-11-23T18:41:15Z</time>
</trkpt>
<trkpt lat="45.88437" lon="11.020971">
<time>2020-11-23T18:41:16Z</time>
</trkpt>
<trkpt lat="45.884371" lon="11.020971">
<time>2020-11-23T18:41:17Z</time>
</trkpt>
<trkpt lat="45.884373" lon="11.02097">
<time>2020-11-23T18:41:18Z</time>
</trkpt>
<trkpt lat="45.884361" lon="11.02096">
<time>2020-11-23T18:41:19Z</time>
</trkpt>
<trkpt lat="45.884361" lon="11.02096">
<time>2020-11-23T18:41:20Z</time>
</trkpt>
<trkpt lat="45.884361" lon="11.02096">
<time>2020-11-23T18:41:21Z</time>
</trkpt>
<trkpt lat="45.88436" lon="11.02096">
<time>2020-11-23T18:41:22Z</time>
</trkpt>
<trkpt lat="45.88436" lon="11.02095">
<time>2020-11-23T18:41:23Z</time>
</trkpt>
<trkpt lat="45.884356" lon="11.020906">
<time>2020-11-23T18:41:24Z</time>
</trkpt>
<trkpt lat="45.884346" lon="11.020853">
<time>2020-11-23T18:41:25Z</time>
</trkpt>
<trkpt lat="45.884335" lon="11.020801">
<time>2020-11-23T18:41:26Z</time>
</trkpt>
<trkpt lat="45.884313" lon="11.020748">
<time>2020-11-23T18:41:27Z</time>
</trkpt>
<trkpt lat="45.88429" lon="11.020698">
<time>2020-11-23T18:41:28Z</time>
</trkpt>
<trkpt lat="45.884268" lon="11.02065">
<time>2020-11-23T18:41:29Z</time>
</trkpt>
<trkpt lat="45.884246" lon="11.020615">
<time>2020-11-23T18:41:30Z</time>
</trkpt>
<trkpt lat="45.884228" lon="11.020573">
<time>2020-11-23T18:41:31Z</time>
</trkpt>
<trkpt lat="45.88421" lon="11.020516">
<time>2020-11-23T18:41:32Z</time>
</trkpt>
<trkpt lat="45.884181" lon="11.020463">
<time>2020-11-23T18:41:33Z</time>
</trkpt>
<trkpt lat="45.88415" lon="11.020413">
<time>2020-11-23T18:41:34Z</time>
</trkpt>
<trkpt lat="45.88412" lon="11.020365">
<time>2020-11-23T18:41:35Z</time>
</trkpt>
<trkpt lat="45.884096" lon="11.020315">
<time>2020-11-23T18:41:36Z</time>
</trkpt>
<trkpt lat="45.884081" lon="11.020255">
<time>2020-11-23T18:41:37Z</time>
</trkpt>
<trkpt lat="45.884078" lon="11.020185">
<time>2020-11-23T18:41:38Z</time>
</trkpt>
<trkpt lat="45.884076" lon="11.020118">
<time>2020-11-23T18:41:39Z</time>
</trkpt>
<trkpt lat="45.884086" lon="11.020051">
<time>2020-11-23T18:41:40Z</time>
</trkpt>
<trkpt lat="45.884098" lon="11.019985">
<time>2020-11-23T18:41:41Z</time>
</trkpt>
<trkpt lat="45.88411" lon="11.019923">
<time>2020-11-23T18:41:42Z</time>
</trkpt>
<trkpt lat="45.884118" lon="11.019865">
<time>2020-11-23T18:41:43Z</time>
</trkpt>
<trkpt lat="45.884128" lon="11.019806">
<time>2020-11-23T18:41:44Z</time>
</trkpt>
<trkpt lat="45.88414" lon="11.019746">
<time>2020-11-23T18:41:45Z</time>
</trkpt>
<trkpt lat="45.884151" lon="11.019685">
<time>2020-11-23T18:41:46Z</time>
</trkpt>
<trkpt lat="45.884166" lon="11.01963">
<time>2020-11-23T18:41:47Z</time>
</trkpt>
<trkpt lat="45.884185" lon="11.019575">
<time>2020-11-23T18:41:48Z</time>
</trkpt>
<trkpt lat="45.884201" lon="11.019516">
<time>2020-11-23T18:41:49Z</time>
</trkpt>
<trkpt lat="45.884206" lon="11.01946">
<time>2020-11-23T18:41:50Z</time>
</trkpt>
<trkpt lat="45.884225" lon="11.019388">
<time>2020-11-23T18:41:51Z</time>
</trkpt>
<trkpt lat="45.884241" lon="11.019305">
<time>2020-11-23T18:41:52Z</time>
</trkpt>
<trkpt lat="45.884245" lon="11.019248">
<time>2020-11-23T18:41:53Z</time>
</trkpt>
<trkpt lat="45.884245" lon="11.0192">
<time>2020-11-23T18:41:54Z</time>
</trkpt>
<trkpt lat="45.884231" lon="11.019126">
<time>2020-11-23T18:41:55Z</time>
</trkpt>
<trkpt lat="45.884218" lon="11.019065">
<time>2020-11-23T18:41:56Z</time>
</trkpt>
<trkpt lat="45.884215" lon="11.019">
<time>2020-11-23T18:41:57Z</time>
</trkpt>
<trkpt lat="45.884213" lon="11.018935">
<time>2020-11-23T18:41:58Z</time>
</trkpt>
<trkpt lat="45.884205" lon="11.018871">
<time>2020-11-23T18:41:59Z</time>
</trkpt>
<trkpt lat="45.884201" lon="11.01881">
<time>2020-11-23T18:42:00Z</time>
</trkpt>
<trkpt lat="45.884216" lon="11.018758">
<time>2020-11-23T18:42:01Z</time>
</trkpt>
<trkpt lat="45.884238" lon="11.01871">
<time>2020-11-23T18:42:02Z</time>
</trkpt>
<trkpt lat="45.884255" lon="11.018646">
<time>2020-11-23T18:42:03Z</time>
</trkpt>
<trkpt lat="45.884273" lon="11.018588">
<time>2020-11-23T18:42:04Z</time>
</trkpt>
<trkpt lat="45.884283" lon="11.018546">
<time>2020-11-23T18:42:05Z</time>
</trkpt>
<trkpt lat="45.884306" lon="11.018496">
<time>2020-11-23T18:42:06Z</time>
</trkpt>
<trkpt lat="45.884346" lon="11.018435">
<time>2020-11-23T18:42:07Z</time>
</trkpt>
<trkpt lat="45.884385" lon="11.0184">
<time>2020-11-23T18:42:08Z</time>
</trkpt>
<trkpt lat="45.884421" lon="11.01836">
<time>2020-11-23T18:42:09Z</time>
</trkpt>
<trkpt lat="45.88445" lon="11.018326">
<time>2020-11-23T18:42:10Z</time>
</trkpt>
<trkpt lat="45.884478" lon="11.018301">
<time>2020-11-23T18:42:11Z</time>
</trkpt>
<trkpt lat="45.884516" lon="11.01827">
<time>2020-11-23T18:42:12Z</time>
</trkpt>
<trkpt lat="45.884553" lon="11.018246">
<time>2020-11-23T18:42:13Z</time>
</trkpt>
<trkpt lat="45.884598" lon="11.018231">
<time>2020-11-23T18:42:14Z</time>
</trkpt>
<trkpt lat="45.884628" lon="11.018218">
<time>2020-11-23T18:42:15Z</time>
</trkpt>
<trkpt lat="45.88467" lon="11.018205">
<time>2020-11-23T18:42:16Z</time>
</trkpt>
<trkpt lat="45.884696" lon="11.018196">
<time>2020-11-23T18:42:17Z</time>
</trkpt>
<trkpt lat="45.884725" lon="11.018196">
<time>2020-11-23T18:42:18Z</time>
</trkpt>
<trkpt lat="45.88475" lon="11.018191">
<time>2020-11-23T18:42:19Z</time>
</trkpt>
<trkpt lat="45.884785" lon="11.01816">
<time>2020-11-23T18:42:20Z</time>
</trkpt>
<trkpt lat="45.884823" lon="11.018128">
<time>2020-11-23T18:42:21Z</time>
</trkpt>
<trkpt lat="45.884856" lon="11.01809">
<time>2020-11-23T18:42:22Z</time>
</trkpt>
<trkpt lat="45.884878" lon="11.018055">
<time>2020-11-23T18:42:23Z</time>
</trkpt>
<trkpt lat="45.884896" lon="11.018043">
<time>2020-11-23T18:42:24Z</time>
</trkpt>
<trkpt lat="45.884905" lon="11.018033">
<time>2020-11-23T18:42:25Z</time>
</trkpt>
<trkpt lat="45.884906" lon="11.017981">
<time>2020-11-23T18:42:27Z</time>
</trkpt>
<trkpt lat="45.88491" lon="11.017955">
<time>2020-11-23T18:42:28Z</time>
</trkpt>
<trkpt lat="45.884918" lon="11.017933">
<time>2020-11-23T18:42:29Z</time>
</trkpt>
<trkpt lat="45.884931" lon="11.017916">
<time>2020-11-23T18:42:30Z</time>
</trkpt>
<trkpt lat="45.884938" lon="11.017911">
<time>2020-11-23T18:42:31Z</time>
</trkpt>
<trkpt lat="45.884948" lon="11.017918">
<time>2020-11-23T18:42:32Z</time>
</trkpt>
<trkpt lat="45.884966" lon="11.017926">
<time>2020-11-23T18:42:33Z</time>
</trkpt>
<trkpt lat="45.885008" lon="11.017926">
<time>2020-11-23T18:42:34Z</time>
</trkpt>
<trkpt lat="45.88504" lon="11.017928">
<time>2020-11-23T18:42:35Z</time>
</trkpt>
<trkpt lat="45.885063" lon="11.017926">
<time>2020-11-23T18:42:36Z</time>
</trkpt>
<trkpt lat="45.885075" lon="11.01793">
<time>2020-11-23T18:42:37Z</time>
</trkpt>
<trkpt lat="45.885071" lon="11.017941">
<time>2020-11-23T18:42:38Z</time>
</trkpt>
<trkpt lat="45.88506" lon="11.01795">
<time>2020-11-23T18:42:39Z</time>
</trkpt>
<trkpt lat="45.88504" lon="11.017958">
<time>2020-11-23T18:42:40Z</time>
</trkpt>
<trkpt lat="45.885025" lon="11.017941">
<time>2020-11-23T18:42:41Z</time>
</trkpt>
<trkpt lat="45.885015" lon="11.017908">
<time>2020-11-23T18:42:42Z</time>
</trkpt>
<trkpt lat="45.885015" lon="11.017868">
<time>2020-11-23T18:42:43Z</time>
</trkpt>
<trkpt lat="45.885031" lon="11.017828">
<time>2020-11-23T18:42:44Z</time>
</trkpt>
<trkpt lat="45.885051" lon="11.01779">
<time>2020-11-23T18:42:45Z</time>
</trkpt>
<trkpt lat="45.885075" lon="11.017753">
<time>2020-11-23T18:42:46Z</time>
</trkpt>
<trkpt lat="45.885103" lon="11.017725">
<time>2020-11-23T18:42:47Z</time>
</trkpt>
<trkpt lat="45.885133" lon="11.017705">
<time>2020-11-23T18:42:48Z</time>
</trkpt>
<trkpt lat="45.885158" lon="11.017685">
<time>2020-11-23T18:42:49Z</time>
</trkpt>
<trkpt lat="45.88519" lon="11.01767">
<time>2020-11-23T18:42:50Z</time>
</trkpt>
<trkpt lat="45.885225" lon="11.017656">
<time>2020-11-23T18:42:51Z</time>
</trkpt>
<trkpt lat="45.885263" lon="11.017643">
<time>2020-11-23T18:42:52Z</time>
</trkpt>
<trkpt lat="45.885305" lon="11.017633">
<time>2020-11-23T18:42:53Z</time>
</trkpt>
<trkpt lat="45.885346" lon="11.017631">
<time>2020-11-23T18:42:54Z</time>
</trkpt>
<trkpt lat="45.885388" lon="11.017633">
<time>2020-11-23T18:42:55Z</time>
</trkpt>
<trkpt lat="45.885425" lon="11.017633">
<time>2020-11-23T18:42:56Z</time>
</trkpt>
<trkpt lat="45.885456" lon="11.017638">
<time>2020-11-23T18:42:57Z</time>
</trkpt>
<trkpt lat="45.885506" lon="11.017628">
<time>2020-11-23T18:42:58Z</time>
</trkpt>
<trkpt lat="45.88555" lon="11.01762">
<time>2020-11-23T18:42:59Z</time>
</trkpt>
<trkpt lat="45.885591" lon="11.017618">
<time>2020-11-23T18:43:00Z</time>
</trkpt>
<trkpt lat="45.885625" lon="11.017616">
<time>2020-11-23T18:43:01Z</time>
</trkpt>
<trkpt lat="45.885651" lon="11.017616">
<time>2020-11-23T18:43:02Z</time>
</trkpt>
<trkpt lat="45.885683" lon="11.017616">
<time>2020-11-23T18:43:03Z</time>
</trkpt>
<trkpt lat="45.885706" lon="11.017625">
<time>2020-11-23T18:43:04Z</time>
</trkpt>
<trkpt lat="45.885726" lon="11.017645">
<time>2020-11-23T18:43:05Z</time>
</trkpt>
<trkpt lat="45.885743" lon="11.017665">
<time>2020-11-23T18:43:06Z</time>
</trkpt>
<trkpt lat="45.88575" lon="11.017698">
<time>2020-11-23T18:43:07Z</time>
</trkpt>
<trkpt lat="45.88576" lon="11.017748">
<time>2020-11-23T18:43:08Z</time>
</trkpt>
<trkpt lat="45.885765" lon="11.017793">
<time>2020-11-23T18:43:09Z</time>
</trkpt>
<trkpt lat="45.885771" lon="11.017846">
<time>2020-11-23T18:43:10Z</time>
</trkpt>
<trkpt lat="45.885785" lon="11.017901">
<time>2020-11-23T18:43:11Z</time>
</trkpt>
<trkpt lat="45.885798" lon="11.017958">
<time>2020-11-23T18:43:12Z</time>
</trkpt>
<trkpt lat="45.885806" lon="11.018013">
<time>2020-11-23T18:43:13Z</time>
</trkpt>
<trkpt lat="45.885815" lon="11.018061">
<time>2020-11-23T18:43:14Z</time>
</trkpt>
<trkpt lat="45.885815" lon="11.018061">
<time>2020-11-23T18:43:15Z</time>
</trkpt>
<trkpt lat="45.88583" lon="11.018166">
<time>2020-11-23T18:43:16Z</time>
</trkpt>
<trkpt lat="45.885841" lon="11.018198">
<time>2020-11-23T18:43:17Z</time>
</trkpt>
<trkpt lat="45.885861" lon="11.018235">
<time>2020-11-23T18:43:18Z</time>
</trkpt>
<trkpt lat="45.88589" lon="11.018268">
<time>2020-11-23T18:43:19Z</time>
</trkpt>
<trkpt lat="45.885926" lon="11.01829">
<time>2020-11-23T18:43:20Z</time>
</trkpt>
<trkpt lat="45.885963" lon="11.018313">
<time>2020-11-23T18:43:21Z</time>
</trkpt>
<trkpt lat="45.885993" lon="11.018346">
<time>2020-11-23T18:43:22Z</time>
</trkpt>
<trkpt lat="45.886016" lon="11.018378">
<time>2020-11-23T18:43:23Z</time>
</trkpt>
<trkpt lat="45.88603" lon="11.018411">
<time>2020-11-23T18:43:24Z</time>
</trkpt>
<trkpt lat="45.886035" lon="11.018436">
<time>2020-11-23T18:43:25Z</time>
</trkpt>
<trkpt lat="45.886035" lon="11.018455">
<time>2020-11-23T18:43:26Z</time>
</trkpt>
<trkpt lat="45.886038" lon="11.018468">
<time>2020-11-23T18:43:27Z</time>
</trkpt>
<trkpt lat="45.886045" lon="11.018466">
<time>2020-11-23T18:43:28Z</time>
</trkpt>
<trkpt lat="45.886046" lon="11.018475">
<time>2020-11-23T18:43:29Z</time>
</trkpt>
<trkpt lat="45.886051" lon="11.018481">
<time>2020-11-23T18:43:30Z</time>
</trkpt>
<trkpt lat="45.88606" lon="11.018481">
<time>2020-11-23T18:43:31Z</time>
</trkpt>
<trkpt lat="45.886065" lon="11.018466">
<time>2020-11-23T18:43:32Z</time>
</trkpt>
<trkpt lat="45.886071" lon="11.018445">
<time>2020-11-23T18:43:33Z</time>
</trkpt>
<trkpt lat="45.886086" lon="11.018425">
<time>2020-11-23T18:43:34Z</time>
</trkpt>
<trkpt lat="45.886106" lon="11.018386">
<time>2020-11-23T18:43:35Z</time>
</trkpt>
<trkpt lat="45.886131" lon="11.018343">
<time>2020-11-23T18:43:36Z</time>
</trkpt>
<trkpt lat="45.886163" lon="11.018296">
<time>2020-11-23T18:43:37Z</time>
</trkpt>
<trkpt lat="45.886201" lon="11.018256">
<time>2020-11-23T18:43:38Z</time>
</trkpt>
<trkpt lat="45.886235" lon="11.018223">
<time>2020-11-23T18:43:39Z</time>
</trkpt>
<trkpt lat="45.886278" lon="11.01819">
<time>2020-11-23T18:43:40Z</time>
</trkpt>
<trkpt lat="45.886303" lon="11.018156">
<time>2020-11-23T18:43:41Z</time>
</trkpt>
<trkpt lat="45.886328" lon="11.01813">
<time>2020-11-23T18:43:42Z</time>
</trkpt>
<trkpt lat="45.886355" lon="11.018101">
<time>2020-11-23T18:43:43Z</time>
</trkpt>
<trkpt lat="45.886371" lon="11.018085">
<time>2020-11-23T18:43:44Z</time>
</trkpt>
<trkpt lat="45.886386" lon="11.018075">
<time>2020-11-23T18:43:45Z</time>
</trkpt>
<trkpt lat="45.886388" lon="11.018071">
<time>2020-11-23T18:43:46Z</time>
</trkpt>
<trkpt lat="45.886386" lon="11.018068">
<time>2020-11-23T18:43:47Z</time>
</trkpt>
<trkpt lat="45.886376" lon="11.01807">
<time>2020-11-23T18:43:48Z</time>
</trkpt>
<trkpt lat="45.886368" lon="11.018066">
<time>2020-11-23T18:43:49Z</time>
</trkpt>
<trkpt lat="45.886348" lon="11.018086">
<time>2020-11-23T18:43:50Z</time>
</trkpt>
<trkpt lat="45.886328" lon="11.018106">
<time>2020-11-23T18:43:51Z</time>
</trkpt>
<trkpt lat="45.886303" lon="11.018136">
<time>2020-11-23T18:43:52Z</time>
</trkpt>
<trkpt lat="45.886253" lon="11.018131">
<time>2020-11-23T18:43:53Z</time>
</trkpt>
<trkpt lat="45.886201" lon="11.018145">
<time>2020-11-23T18:43:54Z</time>
</trkpt>
<trkpt lat="45.886165" lon="11.018158">
<time>2020-11-23T18:43:55Z</time>
</trkpt>
<trkpt lat="45.886138" lon="11.018171">
<time>2020-11-23T18:43:56Z</time>
</trkpt>
<trkpt lat="45.886145" lon="11.018181">
<time>2020-11-23T18:43:57Z</time>
</trkpt>
<trkpt lat="45.886155" lon="11.018205">
<time>2020-11-23T18:43:58Z</time>
</trkpt>
<trkpt lat="45.886151" lon="11.01824">
<time>2020-11-23T18:43:59Z</time>
</trkpt>
<trkpt lat="45.886148" lon="11.018275">
<time>2020-11-23T18:44:00Z</time>
</trkpt>
<trkpt lat="45.88615" lon="11.018311">
<time>2020-11-23T18:44:01Z</time>
</trkpt>
<trkpt lat="45.886158" lon="11.01836">
<time>2020-11-23T18:44:02Z</time>
</trkpt>
<trkpt lat="45.886163" lon="11.018401">
<time>2020-11-23T18:44:03Z</time>
</trkpt>
<trkpt lat="45.886166" lon="11.018446">
<time>2020-11-23T18:44:04Z</time>
</trkpt>
<trkpt lat="45.886168" lon="11.018493">
<time>2020-11-23T18:44:05Z</time>
</trkpt>
<trkpt lat="45.886173" lon="11.018548">
<time>2020-11-23T18:44:06Z</time>
</trkpt>
<trkpt lat="45.886178" lon="11.018603">
<time>2020-11-23T18:44:07Z</time>
</trkpt>
<trkpt lat="45.886178" lon="11.018668">
<time>2020-11-23T18:44:08Z</time>
</trkpt>
<trkpt lat="45.886178" lon="11.018718">
<time>2020-11-23T18:44:09Z</time>
</trkpt>
<trkpt lat="45.886175" lon="11.018776">
<time>2020-11-23T18:44:10Z</time>
</trkpt>
<trkpt lat="45.886168" lon="11.018843">
<time>2020-11-23T18:44:11Z</time>
</trkpt>
<trkpt lat="45.886161" lon="11.018911">
<time>2020-11-23T18:44:12Z</time>
</trkpt>
<trkpt lat="45.886158" lon="11.018978">
<time>2020-11-23T18:44:13Z</time>
</trkpt>
<trkpt lat="45.886165" lon="11.019045">
<time>2020-11-23T18:44:14Z</time>
</trkpt>
<trkpt lat="45.886146" lon="11.019126">
<time>2020-11-23T18:44:15Z</time>
</trkpt>
<trkpt lat="45.886146" lon="11.019126">
<time>2020-11-23T18:44:16Z</time>
</trkpt>
<trkpt lat="45.88613" lon="11.019316">
<time>2020-11-23T18:44:17Z</time>
</trkpt>
<trkpt lat="45.886128" lon="11.01939">
<time>2020-11-23T18:44:18Z</time>
</trkpt>
<trkpt lat="45.886125" lon="11.019466">
<time>2020-11-23T18:44:19Z</time>
</trkpt>
<trkpt lat="45.886118" lon="11.01954">
<time>2020-11-23T18:44:20Z</time>
</trkpt>
<trkpt lat="45.886103" lon="11.019628">
<time>2020-11-23T18:44:21Z</time>
</trkpt>
<trkpt lat="45.886106" lon="11.019715">
<time>2020-11-23T18:44:22Z</time>
</trkpt>
<trkpt lat="45.886115" lon="11.01979">
<time>2020-11-23T18:44:23Z</time>
</trkpt>
<trkpt lat="45.88613" lon="11.019841">
<time>2020-11-23T18:44:24Z</time>
</trkpt>
<trkpt lat="45.88614" lon="11.019891">
<time>2020-11-23T18:44:25Z</time>
</trkpt>
<trkpt lat="45.886158" lon="11.019926">
<time>2020-11-23T18:44:26Z</time>
</trkpt>
<trkpt lat="45.88618" lon="11.019943">
<time>2020-11-23T18:44:27Z</time>
</trkpt>
<trkpt lat="45.886195" lon="11.019975">
<time>2020-11-23T18:44:28Z</time>
</trkpt>
<trkpt lat="45.886218" lon="11.020006">
<time>2020-11-23T18:44:29Z</time>
</trkpt>
<trkpt lat="45.886245" lon="11.020031">
<time>2020-11-23T18:44:30Z</time>
</trkpt>
<trkpt lat="45.886268" lon="11.020065">
<time>2020-11-23T18:44:31Z</time>
</trkpt>
<trkpt lat="45.886298" lon="11.020098">
<time>2020-11-23T18:44:32Z</time>
</trkpt>
<trkpt lat="45.886321" lon="11.020138">
<time>2020-11-23T18:44:33Z</time>
</trkpt>
<trkpt lat="45.886343" lon="11.020176">
<time>2020-11-23T18:44:34Z</time>
</trkpt>
<trkpt lat="45.886353" lon="11.020233">
<time>2020-11-23T18:44:35Z</time>
</trkpt>
<trkpt lat="45.886356" lon="11.020288">
<time>2020-11-23T18:44:36Z</time>
</trkpt>
<trkpt lat="45.886355" lon="11.02034">
<time>2020-11-23T18:44:37Z</time>
</trkpt>
<trkpt lat="45.886336" lon="11.020406">
<time>2020-11-23T18:44:38Z</time>
</trkpt>
<trkpt lat="45.88633" lon="11.020465">
<time>2020-11-23T18:44:39Z</time>
</trkpt>
<trkpt lat="45.886326" lon="11.020511">
<time>2020-11-23T18:44:40Z</time>
</trkpt>
<trkpt lat="45.886318" lon="11.020561">
<time>2020-11-23T18:44:41Z</time>
</trkpt>
<trkpt lat="45.88631" lon="11.020611">
<time>2020-11-23T18:44:42Z</time>
</trkpt>
<trkpt lat="45.886303" lon="11.020673">
<time>2020-11-23T18:44:43Z</time>
</trkpt>
<trkpt lat="45.886298" lon="11.02073">
<time>2020-11-23T18:44:44Z</time>
</trkpt>
<trkpt lat="45.88628" lon="11.020786">
<time>2020-11-23T18:44:45Z</time>
</trkpt>
<trkpt lat="45.886266" lon="11.02084">
<time>2020-11-23T18:44:46Z</time>
</trkpt>
<trkpt lat="45.886253" lon="11.020898">
<time>2020-11-23T18:44:47Z</time>
</trkpt>
<trkpt lat="45.886245" lon="11.020966">
<time>2020-11-23T18:44:48Z</time>
</trkpt>
<trkpt lat="45.886235" lon="11.021048">
<time>2020-11-23T18:44:49Z</time>
</trkpt>
<trkpt lat="45.886231" lon="11.021123">
<time>2020-11-23T18:44:50Z</time>
</trkpt>
<trkpt lat="45.886225" lon="11.021183">
<time>2020-11-23T18:44:51Z</time>
</trkpt>
<trkpt lat="45.886216" lon="11.02124">
<time>2020-11-23T18:44:52Z</time>
</trkpt>
<trkpt lat="45.886208" lon="11.021288">
<time>2020-11-23T18:44:53Z</time>
</trkpt>
<trkpt lat="45.8862" lon="11.021341">
<time>2020-11-23T18:44:54Z</time>
</trkpt>
<trkpt lat="45.886191" lon="11.021396">
<time>2020-11-23T18:44:55Z</time>
</trkpt>
<trkpt lat="45.886183" lon="11.021456">
<time>2020-11-23T18:44:56Z</time>
</trkpt>
<trkpt lat="45.886171" lon="11.021521">
<time>2020-11-23T18:44:57Z</time>
</trkpt>
<trkpt lat="45.886156" lon="11.021581">
<time>2020-11-23T18:44:58Z</time>
</trkpt>
<trkpt lat="45.886145" lon="11.021638">
<time>2020-11-23T18:44:59Z</time>
</trkpt>
<trkpt lat="45.886133" lon="11.021691">
<time>2020-11-23T18:45:00Z</time>
</trkpt>
<trkpt lat="45.886121" lon="11.021746">
<time>2020-11-23T18:45:01Z</time>
</trkpt>
<trkpt lat="45.886111" lon="11.021803">
<time>2020-11-23T18:45:02Z</time>
</trkpt>
<trkpt lat="45.886101" lon="11.021863">
<time>2020-11-23T18:45:03Z</time>
</trkpt>
<trkpt lat="45.88609" lon="11.021931">
<time>2020-11-23T18:45:04Z</time>
</trkpt>
<trkpt lat="45.886085" lon="11.021991">
<time>2020-11-23T18:45:05Z</time>
</trkpt>
<trkpt lat="45.88608" lon="11.022051">
<time>2020-11-23T18:45:06Z</time>
</trkpt>
<trkpt lat="45.886073" lon="11.022113">
<time>2020-11-23T18:45:07Z</time>
</trkpt>
<trkpt lat="45.886065" lon="11.02217">
<time>2020-11-23T18:45:08Z</time>
</trkpt>
<trkpt lat="45.886051" lon="11.022236">
<time>2020-11-23T18:45:09Z</time>
</trkpt>
<trkpt lat="45.886046" lon="11.022296">
<time>2020-11-23T18:45:10Z</time>
</trkpt>
<trkpt lat="45.88604" lon="11.022355">
<time>2020-11-23T18:45:11Z</time>
</trkpt>
<trkpt lat="45.886035" lon="11.022411">
<time>2020-11-23T18:45:12Z</time>
</trkpt>
<trkpt lat="45.88603" lon="11.022468">
<time>2020-11-23T18:45:13Z</time>
</trkpt>
<trkpt lat="45.886025" lon="11.022521">
<time>2020-11-23T18:45:14Z</time>
</trkpt>
<trkpt lat="45.886025" lon="11.022566">
<time>2020-11-23T18:45:15Z</time>
</trkpt>
<trkpt lat="45.886026" lon="11.022613">
<time>2020-11-23T18:45:16Z</time>
</trkpt>
<trkpt lat="45.886026" lon="11.022665">
<time>2020-11-23T18:45:17Z</time>
</trkpt>
<trkpt lat="45.886028" lon="11.022716">
<time>2020-11-23T18:45:18Z</time>
</trkpt>
<trkpt lat="45.88603" lon="11.022766">
<time>2020-11-23T18:45:19Z</time>
</trkpt>
<trkpt lat="45.886033" lon="11.022813">
<time>2020-11-23T18:45:20Z</time>
</trkpt>
<trkpt lat="45.88603" lon="11.022861">
<time>2020-11-23T18:45:21Z</time>
</trkpt>
<trkpt lat="45.886028" lon="11.02291">
<time>2020-11-23T18:45:22Z</time>
</trkpt>
<trkpt lat="45.886028" lon="11.022955">
<time>2020-11-23T18:45:23Z</time>
</trkpt>
<trkpt lat="45.886026" lon="11.023005">
<time>2020-11-23T18:45:24Z</time>
</trkpt>
<trkpt lat="45.88603" lon="11.023055">
<time>2020-11-23T18:45:25Z</time>
</trkpt>
<trkpt lat="45.886038" lon="11.023108">
<time>2020-11-23T18:45:26Z</time>
</trkpt>
<trkpt lat="45.88606" lon="11.023148">
<time>2020-11-23T18:45:27Z</time>
</trkpt>
<trkpt lat="45.886091" lon="11.023178">
<time>2020-11-23T18:45:28Z</time>
</trkpt>
<trkpt lat="45.886133" lon="11.023203">
<time>2020-11-23T18:45:29Z</time>
</trkpt>
<trkpt lat="45.886165" lon="11.023231">
<time>2020-11-23T18:45:30Z</time>
</trkpt>
<trkpt lat="45.8862" lon="11.023251">
<time>2020-11-23T18:45:31Z</time>
</trkpt>
<trkpt lat="45.886241" lon="11.023265">
<time>2020-11-23T18:45:32Z</time>
</trkpt>
<trkpt lat="45.886285" lon="11.02327">
<time>2020-11-23T18:45:33Z</time>
</trkpt>
<trkpt lat="45.886326" lon="11.023271">
<time>2020-11-23T18:45:34Z</time>
</trkpt>
<trkpt lat="45.886361" lon="11.023281">
<time>2020-11-23T18:45:35Z</time>
</trkpt>
<trkpt lat="45.886396" lon="11.02329">
<time>2020-11-23T18:45:36Z</time>
</trkpt>
<trkpt lat="45.88644" lon="11.023293">
<time>2020-11-23T18:45:37Z</time>
</trkpt>
<trkpt lat="45.886475" lon="11.0233">
<time>2020-11-23T18:45:38Z</time>
</trkpt>
<trkpt lat="45.886506" lon="11.02331">
<time>2020-11-23T18:45:39Z</time>
</trkpt>
<trkpt lat="45.886538" lon="11.023328">
<time>2020-11-23T18:45:40Z</time>
</trkpt>
<trkpt lat="45.886566" lon="11.02335">
<time>2020-11-23T18:45:41Z</time>
</trkpt>
<trkpt lat="45.886593" lon="11.023376">
<time>2020-11-23T18:45:42Z</time>
</trkpt>
<trkpt lat="45.886611" lon="11.023403">
<time>2020-11-23T18:45:43Z</time>
</trkpt>
<trkpt lat="45.886625" lon="11.02343">
<time>2020-11-23T18:45:44Z</time>
</trkpt>
<trkpt lat="45.886631" lon="11.02345">
<time>2020-11-23T18:45:45Z</time>
</trkpt>
<trkpt lat="45.88663" lon="11.023465">
<time>2020-11-23T18:45:46Z</time>
</trkpt>
<trkpt lat="45.886625" lon="11.023475">
<time>2020-11-23T18:45:47Z</time>
</trkpt>
<trkpt lat="45.88662" lon="11.023486">
<time>2020-11-23T18:45:48Z</time>
</trkpt>
<trkpt lat="45.886615" lon="11.023511">
<time>2020-11-23T18:45:49Z</time>
</trkpt>
<trkpt lat="45.886605" lon="11.023531">
<time>2020-11-23T18:45:50Z</time>
</trkpt>
<trkpt lat="45.886595" lon="11.02354">
<time>2020-11-23T18:45:51Z</time>
</trkpt>
<trkpt lat="45.886603" lon="11.023546">
<time>2020-11-23T18:45:52Z</time>
</trkpt>
<trkpt lat="45.886598" lon="11.023565">
<time>2020-11-23T18:45:53Z</time>
</trkpt>
<trkpt lat="45.88659" lon="11.023595">
<time>2020-11-23T18:45:54Z</time>
</trkpt>
<trkpt lat="45.88658" lon="11.023635">
<time>2020-11-23T18:45:55Z</time>
</trkpt>
<trkpt lat="45.886575" lon="11.023685">
<time>2020-11-23T18:45:56Z</time>
</trkpt>
<trkpt lat="45.886566" lon="11.023745">
<time>2020-11-23T18:45:57Z</time>
</trkpt>
<trkpt lat="45.88657" lon="11.023806">
<time>2020-11-23T18:45:58Z</time>
</trkpt>
<trkpt lat="45.886586" lon="11.023871">
<time>2020-11-23T18:45:59Z</time>
</trkpt>
<trkpt lat="45.886606" lon="11.023925">
<time>2020-11-23T18:46:00Z</time>
</trkpt>
<trkpt lat="45.88663" lon="11.023975">
<time>2020-11-23T18:46:01Z</time>
</trkpt>
<trkpt lat="45.886655" lon="11.024018">
<time>2020-11-23T18:46:02Z</time>
</trkpt>
<trkpt lat="45.886678" lon="11.024061">
<time>2020-11-23T18:46:03Z</time>
</trkpt>
<trkpt lat="45.886698" lon="11.024105">
<time>2020-11-23T18:46:04Z</time>
</trkpt>
<trkpt lat="45.88672" lon="11.024141">
<time>2020-11-23T18:46:05Z</time>
</trkpt>
<trkpt lat="45.88673" lon="11.024178">
<time>2020-11-23T18:46:06Z</time>
</trkpt>
<trkpt lat="45.88674" lon="11.024216">
<time>2020-11-23T18:46:07Z</time>
</trkpt>
<trkpt lat="45.886743" lon="11.02426">
<time>2020-11-23T18:46:08Z</time>
</trkpt>
<trkpt lat="45.886741" lon="11.024318">
<time>2020-11-23T18:46:09Z</time>
</trkpt>
<trkpt lat="45.886731" lon="11.024376">
<time>2020-11-23T18:46:10Z</time>
</trkpt>
<trkpt lat="45.886723" lon="11.024433">
<time>2020-11-23T18:46:11Z</time>
</trkpt>
<trkpt lat="45.886713" lon="11.024486">
<time>2020-11-23T18:46:12Z</time>
</trkpt>
<trkpt lat="45.886711" lon="11.024538">
<time>2020-11-23T18:46:13Z</time>
</trkpt>
<trkpt lat="45.886705" lon="11.02459">
<time>2020-11-23T18:46:14Z</time>
</trkpt>
<trkpt lat="45.886695" lon="11.024641">
<time>2020-11-23T18:46:15Z</time>
</trkpt>
<trkpt lat="45.88667" lon="11.024728">
<time>2020-11-23T18:46:16Z</time>
</trkpt>
<trkpt lat="45.88667" lon="11.024728">
<time>2020-11-23T18:46:17Z</time>
</trkpt>
<trkpt lat="45.886625" lon="11.02486">
<time>2020-11-23T18:46:18Z</time>
</trkpt>
<trkpt lat="45.886615" lon="11.02491">
<time>2020-11-23T18:46:19Z</time>
</trkpt>
<trkpt lat="45.886583" lon="11.024931">
<time>2020-11-23T18:46:20Z</time>
</trkpt>
<trkpt lat="45.886621" lon="11.024938">
<time>2020-11-23T18:46:25Z</time>
</trkpt>
<trkpt lat="45.88664" lon="11.024966">
<time>2020-11-23T18:46:26Z</time>
</trkpt>
<trkpt lat="45.88666" lon="11.025008">
<time>2020-11-23T18:46:27Z</time>
</trkpt>
<trkpt lat="45.886668" lon="11.025065">
<time>2020-11-23T18:46:28Z</time>
</trkpt>
<trkpt lat="45.886671" lon="11.025138">
<time>2020-11-23T18:46:29Z</time>
</trkpt>
<trkpt lat="45.886678" lon="11.025211">
<time>2020-11-23T18:46:30Z</time>
</trkpt>
<trkpt lat="45.886685" lon="11.025285">
<time>2020-11-23T18:46:31Z</time>
</trkpt>
<trkpt lat="45.886685" lon="11.025358">
<time>2020-11-23T18:46:32Z</time>
</trkpt>
<trkpt lat="45.886685" lon="11.02543">
<time>2020-11-23T18:46:33Z</time>
</trkpt>
<trkpt lat="45.886693" lon="11.025503">
<time>2020-11-23T18:46:34Z</time>
</trkpt>
<trkpt lat="45.886691" lon="11.025575">
<time>2020-11-23T18:46:35Z</time>
</trkpt>
<trkpt lat="45.886691" lon="11.025638">
<time>2020-11-23T18:46:36Z</time>
</trkpt>
<trkpt lat="45.886708" lon="11.025686">
<time>2020-11-23T18:46:37Z</time>
</trkpt>
<trkpt lat="45.886713" lon="11.025731">
<time>2020-11-23T18:46:38Z</time>
</trkpt>
<trkpt lat="45.886701" lon="11.025778">
<time>2020-11-23T18:46:39Z</time>
</trkpt>
<trkpt lat="45.886701" lon="11.025828">
<time>2020-11-23T18:46:40Z</time>
</trkpt>
<trkpt lat="45.886701" lon="11.025878">
<time>2020-11-23T18:46:41Z</time>
</trkpt>
<trkpt lat="45.886708" lon="11.025921">
<time>2020-11-23T18:46:42Z</time>
</trkpt>
<trkpt lat="45.886723" lon="11.025961">
<time>2020-11-23T18:46:43Z</time>
</trkpt>
<trkpt lat="45.886738" lon="11.025998">
<time>2020-11-23T18:46:44Z</time>
</trkpt>
<trkpt lat="45.886758" lon="11.026025">
<time>2020-11-23T18:46:45Z</time>
</trkpt>
<trkpt lat="45.886771" lon="11.026058">
<time>2020-11-23T18:46:46Z</time>
</trkpt>
<trkpt lat="45.886783" lon="11.026088">
<time>2020-11-23T18:46:47Z</time>
</trkpt>
<trkpt lat="45.88679" lon="11.02611">
<time>2020-11-23T18:46:48Z</time>
</trkpt>
<trkpt lat="45.886805" lon="11.026131">
<time>2020-11-23T18:46:49Z</time>
</trkpt>
<trkpt lat="45.886796" lon="11.026155">
<time>2020-11-23T18:46:50Z</time>
</trkpt>
<trkpt lat="45.886808" lon="11.026165">
<time>2020-11-23T18:46:51Z</time>
</trkpt>
<trkpt lat="45.886803" lon="11.026163">
<time>2020-11-23T18:46:52Z</time>
</trkpt>
<trkpt lat="45.886791" lon="11.026155">
<time>2020-11-23T18:46:53Z</time>
</trkpt>
<trkpt lat="45.886803" lon="11.026141">
<time>2020-11-23T18:46:54Z</time>
</trkpt>
<trkpt lat="45.886801" lon="11.026148">
<time>2020-11-23T18:46:55Z</time>
</trkpt>
<trkpt lat="45.8868" lon="11.026151">
<time>2020-11-23T18:46:56Z</time>
</trkpt>
<trkpt lat="45.886801" lon="11.026155">
<time>2020-11-23T18:46:57Z</time>
</trkpt>
<trkpt lat="45.886806" lon="11.026155">
<time>2020-11-23T18:46:58Z</time>
</trkpt>
<trkpt lat="45.886813" lon="11.026155">
<time>2020-11-23T18:46:59Z</time>
</trkpt>
<trkpt lat="45.88682" lon="11.026138">
<time>2020-11-23T18:47:00Z</time>
</trkpt>
<trkpt lat="45.886816" lon="11.026123">
<time>2020-11-23T18:47:01Z</time>
</trkpt>
<trkpt lat="45.886813" lon="11.026125">
<time>2020-11-23T18:47:02Z</time>
</trkpt>
<trkpt lat="45.88681" lon="11.026136">
<time>2020-11-23T18:47:03Z</time>
</trkpt>
<trkpt lat="45.886808" lon="11.02615">
<time>2020-11-23T18:47:04Z</time>
</trkpt>
<trkpt lat="45.886808" lon="11.026158">
<time>2020-11-23T18:47:05Z</time>
</trkpt>
<trkpt lat="45.886813" lon="11.026158">
<time>2020-11-23T18:47:06Z</time>
</trkpt>
<trkpt lat="45.88681" lon="11.026151">
<time>2020-11-23T18:47:07Z</time>
</trkpt>
<trkpt lat="45.886805" lon="11.026148">
<time>2020-11-23T18:47:08Z</time>
</trkpt>
<trkpt lat="45.886798" lon="11.026151">
<time>2020-11-23T18:47:09Z</time>
</trkpt>
<trkpt lat="45.88679" lon="11.026161">
<time>2020-11-23T18:47:10Z</time>
</trkpt>
<trkpt lat="45.886778" lon="11.026181">
<time>2020-11-23T18:47:11Z</time>
</trkpt>
<trkpt lat="45.886778" lon="11.026181">
<time>2020-11-23T18:47:12Z</time>
</trkpt>
<trkpt lat="45.886778" lon="11.026181">
<time>2020-11-23T18:47:13Z</time>
</trkpt>
<trkpt lat="45.886778" lon="11.026181">
<time>2020-11-23T18:47:14Z</time>
</trkpt>
<trkpt lat="45.886778" lon="11.026181">
<time>2020-11-23T18:47:15Z</time>
</trkpt>
<trkpt lat="45.886778" lon="11.026181">
<time>2020-11-23T18:47:16Z</time>
</trkpt>
<trkpt lat="45.886778" lon="11.026181">
<time>2020-11-23T18:47:17Z</time>
</trkpt>
<trkpt lat="45.886778" lon="11.026181">
<time>2020-11-23T18:47:18Z</time>
</trkpt>
<trkpt lat="45.886778" lon="11.026181">
<time>2020-11-23T18:47:19Z</time>
</trkpt>
<trkpt lat="45.886778" lon="11.026181">
<time>2020-11-23T18:47:20Z</time>
</trkpt>
<trkpt lat="45.886778" lon="11.026181">
<time>2020-11-23T18:47:21Z</time>
</trkpt>
<trkpt lat="45.886778" lon="11.026181">
<time>2020-11-23T18:47:22Z</time>
</trkpt>
<trkpt lat="45.886778" lon="11.026181">
<time>2020-11-23T18:47:23Z</time>
</trkpt>
<trkpt lat="45.886775" lon="11.026178">
<time>2020-11-23T18:47:24Z</time>
</trkpt>
<trkpt lat="45.88676" lon="11.02617">
<time>2020-11-23T18:47:25Z</time>
</trkpt>
<trkpt lat="45.886745" lon="11.026158">
<time>2020-11-23T18:47:26Z</time>
</trkpt>
<trkpt lat="45.886721" lon="11.026146">
<time>2020-11-23T18:47:27Z</time>
</trkpt>
<trkpt lat="45.886685" lon="11.026135">
<time>2020-11-23T18:47:28Z</time>
</trkpt>
<trkpt lat="45.886643" lon="11.026128">
<time>2020-11-23T18:47:29Z</time>
</trkpt>
<trkpt lat="45.886605" lon="11.026118">
<time>2020-11-23T18:47:30Z</time>
</trkpt>
<trkpt lat="45.886568" lon="11.02611">
<time>2020-11-23T18:47:31Z</time>
</trkpt>
<trkpt lat="45.886528" lon="11.026095">
<time>2020-11-23T18:47:32Z</time>
</trkpt>
<trkpt lat="45.886485" lon="11.026076">
<time>2020-11-23T18:47:33Z</time>
</trkpt>
<trkpt lat="45.88644" lon="11.026068">
<time>2020-11-23T18:47:34Z</time>
</trkpt>
<trkpt lat="45.886395" lon="11.026061">
<time>2020-11-23T18:47:35Z</time>
</trkpt>
<trkpt lat="45.88634" lon="11.026058">
<time>2020-11-23T18:47:36Z</time>
</trkpt>
<trkpt lat="45.886291" lon="11.026053">
<time>2020-11-23T18:47:37Z</time>
</trkpt>
<trkpt lat="45.886246" lon="11.026051">
<time>2020-11-23T18:47:38Z</time>
</trkpt>
<trkpt lat="45.886203" lon="11.026051">
<time>2020-11-23T18:47:39Z</time>
</trkpt>
<trkpt lat="45.886158" lon="11.026055">
<time>2020-11-23T18:47:40Z</time>
</trkpt>
<trkpt lat="45.886113" lon="11.026055">
<time>2020-11-23T18:47:41Z</time>
</trkpt>
<trkpt lat="45.88607" lon="11.026053">
<time>2020-11-23T18:47:42Z</time>
</trkpt>
<trkpt lat="45.88603" lon="11.026053">
<time>2020-11-23T18:47:43Z</time>
</trkpt>
<trkpt lat="45.88599" lon="11.026053">
<time>2020-11-23T18:47:44Z</time>
</trkpt>
<trkpt lat="45.885955" lon="11.026055">
<time>2020-11-23T18:47:45Z</time>
</trkpt>
<trkpt lat="45.885925" lon="11.026051">
<time>2020-11-23T18:47:46Z</time>
</trkpt>
<trkpt lat="45.885896" lon="11.026051">
<time>2020-11-23T18:47:47Z</time>
</trkpt>
<trkpt lat="45.885871" lon="11.02606">
<time>2020-11-23T18:47:48Z</time>
</trkpt>
<trkpt lat="45.88585" lon="11.026075">
<time>2020-11-23T18:47:49Z</time>
</trkpt>
<trkpt lat="45.885828" lon="11.026096">
<time>2020-11-23T18:47:50Z</time>
</trkpt>
<trkpt lat="45.885791" lon="11.026111">
<time>2020-11-23T18:47:51Z</time>
</trkpt>
<trkpt lat="45.885755" lon="11.026115">
<time>2020-11-23T18:47:52Z</time>
</trkpt>
<trkpt lat="45.885716" lon="11.026123">
<time>2020-11-23T18:47:53Z</time>
</trkpt>
<trkpt lat="45.88568" lon="11.026118">
<time>2020-11-23T18:47:54Z</time>
</trkpt>
<trkpt lat="45.885641" lon="11.026131">
<time>2020-11-23T18:47:55Z</time>
</trkpt>
<trkpt lat="45.8856" lon="11.026155">
<time>2020-11-23T18:47:56Z</time>
</trkpt>
<trkpt lat="45.885565" lon="11.026173">
<time>2020-11-23T18:47:57Z</time>
</trkpt>
<trkpt lat="45.885528" lon="11.026195">
<time>2020-11-23T18:47:58Z</time>
</trkpt>
<trkpt lat="45.885493" lon="11.026215">
<time>2020-11-23T18:47:59Z</time>
</trkpt>
<trkpt lat="45.885458" lon="11.02623">
<time>2020-11-23T18:48:00Z</time>
</trkpt>
<trkpt lat="45.88542" lon="11.026253">
<time>2020-11-23T18:48:01Z</time>
</trkpt>
<trkpt lat="45.885385" lon="11.026275">
<time>2020-11-23T18:48:02Z</time>
</trkpt>
<trkpt lat="45.885345" lon="11.026301">
<time>2020-11-23T18:48:03Z</time>
</trkpt>
<trkpt lat="45.885306" lon="11.026333">
<time>2020-11-23T18:48:04Z</time>
</trkpt>
<trkpt lat="45.885268" lon="11.02637">
<time>2020-11-23T18:48:05Z</time>
</trkpt>
<trkpt lat="45.885223" lon="11.026406">
<time>2020-11-23T18:48:06Z</time>
</trkpt>
<trkpt lat="45.885176" lon="11.026446">
<time>2020-11-23T18:48:07Z</time>
</trkpt>
<trkpt lat="45.885128" lon="11.026486">
<time>2020-11-23T18:48:08Z</time>
</trkpt>
<trkpt lat="45.885081" lon="11.026533">
<time>2020-11-23T18:48:09Z</time>
</trkpt>
<trkpt lat="45.885035" lon="11.026575">
<time>2020-11-23T18:48:10Z</time>
</trkpt>
<trkpt lat="45.884986" lon="11.02661">
<time>2020-11-23T18:48:11Z</time>
</trkpt>
<trkpt lat="45.884938" lon="11.026638">
<time>2020-11-23T18:48:12Z</time>
</trkpt>
<trkpt lat="45.884886" lon="11.026655">
<time>2020-11-23T18:48:13Z</time>
</trkpt>
<trkpt lat="45.884836" lon="11.026666">
<time>2020-11-23T18:48:14Z</time>
</trkpt>
<trkpt lat="45.884788" lon="11.026673">
<time>2020-11-23T18:48:15Z</time>
</trkpt>
<trkpt lat="45.884741" lon="11.026681">
<time>2020-11-23T18:48:16Z</time>
</trkpt>
<trkpt lat="45.884696" lon="11.026695">
<time>2020-11-23T18:48:17Z</time>
</trkpt>
<trkpt lat="45.884696" lon="11.026695">
<time>2020-11-23T18:48:18Z</time>
</trkpt>
<trkpt lat="45.884621" lon="11.026741">
<time>2020-11-23T18:48:19Z</time>
</trkpt>
<trkpt lat="45.884588" lon="11.026781">
<time>2020-11-23T18:48:20Z</time>
</trkpt>
<trkpt lat="45.884555" lon="11.026826">
<time>2020-11-23T18:48:21Z</time>
</trkpt>
<trkpt lat="45.884521" lon="11.02687">
<time>2020-11-23T18:48:22Z</time>
</trkpt>
<trkpt lat="45.884495" lon="11.026918">
<time>2020-11-23T18:48:23Z</time>
</trkpt>
<trkpt lat="45.884471" lon="11.026963">
<time>2020-11-23T18:48:24Z</time>
</trkpt>
<trkpt lat="45.884458" lon="11.027008">
<time>2020-11-23T18:48:25Z</time>
</trkpt>
<trkpt lat="45.884451" lon="11.027045">
<time>2020-11-23T18:48:26Z</time>
</trkpt>
<trkpt lat="45.884453" lon="11.027063">
<time>2020-11-23T18:48:27Z</time>
</trkpt>
<trkpt lat="45.884461" lon="11.027055">
<time>2020-11-23T18:48:28Z</time>
</trkpt>
<trkpt lat="45.884468" lon="11.027045">
<time>2020-11-23T18:48:29Z</time>
</trkpt>
<trkpt lat="45.884475" lon="11.027018">
<time>2020-11-23T18:48:30Z</time>
</trkpt>
<trkpt lat="45.884485" lon="11.026995">
<time>2020-11-23T18:48:31Z</time>
</trkpt>
<trkpt lat="45.884498" lon="11.02698">
<time>2020-11-23T18:48:32Z</time>
</trkpt>
<trkpt lat="45.884511" lon="11.026966">
<time>2020-11-23T18:48:33Z</time>
</trkpt>
<trkpt lat="45.88452" lon="11.026965">
<time>2020-11-23T18:48:34Z</time>
</trkpt>
<trkpt lat="45.884528" lon="11.026973">
<time>2020-11-23T18:48:35Z</time>
</trkpt>
<trkpt lat="45.88454" lon="11.026985">
<time>2020-11-23T18:48:36Z</time>
</trkpt>
<trkpt lat="45.884551" lon="11.026998">
<time>2020-11-23T18:48:37Z</time>
</trkpt>
<trkpt lat="45.884561" lon="11.027016">
<time>2020-11-23T18:48:38Z</time>
</trkpt>
<trkpt lat="45.884566" lon="11.027043">
<time>2020-11-23T18:48:39Z</time>
</trkpt>
<trkpt lat="45.884565" lon="11.027076">
<time>2020-11-23T18:48:40Z</time>
</trkpt>
<trkpt lat="45.884565" lon="11.027115">
<time>2020-11-23T18:48:41Z</time>
</trkpt>
<trkpt lat="45.88457" lon="11.027145">
<time>2020-11-23T18:48:42Z</time>
</trkpt>
<trkpt lat="45.884578" lon="11.027168">
<time>2020-11-23T18:48:43Z</time>
</trkpt>
<trkpt lat="45.884588" lon="11.027185">
<time>2020-11-23T18:48:44Z</time>
</trkpt>
<trkpt lat="45.884601" lon="11.027195">
<time>2020-11-23T18:48:45Z</time>
</trkpt>
<trkpt lat="45.884615" lon="11.02721">
<time>2020-11-23T18:48:46Z</time>
</trkpt>
<trkpt lat="45.884638" lon="11.027213">
<time>2020-11-23T18:48:47Z</time>
</trkpt>
<trkpt lat="45.884653" lon="11.02722">
<time>2020-11-23T18:48:48Z</time>
</trkpt>
<trkpt lat="45.884658" lon="11.027236">
<time>2020-11-23T18:48:49Z</time>
</trkpt>
<trkpt lat="45.884661" lon="11.027256">
<time>2020-11-23T18:48:50Z</time>
</trkpt>
<trkpt lat="45.884668" lon="11.027291">
<time>2020-11-23T18:48:51Z</time>
</trkpt>
<trkpt lat="45.884671" lon="11.027335">
<time>2020-11-23T18:48:52Z</time>
</trkpt>
<trkpt lat="45.884675" lon="11.027396">
<time>2020-11-23T18:48:53Z</time>
</trkpt>
<trkpt lat="45.884673" lon="11.027453">
<time>2020-11-23T18:48:54Z</time>
</trkpt>
<trkpt lat="45.884658" lon="11.027531">
<time>2020-11-23T18:48:55Z</time>
</trkpt>
<trkpt lat="45.884653" lon="11.027595">
<time>2020-11-23T18:48:56Z</time>
</trkpt>
<trkpt lat="45.884643" lon="11.02766">
<time>2020-11-23T18:48:57Z</time>
</trkpt>
<trkpt lat="45.884628" lon="11.027728">
<time>2020-11-23T18:48:58Z</time>
</trkpt>
<trkpt lat="45.88462" lon="11.0278">
<time>2020-11-23T18:48:59Z</time>
</trkpt>
<trkpt lat="45.884611" lon="11.027858">
<time>2020-11-23T18:49:00Z</time>
</trkpt>
<trkpt lat="45.884598" lon="11.02791">
<time>2020-11-23T18:49:01Z</time>
</trkpt>
<trkpt lat="45.884578" lon="11.027953">
<time>2020-11-23T18:49:02Z</time>
</trkpt>
<trkpt lat="45.884561" lon="11.027985">
<time>2020-11-23T18:49:03Z</time>
</trkpt>
<trkpt lat="45.884548" lon="11.028006">
<time>2020-11-23T18:49:04Z</time>
</trkpt>
<trkpt lat="45.884528" lon="11.028006">
<time>2020-11-23T18:49:05Z</time>
</trkpt>
<trkpt lat="45.88451" lon="11.02801">
<time>2020-11-23T18:49:06Z</time>
</trkpt>
<trkpt lat="45.884493" lon="11.028013">
<time>2020-11-23T18:49:07Z</time>
</trkpt>
<trkpt lat="45.884485" lon="11.028013">
<time>2020-11-23T18:49:08Z</time>
</trkpt>
<trkpt lat="45.884481" lon="11.02802">
<time>2020-11-23T18:49:09Z</time>
</trkpt>
<trkpt lat="45.884485" lon="11.028038">
<time>2020-11-23T18:49:10Z</time>
</trkpt>
<trkpt lat="45.884478" lon="11.02806">
<time>2020-11-23T18:49:11Z</time>
</trkpt>
<trkpt lat="45.884476" lon="11.028068">
<time>2020-11-23T18:49:12Z</time>
</trkpt>
<trkpt lat="45.884473" lon="11.028081">
<time>2020-11-23T18:49:13Z</time>
</trkpt>
<trkpt lat="45.88447" lon="11.028093">
<time>2020-11-23T18:49:14Z</time>
</trkpt>
<trkpt lat="45.884468" lon="11.028108">
<time>2020-11-23T18:49:15Z</time>
</trkpt>
<trkpt lat="45.884466" lon="11.028123">
<time>2020-11-23T18:49:16Z</time>
</trkpt>
<trkpt lat="45.884465" lon="11.028141">
<time>2020-11-23T18:49:17Z</time>
</trkpt>
<trkpt lat="45.884473" lon="11.02815">
<time>2020-11-23T18:49:18Z</time>
</trkpt>
<trkpt lat="45.884485" lon="11.028163">
<time>2020-11-23T18:49:19Z</time>
</trkpt>
<trkpt lat="45.884496" lon="11.028176">
<time>2020-11-23T18:49:20Z</time>
</trkpt>
<trkpt lat="45.884511" lon="11.02819">
<time>2020-11-23T18:49:21Z</time>
</trkpt>
<trkpt lat="45.884531" lon="11.028205">
<time>2020-11-23T18:49:22Z</time>
</trkpt>
<trkpt lat="45.88456" lon="11.028221">
<time>2020-11-23T18:49:23Z</time>
</trkpt>
<trkpt lat="45.884595" lon="11.02824">
<time>2020-11-23T18:49:24Z</time>
</trkpt>
<trkpt lat="45.88464" lon="11.028253">
<time>2020-11-23T18:49:25Z</time>
</trkpt>
<trkpt lat="45.884685" lon="11.028275">
<time>2020-11-23T18:49:26Z</time>
</trkpt>
<trkpt lat="45.88472" lon="11.028305">
<time>2020-11-23T18:49:27Z</time>
</trkpt>
<trkpt lat="45.88476" lon="11.028335">
<time>2020-11-23T18:49:28Z</time>
</trkpt>
<trkpt lat="45.884801" lon="11.028353">
<time>2020-11-23T18:49:29Z</time>
</trkpt>
<trkpt lat="45.884845" lon="11.028366">
<time>2020-11-23T18:49:30Z</time>
</trkpt>
<trkpt lat="45.88489" lon="11.028366">
<time>2020-11-23T18:49:31Z</time>
</trkpt>
<trkpt lat="45.884931" lon="11.028361">
<time>2020-11-23T18:49:32Z</time>
</trkpt>
<trkpt lat="45.884968" lon="11.02836">
<time>2020-11-23T18:49:33Z</time>
</trkpt>
<trkpt lat="45.885003" lon="11.028353">
<time>2020-11-23T18:49:34Z</time>
</trkpt>
<trkpt lat="45.885033" lon="11.028353">
<time>2020-11-23T18:49:35Z</time>
</trkpt>
<trkpt lat="45.88506" lon="11.028351">
<time>2020-11-23T18:49:36Z</time>
</trkpt>
<trkpt lat="45.885091" lon="11.02835">
<time>2020-11-23T18:49:37Z</time>
</trkpt>
<trkpt lat="45.885123" lon="11.02835">
<time>2020-11-23T18:49:38Z</time>
</trkpt>
<trkpt lat="45.885153" lon="11.028338">
<time>2020-11-23T18:49:39Z</time>
</trkpt>
<trkpt lat="45.885173" lon="11.028328">
<time>2020-11-23T18:49:40Z</time>
</trkpt>
<trkpt lat="45.88519" lon="11.028321">
<time>2020-11-23T18:49:41Z</time>
</trkpt>
<trkpt lat="45.8852" lon="11.02833">
<time>2020-11-23T18:49:42Z</time>
</trkpt>
<trkpt lat="45.885208" lon="11.02833">
<time>2020-11-23T18:49:43Z</time>
</trkpt>
<trkpt lat="45.885228" lon="11.028323">
<time>2020-11-23T18:49:44Z</time>
</trkpt>
<trkpt lat="45.885243" lon="11.028303">
<time>2020-11-23T18:49:45Z</time>
</trkpt>
<trkpt lat="45.885263" lon="11.028273">
<time>2020-11-23T18:49:46Z</time>
</trkpt>
<trkpt lat="45.88528" lon="11.028231">
<time>2020-11-23T18:49:47Z</time>
</trkpt>
<trkpt lat="45.885296" lon="11.02818">
<time>2020-11-23T18:49:48Z</time>
</trkpt>
<trkpt lat="45.8853" lon="11.028128">
<time>2020-11-23T18:49:49Z</time>
</trkpt>
<trkpt lat="45.885286" lon="11.028085">
<time>2020-11-23T18:49:50Z</time>
</trkpt>
<trkpt lat="45.885275" lon="11.028041">
<time>2020-11-23T18:49:51Z</time>
</trkpt>
<trkpt lat="45.885251" lon="11.027995">
<time>2020-11-23T18:49:52Z</time>
</trkpt>
<trkpt lat="45.885235" lon="11.027941">
<time>2020-11-23T18:49:53Z</time>
</trkpt>
<trkpt lat="45.885221" lon="11.027895">
<time>2020-11-23T18:49:54Z</time>
</trkpt>
<trkpt lat="45.88522" lon="11.027848">
<time>2020-11-23T18:49:55Z</time>
</trkpt>
<trkpt lat="45.885213" lon="11.027805">
<time>2020-11-23T18:49:56Z</time>
</trkpt>
<trkpt lat="45.885206" lon="11.027753">
<time>2020-11-23T18:49:57Z</time>
</trkpt>
<trkpt lat="45.885196" lon="11.027696">
<time>2020-11-23T18:49:58Z</time>
</trkpt>
<trkpt lat="45.885185" lon="11.027643">
<time>2020-11-23T18:49:59Z</time>
</trkpt>
<trkpt lat="45.885173" lon="11.027598">
<time>2020-11-23T18:50:00Z</time>
</trkpt>
<trkpt lat="45.885156" lon="11.027571">
<time>2020-11-23T18:50:01Z</time>
</trkpt>
<trkpt lat="45.885135" lon="11.027566">
<time>2020-11-23T18:50:02Z</time>
</trkpt>
<trkpt lat="45.885111" lon="11.027568">
<time>2020-11-23T18:50:03Z</time>
</trkpt>
<trkpt lat="45.885098" lon="11.027566">
<time>2020-11-23T18:50:04Z</time>
</trkpt>
<trkpt lat="45.885081" lon="11.027581">
<time>2020-11-23T18:50:05Z</time>
</trkpt>
<trkpt lat="45.885058" lon="11.027615">
<time>2020-11-23T18:50:06Z</time>
</trkpt>
<trkpt lat="45.88504" lon="11.027648">
<time>2020-11-23T18:50:07Z</time>
</trkpt>
<trkpt lat="45.88503" lon="11.027668">
<time>2020-11-23T18:50:08Z</time>
</trkpt>
<trkpt lat="45.885023" lon="11.027681">
<time>2020-11-23T18:50:09Z</time>
</trkpt>
<trkpt lat="45.885028" lon="11.027681">
<time>2020-11-23T18:50:10Z</time>
</trkpt>
<trkpt lat="45.885038" lon="11.027671">
<time>2020-11-23T18:50:11Z</time>
</trkpt>
<trkpt lat="45.885048" lon="11.027666">
<time>2020-11-23T18:50:12Z</time>
</trkpt>
<trkpt lat="45.885065" lon="11.027655">
<time>2020-11-23T18:50:13Z</time>
</trkpt>
<trkpt lat="45.885088" lon="11.027635">
<time>2020-11-23T18:50:14Z</time>
</trkpt>
<trkpt lat="45.8851" lon="11.027611">
<time>2020-11-23T18:50:15Z</time>
</trkpt>
<trkpt lat="45.885116" lon="11.027595">
<time>2020-11-23T18:50:16Z</time>
</trkpt>
<trkpt lat="45.885136" lon="11.027593">
<time>2020-11-23T18:50:17Z</time>
</trkpt>
<trkpt lat="45.88516" lon="11.02761">
<time>2020-11-23T18:50:18Z</time>
</trkpt>
<trkpt lat="45.885181" lon="11.027636">
<time>2020-11-23T18:50:19Z</time>
</trkpt>
<trkpt lat="45.885201" lon="11.027673">
<time>2020-11-23T18:50:20Z</time>
</trkpt>
<trkpt lat="45.885216" lon="11.027725">
<time>2020-11-23T18:50:21Z</time>
</trkpt>
<trkpt lat="45.885228" lon="11.02778">
<time>2020-11-23T18:50:22Z</time>
</trkpt>
<trkpt lat="45.88524" lon="11.027826">
<time>2020-11-23T18:50:23Z</time>
</trkpt>
<trkpt lat="45.88525" lon="11.027868">
<time>2020-11-23T18:50:24Z</time>
</trkpt>
<trkpt lat="45.885261" lon="11.027915">
<time>2020-11-23T18:50:25Z</time>
</trkpt>
<trkpt lat="45.885275" lon="11.027958">
<time>2020-11-23T18:50:26Z</time>
</trkpt>
<trkpt lat="45.885286" lon="11.028005">
<time>2020-11-23T18:50:27Z</time>
</trkpt>
<trkpt lat="45.8853" lon="11.028053">
<time>2020-11-23T18:50:28Z</time>
</trkpt>
<trkpt lat="45.885315" lon="11.028115">
<time>2020-11-23T18:50:29Z</time>
</trkpt>
<trkpt lat="45.885325" lon="11.028178">
<time>2020-11-23T18:50:30Z</time>
</trkpt>
<trkpt lat="45.885333" lon="11.028246">
<time>2020-11-23T18:50:31Z</time>
</trkpt>
<trkpt lat="45.88535" lon="11.028298">
<time>2020-11-23T18:50:32Z</time>
</trkpt>
<trkpt lat="45.885366" lon="11.02835">
<time>2020-11-23T18:50:33Z</time>
</trkpt>
<trkpt lat="45.885385" lon="11.028395">
<time>2020-11-23T18:50:34Z</time>
</trkpt>
<trkpt lat="45.885401" lon="11.028443">
<time>2020-11-23T18:50:35Z</time>
</trkpt>
<trkpt lat="45.885423" lon="11.028486">
<time>2020-11-23T18:50:36Z</time>
</trkpt>
<trkpt lat="45.88544" lon="11.028535">
<time>2020-11-23T18:50:37Z</time>
</trkpt>
<trkpt lat="45.885458" lon="11.028591">
<time>2020-11-23T18:50:38Z</time>
</trkpt>
<trkpt lat="45.885473" lon="11.028648">
<time>2020-11-23T18:50:39Z</time>
</trkpt>
<trkpt lat="45.885483" lon="11.028708">
<time>2020-11-23T18:50:40Z</time>
</trkpt>
<trkpt lat="45.885488" lon="11.028766">
<time>2020-11-23T18:50:41Z</time>
</trkpt>
<trkpt lat="45.885493" lon="11.028828">
<time>2020-11-23T18:50:42Z</time>
</trkpt>
<trkpt lat="45.8855" lon="11.028883">
<time>2020-11-23T18:50:43Z</time>
</trkpt>
<trkpt lat="45.88551" lon="11.028945">
<time>2020-11-23T18:50:44Z</time>
</trkpt>
<trkpt lat="45.885521" lon="11.028995">
<time>2020-11-23T18:50:45Z</time>
</trkpt>
<trkpt lat="45.88553" lon="11.029045">
<time>2020-11-23T18:50:46Z</time>
</trkpt>
<trkpt lat="45.88553" lon="11.029091">
<time>2020-11-23T18:50:47Z</time>
</trkpt>
<trkpt lat="45.885523" lon="11.029135">
<time>2020-11-23T18:50:48Z</time>
</trkpt>
<trkpt lat="45.88551" lon="11.029171">
<time>2020-11-23T18:50:49Z</time>
</trkpt>
<trkpt lat="45.885493" lon="11.029193">
<time>2020-11-23T18:50:50Z</time>
</trkpt>
<trkpt lat="45.885473" lon="11.0292">
<time>2020-11-23T18:50:51Z</time>
</trkpt>
<trkpt lat="45.88545" lon="11.029196">
<time>2020-11-23T18:50:52Z</time>
</trkpt>
<trkpt lat="45.885408" lon="11.029183">
<time>2020-11-23T18:50:53Z</time>
</trkpt>
<trkpt lat="45.885368" lon="11.029165">
<time>2020-11-23T18:50:54Z</time>
</trkpt>
<trkpt lat="45.885326" lon="11.029141">
<time>2020-11-23T18:50:55Z</time>
</trkpt>
<trkpt lat="45.885288" lon="11.029126">
<time>2020-11-23T18:50:56Z</time>
</trkpt>
<trkpt lat="45.885265" lon="11.029113">
<time>2020-11-23T18:50:57Z</time>
</trkpt>
<trkpt lat="45.885256" lon="11.029105">
<time>2020-11-23T18:50:58Z</time>
</trkpt>
<trkpt lat="45.88526" lon="11.029103">
<time>2020-11-23T18:50:59Z</time>
</trkpt>
<trkpt lat="45.885265" lon="11.02911">
<time>2020-11-23T18:51:00Z</time>
</trkpt>
<trkpt lat="45.885261" lon="11.029121">
<time>2020-11-23T18:51:01Z</time>
</trkpt>
<trkpt lat="45.885256" lon="11.029131">
<time>2020-11-23T18:51:02Z</time>
</trkpt>
<trkpt lat="45.88525" lon="11.029135">
<time>2020-11-23T18:51:03Z</time>
</trkpt>
<trkpt lat="45.885235" lon="11.029138">
<time>2020-11-23T18:51:04Z</time>
</trkpt>
<trkpt lat="45.885213" lon="11.029155">
<time>2020-11-23T18:51:05Z</time>
</trkpt>
<trkpt lat="45.885195" lon="11.029181">
<time>2020-11-23T18:51:06Z</time>
</trkpt>
<trkpt lat="45.885181" lon="11.029218">
<time>2020-11-23T18:51:07Z</time>
</trkpt>
<trkpt lat="45.885171" lon="11.029261">
<time>2020-11-23T18:51:08Z</time>
</trkpt>
<trkpt lat="45.885161" lon="11.02931">
<time>2020-11-23T18:51:09Z</time>
</trkpt>
<trkpt lat="45.885155" lon="11.029365">
<time>2020-11-23T18:51:10Z</time>
</trkpt>
<trkpt lat="45.885146" lon="11.029425">
<time>2020-11-23T18:51:11Z</time>
</trkpt>
<trkpt lat="45.885145" lon="11.029488">
<time>2020-11-23T18:51:12Z</time>
</trkpt>
<trkpt lat="45.885143" lon="11.029551">
<time>2020-11-23T18:51:13Z</time>
</trkpt>
<trkpt lat="45.885143" lon="11.029613">
<time>2020-11-23T18:51:14Z</time>
</trkpt>
<trkpt lat="45.885143" lon="11.029676">
<time>2020-11-23T18:51:15Z</time>
</trkpt>
<trkpt lat="45.885131" lon="11.02974">
<time>2020-11-23T18:51:16Z</time>
</trkpt>
<trkpt lat="45.885116" lon="11.029808">
<time>2020-11-23T18:51:17Z</time>
</trkpt>
<trkpt lat="45.885113" lon="11.029873">
<time>2020-11-23T18:51:18Z</time>
</trkpt>
<trkpt lat="45.885108" lon="11.029921">
<time>2020-11-23T18:51:19Z</time>
</trkpt>
<trkpt lat="45.885105" lon="11.029968">
<time>2020-11-23T18:51:20Z</time>
</trkpt>
<trkpt lat="45.885098" lon="11.030033">
<time>2020-11-23T18:51:21Z</time>
</trkpt>
<trkpt lat="45.885088" lon="11.030068">
<time>2020-11-23T18:51:22Z</time>
</trkpt>
<trkpt lat="45.885078" lon="11.0301">
<time>2020-11-23T18:51:23Z</time>
</trkpt>
<trkpt lat="45.885066" lon="11.030128">
<time>2020-11-23T18:51:24Z</time>
</trkpt>
<trkpt lat="45.885056" lon="11.030138">
<time>2020-11-23T18:51:25Z</time>
</trkpt>
<trkpt lat="45.885046" lon="11.030153">
<time>2020-11-23T18:51:26Z</time>
</trkpt>
<trkpt lat="45.885011" lon="11.03016">
<time>2020-11-23T18:51:27Z</time>
</trkpt>
<trkpt lat="45.884968" lon="11.030173">
<time>2020-11-23T18:51:28Z</time>
</trkpt>
<trkpt lat="45.884935" lon="11.030191">
<time>2020-11-23T18:51:29Z</time>
</trkpt>
<trkpt lat="45.884891" lon="11.030201">
<time>2020-11-23T18:51:30Z</time>
</trkpt>
<trkpt lat="45.88486" lon="11.030216">
<time>2020-11-23T18:51:31Z</time>
</trkpt>
<trkpt lat="45.884848" lon="11.030236">
<time>2020-11-23T18:51:32Z</time>
</trkpt>
<trkpt lat="45.88484" lon="11.030278">
<time>2020-11-23T18:51:33Z</time>
</trkpt>
<trkpt lat="45.884836" lon="11.030325">
<time>2020-11-23T18:51:34Z</time>
</trkpt>
<trkpt lat="45.884826" lon="11.030368">
<time>2020-11-23T18:51:35Z</time>
</trkpt>
<trkpt lat="45.884843" lon="11.030426">
<time>2020-11-23T18:51:36Z</time>
</trkpt>
<trkpt lat="45.884846" lon="11.03047">
<time>2020-11-23T18:51:37Z</time>
</trkpt>
<trkpt lat="45.884853" lon="11.030506">
<time>2020-11-23T18:51:38Z</time>
</trkpt>
<trkpt lat="45.884873" lon="11.030535">
<time>2020-11-23T18:51:39Z</time>
</trkpt>
<trkpt lat="45.884893" lon="11.03057">
<time>2020-11-23T18:51:40Z</time>
</trkpt>
<trkpt lat="45.884906" lon="11.030613">
<time>2020-11-23T18:51:41Z</time>
</trkpt>
<trkpt lat="45.884926" lon="11.03065">
<time>2020-11-23T18:51:42Z</time>
</trkpt>
<trkpt lat="45.884955" lon="11.030675">
<time>2020-11-23T18:51:43Z</time>
</trkpt>
<trkpt lat="45.884993" lon="11.030693">
<time>2020-11-23T18:51:44Z</time>
</trkpt>
<trkpt lat="45.885033" lon="11.03071">
<time>2020-11-23T18:51:45Z</time>
</trkpt>
<trkpt lat="45.885076" lon="11.030721">
<time>2020-11-23T18:51:46Z</time>
</trkpt>
<trkpt lat="45.885111" lon="11.030733">
<time>2020-11-23T18:51:47Z</time>
</trkpt>
<trkpt lat="45.885136" lon="11.030751">
<time>2020-11-23T18:51:48Z</time>
</trkpt>
<trkpt lat="45.885146" lon="11.030771">
<time>2020-11-23T18:51:49Z</time>
</trkpt>
<trkpt lat="45.885143" lon="11.030776">
<time>2020-11-23T18:51:50Z</time>
</trkpt>
<trkpt lat="45.885116" lon="11.030788">
<time>2020-11-23T18:51:51Z</time>
</trkpt>
<trkpt lat="45.885111" lon="11.030768">
<time>2020-11-23T18:51:52Z</time>
</trkpt>
<trkpt lat="45.88509" lon="11.030731">
<time>2020-11-23T18:51:53Z</time>
</trkpt>
<trkpt lat="45.88505" lon="11.030698">
<time>2020-11-23T18:51:54Z</time>
</trkpt>
<trkpt lat="45.885001" lon="11.030681">
<time>2020-11-23T18:51:55Z</time>
</trkpt>
<trkpt lat="45.884965" lon="11.03066">
<time>2020-11-23T18:51:56Z</time>
</trkpt>
<trkpt lat="45.884933" lon="11.030633">
<time>2020-11-23T18:51:57Z</time>
</trkpt>
<trkpt lat="45.884893" lon="11.030616">
<time>2020-11-23T18:51:58Z</time>
</trkpt>
<trkpt lat="45.88485" lon="11.030611">
<time>2020-11-23T18:51:59Z</time>
</trkpt>
<trkpt lat="45.884806" lon="11.030608">
<time>2020-11-23T18:52:00Z</time>
</trkpt>
<trkpt lat="45.884768" lon="11.030601">
<time>2020-11-23T18:52:01Z</time>
</trkpt>
<trkpt lat="45.884743" lon="11.030586">
<time>2020-11-23T18:52:02Z</time>
</trkpt>
<trkpt lat="45.884726" lon="11.030565">
<time>2020-11-23T18:52:03Z</time>
</trkpt>
<trkpt lat="45.884725" lon="11.030526">
<time>2020-11-23T18:52:04Z</time>
</trkpt>
<trkpt lat="45.884728" lon="11.030486">
<time>2020-11-23T18:52:05Z</time>
</trkpt>
<trkpt lat="45.884735" lon="11.03044">
<time>2020-11-23T18:52:06Z</time>
</trkpt>
<trkpt lat="45.884743" lon="11.030381">
<time>2020-11-23T18:52:07Z</time>
</trkpt>
<trkpt lat="45.884748" lon="11.03033">
<time>2020-11-23T18:52:08Z</time>
</trkpt>
<trkpt lat="45.884755" lon="11.030285">
<time>2020-11-23T18:52:09Z</time>
</trkpt>
<trkpt lat="45.884753" lon="11.030255">
<time>2020-11-23T18:52:10Z</time>
</trkpt>
<trkpt lat="45.884746" lon="11.030233">
<time>2020-11-23T18:52:11Z</time>
</trkpt>
<trkpt lat="45.884736" lon="11.03022">
<time>2020-11-23T18:52:12Z</time>
</trkpt>
<trkpt lat="45.884718" lon="11.030213">
<time>2020-11-23T18:52:13Z</time>
</trkpt>
<trkpt lat="45.884696" lon="11.030203">
<time>2020-11-23T18:52:14Z</time>
</trkpt>
<trkpt lat="45.884675" lon="11.030195">
<time>2020-11-23T18:52:15Z</time>
</trkpt>
<trkpt lat="45.884646" lon="11.030188">
<time>2020-11-23T18:52:16Z</time>
</trkpt>
<trkpt lat="45.884618" lon="11.030181">
<time>2020-11-23T18:52:17Z</time>
</trkpt>
<trkpt lat="45.884583" lon="11.030171">
<time>2020-11-23T18:52:18Z</time>
</trkpt>
<trkpt lat="45.884545" lon="11.030158">
<time>2020-11-23T18:52:19Z</time>
</trkpt>
<trkpt lat="45.88451" lon="11.030145">
<time>2020-11-23T18:52:20Z</time>
</trkpt>
<trkpt lat="45.884485" lon="11.030136">
<time>2020-11-23T18:52:21Z</time>
</trkpt>
<trkpt lat="45.884465" lon="11.030133">
<time>2020-11-23T18:52:22Z</time>
</trkpt>
<trkpt lat="45.884458" lon="11.030125">
<time>2020-11-23T18:52:23Z</time>
</trkpt>
<trkpt lat="45.884453" lon="11.030115">
<time>2020-11-23T18:52:24Z</time>
</trkpt>
<trkpt lat="45.884458" lon="11.030093">
<time>2020-11-23T18:52:25Z</time>
</trkpt>
<trkpt lat="45.884466" lon="11.030058">
<time>2020-11-23T18:52:26Z</time>
</trkpt>
<trkpt lat="45.884476" lon="11.03002">
<time>2020-11-23T18:52:27Z</time>
</trkpt>
<trkpt lat="45.88447" lon="11.02999">
<time>2020-11-23T18:52:28Z</time>
</trkpt>
<trkpt lat="45.88446" lon="11.029955">
<time>2020-11-23T18:52:29Z</time>
</trkpt>
<trkpt lat="45.884445" lon="11.029915">
<time>2020-11-23T18:52:30Z</time>
</trkpt>
<trkpt lat="45.884426" lon="11.02989">
<time>2020-11-23T18:52:31Z</time>
</trkpt>
<trkpt lat="45.884411" lon="11.029883">
<time>2020-11-23T18:52:32Z</time>
</trkpt>
<trkpt lat="45.884396" lon="11.029885">
<time>2020-11-23T18:52:33Z</time>
</trkpt>
<trkpt lat="45.884385" lon="11.029893">
<time>2020-11-23T18:52:34Z</time>
</trkpt>
<trkpt lat="45.88438" lon="11.02991">
<time>2020-11-23T18:52:35Z</time>
</trkpt>
<trkpt lat="45.88438" lon="11.029935">
<time>2020-11-23T18:52:36Z</time>
</trkpt>
<trkpt lat="45.88439" lon="11.029961">
<time>2020-11-23T18:52:37Z</time>
</trkpt>
<trkpt lat="45.884408" lon="11.029991">
<time>2020-11-23T18:52:38Z</time>
</trkpt>
<trkpt lat="45.884425" lon="11.030026">
<time>2020-11-23T18:52:39Z</time>
</trkpt>
<trkpt lat="45.88444" lon="11.030068">
<time>2020-11-23T18:52:40Z</time>
</trkpt>
<trkpt lat="45.884451" lon="11.030113">
<time>2020-11-23T18:52:41Z</time>
</trkpt>
<trkpt lat="45.884451" lon="11.030165">
<time>2020-11-23T18:52:42Z</time>
</trkpt>
<trkpt lat="45.884448" lon="11.03022">
<time>2020-11-23T18:52:43Z</time>
</trkpt>
<trkpt lat="45.884438" lon="11.030278">
<time>2020-11-23T18:52:44Z</time>
</trkpt>
<trkpt lat="45.884421" lon="11.030326">
<time>2020-11-23T18:52:45Z</time>
</trkpt>
<trkpt lat="45.884395" lon="11.030358">
<time>2020-11-23T18:52:46Z</time>
</trkpt>
<trkpt lat="45.884366" lon="11.030385">
<time>2020-11-23T18:52:47Z</time>
</trkpt>
<trkpt lat="45.88433" lon="11.030411">
<time>2020-11-23T18:52:48Z</time>
</trkpt>
<trkpt lat="45.884283" lon="11.03044">
<time>2020-11-23T18:52:49Z</time>
</trkpt>
<trkpt lat="45.884233" lon="11.030461">
<time>2020-11-23T18:52:50Z</time>
</trkpt>
<trkpt lat="45.884185" lon="11.030476">
<time>2020-11-23T18:52:51Z</time>
</trkpt>
<trkpt lat="45.88414" lon="11.030495">
<time>2020-11-23T18:52:52Z</time>
</trkpt>
<trkpt lat="45.884108" lon="11.030508">
<time>2020-11-23T18:52:53Z</time>
</trkpt>
<trkpt lat="45.884088" lon="11.03052">
<time>2020-11-23T18:52:54Z</time>
</trkpt>
<trkpt lat="45.884076" lon="11.030526">
<time>2020-11-23T18:52:55Z</time>
</trkpt>
<trkpt lat="45.884061" lon="11.030538">
<time>2020-11-23T18:52:56Z</time>
</trkpt>
<trkpt lat="45.884051" lon="11.030546">
<time>2020-11-23T18:52:57Z</time>
</trkpt>
<trkpt lat="45.884048" lon="11.03055">
<time>2020-11-23T18:52:58Z</time>
</trkpt>
<trkpt lat="45.88406" lon="11.030541">
<time>2020-11-23T18:52:59Z</time>
</trkpt>
<trkpt lat="45.884073" lon="11.030533">
<time>2020-11-23T18:53:00Z</time>
</trkpt>
<trkpt lat="45.884088" lon="11.030518">
<time>2020-11-23T18:53:01Z</time>
</trkpt>
<trkpt lat="45.884101" lon="11.030508">
<time>2020-11-23T18:53:02Z</time>
</trkpt>
<trkpt lat="45.88412" lon="11.030495">
<time>2020-11-23T18:53:03Z</time>
</trkpt>
<trkpt lat="45.884145" lon="11.030478">
<time>2020-11-23T18:53:04Z</time>
</trkpt>
<trkpt lat="45.884173" lon="11.030455">
<time>2020-11-23T18:53:05Z</time>
</trkpt>
<trkpt lat="45.88421" lon="11.030436">
<time>2020-11-23T18:53:06Z</time>
</trkpt>
<trkpt lat="45.88425" lon="11.030423">
<time>2020-11-23T18:53:07Z</time>
</trkpt>
<trkpt lat="45.8843" lon="11.030406">
<time>2020-11-23T18:53:08Z</time>
</trkpt>
<trkpt lat="45.884346" lon="11.030383">
<time>2020-11-23T18:53:09Z</time>
</trkpt>
<trkpt lat="45.884381" lon="11.030346">
<time>2020-11-23T18:53:10Z</time>
</trkpt>
<trkpt lat="45.884403" lon="11.0303">
<time>2020-11-23T18:53:11Z</time>
</trkpt>
<trkpt lat="45.884418" lon="11.030246">
<time>2020-11-23T18:53:12Z</time>
</trkpt>
<trkpt lat="45.884436" lon="11.030181">
<time>2020-11-23T18:53:13Z</time>
</trkpt>
<trkpt lat="45.88445" lon="11.030113">
<time>2020-11-23T18:53:14Z</time>
</trkpt>
<trkpt lat="45.884453" lon="11.030038">
<time>2020-11-23T18:53:15Z</time>
</trkpt>
<trkpt lat="45.884443" lon="11.02997">
<time>2020-11-23T18:53:16Z</time>
</trkpt>
<trkpt lat="45.884431" lon="11.029901">
<time>2020-11-23T18:53:17Z</time>
</trkpt>
<trkpt lat="45.884416" lon="11.029833">
<time>2020-11-23T18:53:18Z</time>
</trkpt>
<trkpt lat="45.884405" lon="11.029768">
<time>2020-11-23T18:53:19Z</time>
</trkpt>
<trkpt lat="45.884388" lon="11.029708">
<time>2020-11-23T18:53:20Z</time>
</trkpt>
<trkpt lat="45.884376" lon="11.029643">
<time>2020-11-23T18:53:21Z</time>
</trkpt>
<trkpt lat="45.884375" lon="11.029566">
<time>2020-11-23T18:53:22Z</time>
</trkpt>
<trkpt lat="45.884363" lon="11.0295">
<time>2020-11-23T18:53:23Z</time>
</trkpt>
<trkpt lat="45.88436" lon="11.029425">
<time>2020-11-23T18:53:24Z</time>
</trkpt>
<trkpt lat="45.884348" lon="11.02936">
<time>2020-11-23T18:53:25Z</time>
</trkpt>
<trkpt lat="45.88434" lon="11.029296">
<time>2020-11-23T18:53:26Z</time>
</trkpt>
<trkpt lat="45.884331" lon="11.029235">
<time>2020-11-23T18:53:27Z</time>
</trkpt>
<trkpt lat="45.884325" lon="11.029171">
<time>2020-11-23T18:53:28Z</time>
</trkpt>
<trkpt lat="45.884318" lon="11.02911">
<time>2020-11-23T18:53:29Z</time>
</trkpt>
<trkpt lat="45.884301" lon="11.029051">
<time>2020-11-23T18:53:30Z</time>
</trkpt>
<trkpt lat="45.88429" lon="11.028991">
<time>2020-11-23T18:53:31Z</time>
</trkpt>
<trkpt lat="45.884275" lon="11.02893">
<time>2020-11-23T18:53:32Z</time>
</trkpt>
<trkpt lat="45.884261" lon="11.028871">
<time>2020-11-23T18:53:33Z</time>
</trkpt>
<trkpt lat="45.88425" lon="11.028803">
<time>2020-11-23T18:53:34Z</time>
</trkpt>
<trkpt lat="45.884243" lon="11.028735">
<time>2020-11-23T18:53:35Z</time>
</trkpt>
<trkpt lat="45.884236" lon="11.028675">
<time>2020-11-23T18:53:36Z</time>
</trkpt>
<trkpt lat="45.88423" lon="11.02861">
<time>2020-11-23T18:53:37Z</time>
</trkpt>
<trkpt lat="45.884218" lon="11.028545">
<time>2020-11-23T18:53:38Z</time>
</trkpt>
<trkpt lat="45.884206" lon="11.028481">
<time>2020-11-23T18:53:39Z</time>
</trkpt>
<trkpt lat="45.884198" lon="11.028423">
<time>2020-11-23T18:53:40Z</time>
</trkpt>
<trkpt lat="45.884186" lon="11.028366">
<time>2020-11-23T18:53:41Z</time>
</trkpt>
<trkpt lat="45.884181" lon="11.02831">
<time>2020-11-23T18:53:42Z</time>
</trkpt>
<trkpt lat="45.884178" lon="11.02825">
<time>2020-11-23T18:53:43Z</time>
</trkpt>
<trkpt lat="45.884178" lon="11.028191">
<time>2020-11-23T18:53:44Z</time>
</trkpt>
<trkpt lat="45.884166" lon="11.028126">
<time>2020-11-23T18:53:45Z</time>
</trkpt>
<trkpt lat="45.884158" lon="11.028061">
<time>2020-11-23T18:53:46Z</time>
</trkpt>
<trkpt lat="45.884148" lon="11.028001">
<time>2020-11-23T18:53:47Z</time>
</trkpt>
<trkpt lat="45.88414" lon="11.027951">
<time>2020-11-23T18:53:48Z</time>
</trkpt>
<trkpt lat="45.88413" lon="11.027896">
<time>2020-11-23T18:53:49Z</time>
</trkpt>
<trkpt lat="45.884123" lon="11.027828">
<time>2020-11-23T18:53:50Z</time>
</trkpt>
<trkpt lat="45.884121" lon="11.027788">
<time>2020-11-23T18:53:51Z</time>
</trkpt>
<trkpt lat="45.884111" lon="11.027743">
<time>2020-11-23T18:53:52Z</time>
</trkpt>
<trkpt lat="45.884103" lon="11.027685">
<time>2020-11-23T18:53:53Z</time>
</trkpt>
<trkpt lat="45.884093" lon="11.027631">
<time>2020-11-23T18:53:54Z</time>
</trkpt>
<trkpt lat="45.884078" lon="11.027575">
<time>2020-11-23T18:53:55Z</time>
</trkpt>
<trkpt lat="45.884063" lon="11.027518">
<time>2020-11-23T18:53:56Z</time>
</trkpt>
<trkpt lat="45.884048" lon="11.027461">
<time>2020-11-23T18:53:57Z</time>
</trkpt>
<trkpt lat="45.884031" lon="11.027398">
<time>2020-11-23T18:53:58Z</time>
</trkpt>
<trkpt lat="45.884018" lon="11.027341">
<time>2020-11-23T18:53:59Z</time>
</trkpt>
<trkpt lat="45.884001" lon="11.027283">
<time>2020-11-23T18:54:00Z</time>
</trkpt>
<trkpt lat="45.883986" lon="11.027223">
<time>2020-11-23T18:54:01Z</time>
</trkpt>
<trkpt lat="45.88398" lon="11.027168">
<time>2020-11-23T18:54:02Z</time>
</trkpt>
<trkpt lat="45.883975" lon="11.027111">
<time>2020-11-23T18:54:03Z</time>
</trkpt>
<trkpt lat="45.883971" lon="11.027055">
<time>2020-11-23T18:54:04Z</time>
</trkpt>
<trkpt lat="45.883976" lon="11.027001">
<time>2020-11-23T18:54:05Z</time>
</trkpt>
<trkpt lat="45.883983" lon="11.026945">
<time>2020-11-23T18:54:06Z</time>
</trkpt>
<trkpt lat="45.883996" lon="11.026891">
<time>2020-11-23T18:54:07Z</time>
</trkpt>
<trkpt lat="45.884011" lon="11.026843">
<time>2020-11-23T18:54:08Z</time>
</trkpt>
<trkpt lat="45.884033" lon="11.0268">
<time>2020-11-23T18:54:09Z</time>
</trkpt>
<trkpt lat="45.884061" lon="11.02676">
<time>2020-11-23T18:54:10Z</time>
</trkpt>
<trkpt lat="45.88409" lon="11.02673">
<time>2020-11-23T18:54:11Z</time>
</trkpt>
<trkpt lat="45.88412" lon="11.026703">
<time>2020-11-23T18:54:12Z</time>
</trkpt>
<trkpt lat="45.884155" lon="11.026686">
<time>2020-11-23T18:54:13Z</time>
</trkpt>
<trkpt lat="45.88419" lon="11.026673">
<time>2020-11-23T18:54:14Z</time>
</trkpt>
<trkpt lat="45.884228" lon="11.026665">
<time>2020-11-23T18:54:15Z</time>
</trkpt>
<trkpt lat="45.884261" lon="11.02666">
<time>2020-11-23T18:54:16Z</time>
</trkpt>
<trkpt lat="45.884298" lon="11.026653">
<time>2020-11-23T18:54:17Z</time>
</trkpt>
<trkpt lat="45.884331" lon="11.026655">
<time>2020-11-23T18:54:18Z</time>
</trkpt>
<trkpt lat="45.884373" lon="11.026653">
<time>2020-11-23T18:54:19Z</time>
</trkpt>
<trkpt lat="45.884418" lon="11.026651">
<time>2020-11-23T18:54:20Z</time>
</trkpt>
<trkpt lat="45.88447" lon="11.026646">
<time>2020-11-23T18:54:21Z</time>
</trkpt>
<trkpt lat="45.884516" lon="11.02664">
<time>2020-11-23T18:54:22Z</time>
</trkpt>
<trkpt lat="45.884551" lon="11.026635">
<time>2020-11-23T18:54:23Z</time>
</trkpt>
<trkpt lat="45.884585" lon="11.026625">
<time>2020-11-23T18:54:24Z</time>
</trkpt>
<trkpt lat="45.884621" lon="11.026618">
<time>2020-11-23T18:54:25Z</time>
</trkpt>
<trkpt lat="45.884661" lon="11.026616">
<time>2020-11-23T18:54:26Z</time>
</trkpt>
<trkpt lat="45.884705" lon="11.026618">
<time>2020-11-23T18:54:27Z</time>
</trkpt>
<trkpt lat="45.88474" lon="11.02663">
<time>2020-11-23T18:54:28Z</time>
</trkpt>
<trkpt lat="45.884776" lon="11.026641">
<time>2020-11-23T18:54:29Z</time>
</trkpt>
<trkpt lat="45.884816" lon="11.026653">
<time>2020-11-23T18:54:30Z</time>
</trkpt>
<trkpt lat="45.884851" lon="11.026663">
<time>2020-11-23T18:54:31Z</time>
</trkpt>
<trkpt lat="45.884896" lon="11.026665">
<time>2020-11-23T18:54:32Z</time>
</trkpt>
<trkpt lat="45.88494" lon="11.026665">
<time>2020-11-23T18:54:33Z</time>
</trkpt>
<trkpt lat="45.884981" lon="11.026656">
<time>2020-11-23T18:54:34Z</time>
</trkpt>
<trkpt lat="45.885016" lon="11.026638">
<time>2020-11-23T18:54:35Z</time>
</trkpt>
<trkpt lat="45.885046" lon="11.02661">
<time>2020-11-23T18:54:36Z</time>
</trkpt>
<trkpt lat="45.885065" lon="11.026573">
<time>2020-11-23T18:54:37Z</time>
</trkpt>
<trkpt lat="45.885088" lon="11.026533">
<time>2020-11-23T18:54:38Z</time>
</trkpt>
<trkpt lat="45.88511" lon="11.026493">
<time>2020-11-23T18:54:39Z</time>
</trkpt>
<trkpt lat="45.885141" lon="11.02644">
<time>2020-11-23T18:54:40Z</time>
</trkpt>
<trkpt lat="45.885166" lon="11.0264">
<time>2020-11-23T18:54:41Z</time>
</trkpt>
<trkpt lat="45.885186" lon="11.02637">
<time>2020-11-23T18:54:42Z</time>
</trkpt>
<trkpt lat="45.88522" lon="11.02635">
<time>2020-11-23T18:54:43Z</time>
</trkpt>
<trkpt lat="45.88526" lon="11.02632">
<time>2020-11-23T18:54:44Z</time>
</trkpt>
<trkpt lat="45.885296" lon="11.02631">
<time>2020-11-23T18:54:45Z</time>
</trkpt>
<trkpt lat="45.885335" lon="11.026293">
<time>2020-11-23T18:54:46Z</time>
</trkpt>
<trkpt lat="45.885373" lon="11.026273">
<time>2020-11-23T18:54:47Z</time>
</trkpt>
<trkpt lat="45.885415" lon="11.026258">
<time>2020-11-23T18:54:48Z</time>
</trkpt>
<trkpt lat="45.885455" lon="11.026238">
<time>2020-11-23T18:54:49Z</time>
</trkpt>
<trkpt lat="45.885488" lon="11.02621">
<time>2020-11-23T18:54:50Z</time>
</trkpt>
<trkpt lat="45.885505" lon="11.026166">
<time>2020-11-23T18:54:51Z</time>
</trkpt>
<trkpt lat="45.885505" lon="11.026111">
<time>2020-11-23T18:54:52Z</time>
</trkpt>
<trkpt lat="45.885496" lon="11.026056">
<time>2020-11-23T18:54:53Z</time>
</trkpt>
<trkpt lat="45.88548" lon="11.026003">
<time>2020-11-23T18:54:54Z</time>
</trkpt>
<trkpt lat="45.885465" lon="11.025936">
<time>2020-11-23T18:54:55Z</time>
</trkpt>
<trkpt lat="45.885445" lon="11.02588">
<time>2020-11-23T18:54:56Z</time>
</trkpt>
<trkpt lat="45.885426" lon="11.025826">
<time>2020-11-23T18:54:57Z</time>
</trkpt>
<trkpt lat="45.88541" lon="11.025771">
<time>2020-11-23T18:54:58Z</time>
</trkpt>
<trkpt lat="45.885398" lon="11.02571">
<time>2020-11-23T18:54:59Z</time>
</trkpt>
<trkpt lat="45.885375" lon="11.025656">
<time>2020-11-23T18:55:00Z</time>
</trkpt>
<trkpt lat="45.885358" lon="11.025596">
<time>2020-11-23T18:55:01Z</time>
</trkpt>
<trkpt lat="45.885341" lon="11.025538">
<time>2020-11-23T18:55:02Z</time>
</trkpt>
<trkpt lat="45.885325" lon="11.02548">
<time>2020-11-23T18:55:03Z</time>
</trkpt>
<trkpt lat="45.885306" lon="11.025425">
<time>2020-11-23T18:55:04Z</time>
</trkpt>
<trkpt lat="45.885295" lon="11.025365">
<time>2020-11-23T18:55:05Z</time>
</trkpt>
<trkpt lat="45.885286" lon="11.02531">
<time>2020-11-23T18:55:06Z</time>
</trkpt>
<trkpt lat="45.885271" lon="11.025256">
<time>2020-11-23T18:55:07Z</time>
</trkpt>
<trkpt lat="45.885258" lon="11.025201">
<time>2020-11-23T18:55:08Z</time>
</trkpt>
<trkpt lat="45.885243" lon="11.025148">
<time>2020-11-23T18:55:09Z</time>
</trkpt>
<trkpt lat="45.885228" lon="11.025096">
<time>2020-11-23T18:55:10Z</time>
</trkpt>
<trkpt lat="45.885216" lon="11.025041">
<time>2020-11-23T18:55:11Z</time>
</trkpt>
<trkpt lat="45.885203" lon="11.024985">
<time>2020-11-23T18:55:12Z</time>
</trkpt>
<trkpt lat="45.885191" lon="11.024926">
<time>2020-11-23T18:55:13Z</time>
</trkpt>
<trkpt lat="45.885173" lon="11.02487">
<time>2020-11-23T18:55:14Z</time>
</trkpt>
<trkpt lat="45.885155" lon="11.024805">
<time>2020-11-23T18:55:15Z</time>
</trkpt>
<trkpt lat="45.885143" lon="11.024763">
<time>2020-11-23T18:55:16Z</time>
</trkpt>
<trkpt lat="45.88513" lon="11.024713">
<time>2020-11-23T18:55:17Z</time>
</trkpt>
<trkpt lat="45.88512" lon="11.02467">
<time>2020-11-23T18:55:18Z</time>
</trkpt>
<trkpt lat="45.885105" lon="11.02462">
<time>2020-11-23T18:55:19Z</time>
</trkpt>
<trkpt lat="45.885093" lon="11.024568">
<time>2020-11-23T18:55:20Z</time>
</trkpt>
<trkpt lat="45.885076" lon="11.024518">
<time>2020-11-23T18:55:21Z</time>
</trkpt>
<trkpt lat="45.88506" lon="11.024473">
<time>2020-11-23T18:55:22Z</time>
</trkpt>
<trkpt lat="45.885046" lon="11.024426">
<time>2020-11-23T18:55:23Z</time>
</trkpt>
<trkpt lat="45.885031" lon="11.024383">
<time>2020-11-23T18:55:24Z</time>
</trkpt>
<trkpt lat="45.885015" lon="11.024336">
<time>2020-11-23T18:55:25Z</time>
</trkpt>
<trkpt lat="45.885" lon="11.024281">
<time>2020-11-23T18:55:26Z</time>
</trkpt>
<trkpt lat="45.884986" lon="11.024226">
<time>2020-11-23T18:55:27Z</time>
</trkpt>
<trkpt lat="45.884976" lon="11.024171">
<time>2020-11-23T18:55:28Z</time>
</trkpt>
<trkpt lat="45.884958" lon="11.02412">
<time>2020-11-23T18:55:29Z</time>
</trkpt>
<trkpt lat="45.884943" lon="11.024066">
<time>2020-11-23T18:55:30Z</time>
</trkpt>
<trkpt lat="45.884928" lon="11.02401">
<time>2020-11-23T18:55:31Z</time>
</trkpt>
<trkpt lat="45.884918" lon="11.023953">
<time>2020-11-23T18:55:32Z</time>
</trkpt>
<trkpt lat="45.884901" lon="11.023898">
<time>2020-11-23T18:55:33Z</time>
</trkpt>
<trkpt lat="45.884888" lon="11.023848">
<time>2020-11-23T18:55:34Z</time>
</trkpt>
<trkpt lat="45.88487" lon="11.023801">
<time>2020-11-23T18:55:35Z</time>
</trkpt>
<trkpt lat="45.884853" lon="11.023758">
<time>2020-11-23T18:55:36Z</time>
</trkpt>
<trkpt lat="45.88484" lon="11.023721">
<time>2020-11-23T18:55:37Z</time>
</trkpt>
<trkpt lat="45.88482" lon="11.023701">
<time>2020-11-23T18:55:38Z</time>
</trkpt>
<trkpt lat="45.884793" lon="11.023703">
<time>2020-11-23T18:55:39Z</time>
</trkpt>
<trkpt lat="45.884768" lon="11.02372">
<time>2020-11-23T18:55:40Z</time>
</trkpt>
<trkpt lat="45.884733" lon="11.023748">
<time>2020-11-23T18:55:41Z</time>
</trkpt>
<trkpt lat="45.884691" lon="11.023783">
<time>2020-11-23T18:55:42Z</time>
</trkpt>
<trkpt lat="45.884653" lon="11.02382">
<time>2020-11-23T18:55:43Z</time>
</trkpt>
<trkpt lat="45.884611" lon="11.023856">
<time>2020-11-23T18:55:44Z</time>
</trkpt>
<trkpt lat="45.884568" lon="11.0239">
<time>2020-11-23T18:55:45Z</time>
</trkpt>
<trkpt lat="45.884516" lon="11.023948">
<time>2020-11-23T18:55:46Z</time>
</trkpt>
<trkpt lat="45.884476" lon="11.023985">
<time>2020-11-23T18:55:47Z</time>
</trkpt>
<trkpt lat="45.88443" lon="11.024021">
<time>2020-11-23T18:55:48Z</time>
</trkpt>
<trkpt lat="45.884385" lon="11.024061">
<time>2020-11-23T18:55:49Z</time>
</trkpt>
<trkpt lat="45.884341" lon="11.0241">
<time>2020-11-23T18:55:50Z</time>
</trkpt>
<trkpt lat="45.884298" lon="11.024138">
<time>2020-11-23T18:55:51Z</time>
</trkpt>
<trkpt lat="45.884261" lon="11.024181">
<time>2020-11-23T18:55:52Z</time>
</trkpt>
<trkpt lat="45.884218" lon="11.024223">
<time>2020-11-23T18:55:53Z</time>
</trkpt>
<trkpt lat="45.884175" lon="11.024261">
<time>2020-11-23T18:55:54Z</time>
</trkpt>
<trkpt lat="45.884126" lon="11.024286">
<time>2020-11-23T18:55:55Z</time>
</trkpt>
<trkpt lat="45.88407" lon="11.024325">
<time>2020-11-23T18:55:56Z</time>
</trkpt>
<trkpt lat="45.884016" lon="11.024355">
<time>2020-11-23T18:55:57Z</time>
</trkpt>
<trkpt lat="45.88398" lon="11.024388">
<time>2020-11-23T18:55:58Z</time>
</trkpt>
<trkpt lat="45.883938" lon="11.02442">
<time>2020-11-23T18:55:59Z</time>
</trkpt>
<trkpt lat="45.883891" lon="11.02445">
<time>2020-11-23T18:56:00Z</time>
</trkpt>
<trkpt lat="45.883853" lon="11.02448">
<time>2020-11-23T18:56:01Z</time>
</trkpt>
<trkpt lat="45.883815" lon="11.024508">
<time>2020-11-23T18:56:02Z</time>
</trkpt>
<trkpt lat="45.883766" lon="11.024536">
<time>2020-11-23T18:56:03Z</time>
</trkpt>
<trkpt lat="45.883726" lon="11.024561">
<time>2020-11-23T18:56:04Z</time>
</trkpt>
<trkpt lat="45.883688" lon="11.024581">
<time>2020-11-23T18:56:05Z</time>
</trkpt>
<trkpt lat="45.88365" lon="11.024601">
<time>2020-11-23T18:56:06Z</time>
</trkpt>
<trkpt lat="45.883605" lon="11.024626">
<time>2020-11-23T18:56:07Z</time>
</trkpt>
<trkpt lat="45.883566" lon="11.024648">
<time>2020-11-23T18:56:08Z</time>
</trkpt>
<trkpt lat="45.883526" lon="11.024671">
<time>2020-11-23T18:56:09Z</time>
</trkpt>
<trkpt lat="45.883488" lon="11.024696">
<time>2020-11-23T18:56:10Z</time>
</trkpt>
<trkpt lat="45.883446" lon="11.024723">
<time>2020-11-23T18:56:11Z</time>
</trkpt>
<trkpt lat="45.883406" lon="11.024751">
<time>2020-11-23T18:56:12Z</time>
</trkpt>
<trkpt lat="45.883365" lon="11.024781">
<time>2020-11-23T18:56:13Z</time>
</trkpt>
<trkpt lat="45.883323" lon="11.024811">
<time>2020-11-23T18:56:14Z</time>
</trkpt>
<trkpt lat="45.883283" lon="11.02484">
<time>2020-11-23T18:56:15Z</time>
</trkpt>
<trkpt lat="45.88324" lon="11.02487">
<time>2020-11-23T18:56:16Z</time>
</trkpt>
<trkpt lat="45.883198" lon="11.024898">
<time>2020-11-23T18:56:17Z</time>
</trkpt>
<trkpt lat="45.883158" lon="11.024928">
<time>2020-11-23T18:56:18Z</time>
</trkpt>
<trkpt lat="45.883121" lon="11.024956">
<time>2020-11-23T18:56:19Z</time>
</trkpt>
<trkpt lat="45.883085" lon="11.024981">
<time>2020-11-23T18:56:20Z</time>
</trkpt>
<trkpt lat="45.883055" lon="11.025001">
<time>2020-11-23T18:56:21Z</time>
</trkpt>
<trkpt lat="45.88301" lon="11.025031">
<time>2020-11-23T18:56:22Z</time>
</trkpt>
<trkpt lat="45.882973" lon="11.025056">
<time>2020-11-23T18:56:23Z</time>
</trkpt>
<trkpt lat="45.882931" lon="11.025081">
<time>2020-11-23T18:56:24Z</time>
</trkpt>
<trkpt lat="45.88289" lon="11.025105">
<time>2020-11-23T18:56:25Z</time>
</trkpt>
<trkpt lat="45.882843" lon="11.02514">
<time>2020-11-23T18:56:26Z</time>
</trkpt>
<trkpt lat="45.882801" lon="11.02516">
<time>2020-11-23T18:56:27Z</time>
</trkpt>
<trkpt lat="45.882763" lon="11.025183">
<time>2020-11-23T18:56:28Z</time>
</trkpt>
<trkpt lat="45.882723" lon="11.025201">
<time>2020-11-23T18:56:29Z</time>
</trkpt>
<trkpt lat="45.88269" lon="11.02522">
<time>2020-11-23T18:56:30Z</time>
</trkpt>
<trkpt lat="45.88265" lon="11.025248">
<time>2020-11-23T18:56:31Z</time>
</trkpt>
<trkpt lat="45.882615" lon="11.025268">
<time>2020-11-23T18:56:32Z</time>
</trkpt>
<trkpt lat="45.882576" lon="11.025286">
<time>2020-11-23T18:56:33Z</time>
</trkpt>
<trkpt lat="45.882536" lon="11.025315">
<time>2020-11-23T18:56:34Z</time>
</trkpt>
<trkpt lat="45.882495" lon="11.025343">
<time>2020-11-23T18:56:35Z</time>
</trkpt>
<trkpt lat="45.882451" lon="11.025366">
<time>2020-11-23T18:56:36Z</time>
</trkpt>
<trkpt lat="45.882413" lon="11.02539">
<time>2020-11-23T18:56:37Z</time>
</trkpt>
<trkpt lat="45.882375" lon="11.025411">
<time>2020-11-23T18:56:38Z</time>
</trkpt>
<trkpt lat="45.882338" lon="11.025433">
<time>2020-11-23T18:56:39Z</time>
</trkpt>
<trkpt lat="45.882295" lon="11.025458">
<time>2020-11-23T18:56:40Z</time>
</trkpt>
<trkpt lat="45.882251" lon="11.025483">
<time>2020-11-23T18:56:41Z</time>
</trkpt>
<trkpt lat="45.882215" lon="11.025503">
<time>2020-11-23T18:56:42Z</time>
</trkpt>
<trkpt lat="45.88218" lon="11.025526">
<time>2020-11-23T18:56:43Z</time>
</trkpt>
<trkpt lat="45.88215" lon="11.025556">
<time>2020-11-23T18:56:44Z</time>
</trkpt>
<trkpt lat="45.882135" lon="11.025588">
<time>2020-11-23T18:56:45Z</time>
</trkpt>
<trkpt lat="45.882136" lon="11.025633">
<time>2020-11-23T18:56:46Z</time>
</trkpt>
<trkpt lat="45.882143" lon="11.025681">
<time>2020-11-23T18:56:47Z</time>
</trkpt>
<trkpt lat="45.882158" lon="11.025738">
<time>2020-11-23T18:56:48Z</time>
</trkpt>
<trkpt lat="45.88218" lon="11.0258">
<time>2020-11-23T18:56:49Z</time>
</trkpt>
<trkpt lat="45.882205" lon="11.02586">
<time>2020-11-23T18:56:50Z</time>
</trkpt>
<trkpt lat="45.882226" lon="11.025916">
<time>2020-11-23T18:56:51Z</time>
</trkpt>
<trkpt lat="45.882246" lon="11.025976">
<time>2020-11-23T18:56:52Z</time>
</trkpt>
<trkpt lat="45.882266" lon="11.026038">
<time>2020-11-23T18:56:53Z</time>
</trkpt>
<trkpt lat="45.882283" lon="11.0261">
<time>2020-11-23T18:56:54Z</time>
</trkpt>
<trkpt lat="45.882303" lon="11.026161">
<time>2020-11-23T18:56:55Z</time>
</trkpt>
<trkpt lat="45.882323" lon="11.026223">
<time>2020-11-23T18:56:56Z</time>
</trkpt>
<trkpt lat="45.88234" lon="11.026286">
<time>2020-11-23T18:56:57Z</time>
</trkpt>
<trkpt lat="45.882358" lon="11.026355">
<time>2020-11-23T18:56:58Z</time>
</trkpt>
<trkpt lat="45.882378" lon="11.02642">
<time>2020-11-23T18:56:59Z</time>
</trkpt>
<trkpt lat="45.882395" lon="11.026483">
<time>2020-11-23T18:57:00Z</time>
</trkpt>
<trkpt lat="45.882413" lon="11.026545">
<time>2020-11-23T18:57:01Z</time>
</trkpt>
<trkpt lat="45.882433" lon="11.026605">
<time>2020-11-23T18:57:02Z</time>
</trkpt>
<trkpt lat="45.882455" lon="11.026681">
<time>2020-11-23T18:57:03Z</time>
</trkpt>
<trkpt lat="45.882471" lon="11.02673">
<time>2020-11-23T18:57:04Z</time>
</trkpt>
<trkpt lat="45.882491" lon="11.026791">
<time>2020-11-23T18:57:05Z</time>
</trkpt>
<trkpt lat="45.882508" lon="11.026853">
<time>2020-11-23T18:57:06Z</time>
</trkpt>
<trkpt lat="45.882525" lon="11.026916">
<time>2020-11-23T18:57:07Z</time>
</trkpt>
<trkpt lat="45.882541" lon="11.026976">
<time>2020-11-23T18:57:08Z</time>
</trkpt>
<trkpt lat="45.882563" lon="11.027046">
<time>2020-11-23T18:57:09Z</time>
</trkpt>
<trkpt lat="45.882578" lon="11.027091">
<time>2020-11-23T18:57:10Z</time>
</trkpt>
<trkpt lat="45.882593" lon="11.027151">
<time>2020-11-23T18:57:11Z</time>
</trkpt>
<trkpt lat="45.88261" lon="11.027211">
<time>2020-11-23T18:57:12Z</time>
</trkpt>
<trkpt lat="45.882626" lon="11.027271">
<time>2020-11-23T18:57:13Z</time>
</trkpt>
<trkpt lat="45.882643" lon="11.02733">
<time>2020-11-23T18:57:14Z</time>
</trkpt>
<trkpt lat="45.882658" lon="11.027391">
<time>2020-11-23T18:57:15Z</time>
</trkpt>
<trkpt lat="45.882673" lon="11.027448">
<time>2020-11-23T18:57:16Z</time>
</trkpt>
<trkpt lat="45.882688" lon="11.02751">
<time>2020-11-23T18:57:17Z</time>
</trkpt>
<trkpt lat="45.882701" lon="11.027566">
<time>2020-11-23T18:57:18Z</time>
</trkpt>
<trkpt lat="45.882716" lon="11.027625">
<time>2020-11-23T18:57:19Z</time>
</trkpt>
<trkpt lat="45.882728" lon="11.02768">
<time>2020-11-23T18:57:20Z</time>
</trkpt>
<trkpt lat="45.88274" lon="11.02774">
<time>2020-11-23T18:57:21Z</time>
</trkpt>
<trkpt lat="45.882755" lon="11.0278">
<time>2020-11-23T18:57:22Z</time>
</trkpt>
<trkpt lat="45.882773" lon="11.02786">
<time>2020-11-23T18:57:23Z</time>
</trkpt>
<trkpt lat="45.882788" lon="11.02792">
<time>2020-11-23T18:57:24Z</time>
</trkpt>
<trkpt lat="45.882806" lon="11.027978">
<time>2020-11-23T18:57:25Z</time>
</trkpt>
<trkpt lat="45.88282" lon="11.028038">
<time>2020-11-23T18:57:26Z</time>
</trkpt>
<trkpt lat="45.882836" lon="11.028096">
<time>2020-11-23T18:57:27Z</time>
</trkpt>
<trkpt lat="45.882848" lon="11.028156">
<time>2020-11-23T18:57:28Z</time>
</trkpt>
<trkpt lat="45.882856" lon="11.028221">
<time>2020-11-23T18:57:29Z</time>
</trkpt>
<trkpt lat="45.882868" lon="11.028283">
<time>2020-11-23T18:57:30Z</time>
</trkpt>
<trkpt lat="45.882881" lon="11.028341">
<time>2020-11-23T18:57:31Z</time>
</trkpt>
<trkpt lat="45.882895" lon="11.028403">
<time>2020-11-23T18:57:32Z</time>
</trkpt>
<trkpt lat="45.882903" lon="11.028463">
<time>2020-11-23T18:57:33Z</time>
</trkpt>
<trkpt lat="45.882915" lon="11.028528">
<time>2020-11-23T18:57:34Z</time>
</trkpt>
<trkpt lat="45.882923" lon="11.028588">
<time>2020-11-23T18:57:35Z</time>
</trkpt>
<trkpt lat="45.882935" lon="11.028651">
<time>2020-11-23T18:57:36Z</time>
</trkpt>
<trkpt lat="45.882948" lon="11.02871">
<time>2020-11-23T18:57:37Z</time>
</trkpt>
<trkpt lat="45.882958" lon="11.028771">
<time>2020-11-23T18:57:38Z</time>
</trkpt>
<trkpt lat="45.88297" lon="11.028833">
<time>2020-11-23T18:57:39Z</time>
</trkpt>
<trkpt lat="45.882978" lon="11.028895">
<time>2020-11-23T18:57:40Z</time>
</trkpt>
<trkpt lat="45.882988" lon="11.028958">
<time>2020-11-23T18:57:41Z</time>
</trkpt>
<trkpt lat="45.882995" lon="11.029021">
<time>2020-11-23T18:57:42Z</time>
</trkpt>
<trkpt lat="45.883008" lon="11.02908">
<time>2020-11-23T18:57:43Z</time>
</trkpt>
<trkpt lat="45.883018" lon="11.029143">
<time>2020-11-23T18:57:44Z</time>
</trkpt>
<trkpt lat="45.883031" lon="11.029205">
<time>2020-11-23T18:57:45Z</time>
</trkpt>
<trkpt lat="45.883043" lon="11.029266">
<time>2020-11-23T18:57:46Z</time>
</trkpt>
<trkpt lat="45.88305" lon="11.029331">
<time>2020-11-23T18:57:47Z</time>
</trkpt>
<trkpt lat="45.883058" lon="11.029391">
<time>2020-11-23T18:57:48Z</time>
</trkpt>
<trkpt lat="45.883065" lon="11.029453">
<time>2020-11-23T18:57:49Z</time>
</trkpt>
<trkpt lat="45.883071" lon="11.029526">
<time>2020-11-23T18:57:50Z</time>
</trkpt>
<trkpt lat="45.883075" lon="11.029575">
<time>2020-11-23T18:57:51Z</time>
</trkpt>
<trkpt lat="45.883086" lon="11.029633">
<time>2020-11-23T18:57:52Z</time>
</trkpt>
<trkpt lat="45.883095" lon="11.029696">
<time>2020-11-23T18:57:53Z</time>
</trkpt>
<trkpt lat="45.883111" lon="11.029753">
<time>2020-11-23T18:57:54Z</time>
</trkpt>
<trkpt lat="45.883126" lon="11.029811">
<time>2020-11-23T18:57:55Z</time>
</trkpt>
<trkpt lat="45.88314" lon="11.029868">
<time>2020-11-23T18:57:56Z</time>
</trkpt>
<trkpt lat="45.883141" lon="11.029935">
<time>2020-11-23T18:57:57Z</time>
</trkpt>
<trkpt lat="45.883141" lon="11.030001">
<time>2020-11-23T18:57:58Z</time>
</trkpt>
<trkpt lat="45.883141" lon="11.030063">
<time>2020-11-23T18:57:59Z</time>
</trkpt>
<trkpt lat="45.883148" lon="11.030118">
<time>2020-11-23T18:58:00Z</time>
</trkpt>
<trkpt lat="45.883166" lon="11.030173">
<time>2020-11-23T18:58:01Z</time>
</trkpt>
<trkpt lat="45.88318" lon="11.030233">
<time>2020-11-23T18:58:02Z</time>
</trkpt>
<trkpt lat="45.883188" lon="11.030293">
<time>2020-11-23T18:58:03Z</time>
</trkpt>
<trkpt lat="45.883203" lon="11.030366">
<time>2020-11-23T18:58:04Z</time>
</trkpt>
<trkpt lat="45.883208" lon="11.030415">
<time>2020-11-23T18:58:05Z</time>
</trkpt>
<trkpt lat="45.883216" lon="11.030478">
<time>2020-11-23T18:58:06Z</time>
</trkpt>
<trkpt lat="45.883225" lon="11.030536">
<time>2020-11-23T18:58:07Z</time>
</trkpt>
<trkpt lat="45.883236" lon="11.030596">
<time>2020-11-23T18:58:08Z</time>
</trkpt>
<trkpt lat="45.883248" lon="11.030651">
<time>2020-11-23T18:58:09Z</time>
</trkpt>
<trkpt lat="45.883256" lon="11.030701">
<time>2020-11-23T18:58:10Z</time>
</trkpt>
<trkpt lat="45.883265" lon="11.030746">
<time>2020-11-23T18:58:11Z</time>
</trkpt>
<trkpt lat="45.883263" lon="11.030783">
<time>2020-11-23T18:58:12Z</time>
</trkpt>
<trkpt lat="45.883265" lon="11.03081">
<time>2020-11-23T18:58:13Z</time>
</trkpt>
<trkpt lat="45.88327" lon="11.030831">
<time>2020-11-23T18:58:14Z</time>
</trkpt>
<trkpt lat="45.883273" lon="11.030848">
<time>2020-11-23T18:58:15Z</time>
</trkpt>
<trkpt lat="45.883273" lon="11.030851">
<time>2020-11-23T18:58:16Z</time>
</trkpt>
<trkpt lat="45.883273" lon="11.03085">
<time>2020-11-23T18:58:17Z</time>
</trkpt>
<trkpt lat="45.883273" lon="11.030846">
<time>2020-11-23T18:58:18Z</time>
</trkpt>
<trkpt lat="45.883271" lon="11.030838">
<time>2020-11-23T18:58:19Z</time>
</trkpt>
<trkpt lat="45.883271" lon="11.030821">
<time>2020-11-23T18:58:20Z</time>
</trkpt>
<trkpt lat="45.883268" lon="11.03081">
<time>2020-11-23T18:58:21Z</time>
</trkpt>
<trkpt lat="45.88321" lon="11.030681">
<time>2020-11-23T18:58:22Z</time>
</trkpt>
<trkpt lat="45.883208" lon="11.030655">
<time>2020-11-23T18:58:23Z</time>
</trkpt>
<trkpt lat="45.883206" lon="11.030621">
<time>2020-11-23T18:58:24Z</time>
</trkpt>
<trkpt lat="45.883203" lon="11.030583">
<time>2020-11-23T18:58:25Z</time>
</trkpt>
<trkpt lat="45.883201" lon="11.030541">
<time>2020-11-23T18:58:26Z</time>
</trkpt>
<trkpt lat="45.883203" lon="11.0305">
<time>2020-11-23T18:58:27Z</time>
</trkpt>
<trkpt lat="45.883205" lon="11.030458">
<time>2020-11-23T18:58:28Z</time>
</trkpt>
<trkpt lat="45.883208" lon="11.030415">
<time>2020-11-23T18:58:29Z</time>
</trkpt>
<trkpt lat="45.883208" lon="11.030373">
<time>2020-11-23T18:58:30Z</time>
</trkpt>
<trkpt lat="45.883206" lon="11.03034">
<time>2020-11-23T18:58:31Z</time>
</trkpt>
<trkpt lat="45.883205" lon="11.03031">
<time>2020-11-23T18:58:32Z</time>
</trkpt>
<trkpt lat="45.883205" lon="11.03028">
<time>2020-11-23T18:58:33Z</time>
</trkpt>
<trkpt lat="45.883205" lon="11.03025">
<time>2020-11-23T18:58:34Z</time>
</trkpt>
<trkpt lat="45.8832" lon="11.030218">
<time>2020-11-23T18:58:35Z</time>
</trkpt>
<trkpt lat="45.883193" lon="11.030185">
<time>2020-11-23T18:58:36Z</time>
</trkpt>
<trkpt lat="45.883183" lon="11.03015">
<time>2020-11-23T18:58:37Z</time>
</trkpt>
<trkpt lat="45.883175" lon="11.030113">
<time>2020-11-23T18:58:38Z</time>
</trkpt>
<trkpt lat="45.883166" lon="11.030076">
<time>2020-11-23T18:58:39Z</time>
</trkpt>
<trkpt lat="45.883163" lon="11.030038">
<time>2020-11-23T18:58:40Z</time>
</trkpt>
<trkpt lat="45.883158" lon="11.030001">
<time>2020-11-23T18:58:41Z</time>
</trkpt>
<trkpt lat="45.883153" lon="11.029966">
<time>2020-11-23T18:58:42Z</time>
</trkpt>
<trkpt lat="45.88315" lon="11.02993">
<time>2020-11-23T18:58:43Z</time>
</trkpt>
<trkpt lat="45.883146" lon="11.029895">
<time>2020-11-23T18:58:44Z</time>
</trkpt>
<trkpt lat="45.883145" lon="11.02986">
<time>2020-11-23T18:58:45Z</time>
</trkpt>
<trkpt lat="45.88314" lon="11.029823">
<time>2020-11-23T18:58:46Z</time>
</trkpt>
<trkpt lat="45.883133" lon="11.029788">
<time>2020-11-23T18:58:47Z</time>
</trkpt>
<trkpt lat="45.88313" lon="11.029753">
<time>2020-11-23T18:58:48Z</time>
</trkpt>
<trkpt lat="45.883123" lon="11.029718">
<time>2020-11-23T18:58:49Z</time>
</trkpt>
<trkpt lat="45.88312" lon="11.029681">
<time>2020-11-23T18:58:50Z</time>
</trkpt>
<trkpt lat="45.883116" lon="11.029641">
<time>2020-11-23T18:58:51Z</time>
</trkpt>
<trkpt lat="45.883113" lon="11.029605">
<time>2020-11-23T18:58:52Z</time>
</trkpt>
<trkpt lat="45.883108" lon="11.029565">
<time>2020-11-23T18:58:53Z</time>
</trkpt>
<trkpt lat="45.883105" lon="11.029526">
<time>2020-11-23T18:58:54Z</time>
</trkpt>
<trkpt lat="45.883098" lon="11.029486">
<time>2020-11-23T18:58:55Z</time>
</trkpt>
<trkpt lat="45.883093" lon="11.029448">
<time>2020-11-23T18:58:56Z</time>
</trkpt>
<trkpt lat="45.883088" lon="11.02941">
<time>2020-11-23T18:58:57Z</time>
</trkpt>
<trkpt lat="45.883083" lon="11.029371">
<time>2020-11-23T18:58:58Z</time>
</trkpt>
<trkpt lat="45.883078" lon="11.02933">
<time>2020-11-23T18:58:59Z</time>
</trkpt>
<trkpt lat="45.883071" lon="11.029291">
<time>2020-11-23T18:59:00Z</time>
</trkpt>
<trkpt lat="45.883065" lon="11.029251">
<time>2020-11-23T18:59:01Z</time>
</trkpt>
<trkpt lat="45.88306" lon="11.029211">
<time>2020-11-23T18:59:02Z</time>
</trkpt>
<trkpt lat="45.883055" lon="11.02917">
<time>2020-11-23T18:59:03Z</time>
</trkpt>
<trkpt lat="45.883048" lon="11.029131">
<time>2020-11-23T18:59:04Z</time>
</trkpt>
<trkpt lat="45.883043" lon="11.029091">
<time>2020-11-23T18:59:05Z</time>
</trkpt>
<trkpt lat="45.883038" lon="11.029051">
<time>2020-11-23T18:59:06Z</time>
</trkpt>
<trkpt lat="45.883033" lon="11.029013">
<time>2020-11-23T18:59:07Z</time>
</trkpt>
<trkpt lat="45.883026" lon="11.028973">
<time>2020-11-23T18:59:08Z</time>
</trkpt>
<trkpt lat="45.883021" lon="11.028935">
<time>2020-11-23T18:59:09Z</time>
</trkpt>
<trkpt lat="45.883013" lon="11.028896">
<time>2020-11-23T18:59:10Z</time>
</trkpt>
<trkpt lat="45.883008" lon="11.028858">
<time>2020-11-23T18:59:11Z</time>
</trkpt>
<trkpt lat="45.883" lon="11.02882">
<time>2020-11-23T18:59:12Z</time>
</trkpt>
<trkpt lat="45.882993" lon="11.02878">
<time>2020-11-23T18:59:13Z</time>
</trkpt>
<trkpt lat="45.882985" lon="11.028741">
<time>2020-11-23T18:59:14Z</time>
</trkpt>
<trkpt lat="45.882976" lon="11.028703">
<time>2020-11-23T18:59:15Z</time>
</trkpt>
<trkpt lat="45.88297" lon="11.028661">
<time>2020-11-23T18:59:16Z</time>
</trkpt>
<trkpt lat="45.88296" lon="11.028621">
<time>2020-11-23T18:59:17Z</time>
</trkpt>
<trkpt lat="45.882953" lon="11.028583">
<time>2020-11-23T18:59:18Z</time>
</trkpt>
<trkpt lat="45.882945" lon="11.028545">
<time>2020-11-23T18:59:19Z</time>
</trkpt>
<trkpt lat="45.882938" lon="11.028508">
<time>2020-11-23T18:59:20Z</time>
</trkpt>
<trkpt lat="45.882931" lon="11.028471">
<time>2020-11-23T18:59:21Z</time>
</trkpt>
<trkpt lat="45.882923" lon="11.028433">
<time>2020-11-23T18:59:22Z</time>
</trkpt>
<trkpt lat="45.882915" lon="11.028393">
<time>2020-11-23T18:59:23Z</time>
</trkpt>
<trkpt lat="45.882908" lon="11.028353">
<time>2020-11-23T18:59:24Z</time>
</trkpt>
<trkpt lat="45.882901" lon="11.028311">
<time>2020-11-23T18:59:25Z</time>
</trkpt>
<trkpt lat="45.882893" lon="11.02827">
<time>2020-11-23T18:59:26Z</time>
</trkpt>
<trkpt lat="45.882885" lon="11.02823">
<time>2020-11-23T18:59:27Z</time>
</trkpt>
<trkpt lat="45.882876" lon="11.02819">
<time>2020-11-23T18:59:28Z</time>
</trkpt>
<trkpt lat="45.882866" lon="11.02815">
<time>2020-11-23T18:59:29Z</time>
</trkpt>
<trkpt lat="45.882853" lon="11.028106">
<time>2020-11-23T18:59:30Z</time>
</trkpt>
<trkpt lat="45.882841" lon="11.028063">
<time>2020-11-23T18:59:31Z</time>
</trkpt>
<trkpt lat="45.88283" lon="11.028025">
<time>2020-11-23T18:59:32Z</time>
</trkpt>
<trkpt lat="45.882821" lon="11.027985">
<time>2020-11-23T18:59:33Z</time>
</trkpt>
<trkpt lat="45.882813" lon="11.027945">
<time>2020-11-23T18:59:34Z</time>
</trkpt>
<trkpt lat="45.882805" lon="11.027903">
<time>2020-11-23T18:59:35Z</time>
</trkpt>
<trkpt lat="45.882796" lon="11.027861">
<time>2020-11-23T18:59:36Z</time>
</trkpt>
<trkpt lat="45.882788" lon="11.027821">
<time>2020-11-23T18:59:37Z</time>
</trkpt>
<trkpt lat="45.88278" lon="11.027781">
<time>2020-11-23T18:59:38Z</time>
</trkpt>
<trkpt lat="45.88277" lon="11.02774">
<time>2020-11-23T18:59:39Z</time>
</trkpt>
<trkpt lat="45.882761" lon="11.027698">
<time>2020-11-23T18:59:40Z</time>
</trkpt>
<trkpt lat="45.88275" lon="11.027655">
<time>2020-11-23T18:59:41Z</time>
</trkpt>
<trkpt lat="45.88274" lon="11.027611">
<time>2020-11-23T18:59:42Z</time>
</trkpt>
<trkpt lat="45.882731" lon="11.027568">
<time>2020-11-23T18:59:43Z</time>
</trkpt>
<trkpt lat="45.882721" lon="11.027526">
<time>2020-11-23T18:59:44Z</time>
</trkpt>
<trkpt lat="45.882711" lon="11.027483">
<time>2020-11-23T18:59:45Z</time>
</trkpt>
<trkpt lat="45.882701" lon="11.02744">
<time>2020-11-23T18:59:46Z</time>
</trkpt>
<trkpt lat="45.88269" lon="11.027398">
<time>2020-11-23T18:59:47Z</time>
</trkpt>
<trkpt lat="45.88268" lon="11.027358">
<time>2020-11-23T18:59:48Z</time>
</trkpt>
<trkpt lat="45.88267" lon="11.027318">
<time>2020-11-23T18:59:49Z</time>
</trkpt>
<trkpt lat="45.882661" lon="11.027278">
<time>2020-11-23T18:59:50Z</time>
</trkpt>
<trkpt lat="45.882653" lon="11.027238">
<time>2020-11-23T18:59:51Z</time>
</trkpt>
<trkpt lat="45.882641" lon="11.027196">
<time>2020-11-23T18:59:52Z</time>
</trkpt>
<trkpt lat="45.882631" lon="11.027158">
<time>2020-11-23T18:59:53Z</time>
</trkpt>
<trkpt lat="45.882621" lon="11.027118">
<time>2020-11-23T18:59:54Z</time>
</trkpt>
<trkpt lat="45.882611" lon="11.02708">
<time>2020-11-23T18:59:55Z</time>
</trkpt>
<trkpt lat="45.882601" lon="11.027041">
<time>2020-11-23T18:59:56Z</time>
</trkpt>
<trkpt lat="45.88259" lon="11.027003">
<time>2020-11-23T18:59:57Z</time>
</trkpt>
<trkpt lat="45.882578" lon="11.026961">
<time>2020-11-23T18:59:58Z</time>
</trkpt>
<trkpt lat="45.882566" lon="11.02692">
<time>2020-11-23T18:59:59Z</time>
</trkpt>
<trkpt lat="45.882553" lon="11.026878">
<time>2020-11-23T19:00:00Z</time>
</trkpt>
<trkpt lat="45.88254" lon="11.026836">
<time>2020-11-23T19:00:01Z</time>
</trkpt>
<trkpt lat="45.882528" lon="11.026793">
<time>2020-11-23T19:00:02Z</time>
</trkpt>
<trkpt lat="45.882516" lon="11.026751">
<time>2020-11-23T19:00:03Z</time>
</trkpt>
<trkpt lat="45.882506" lon="11.026708">
<time>2020-11-23T19:00:04Z</time>
</trkpt>
<trkpt lat="45.882495" lon="11.026666">
<time>2020-11-23T19:00:05Z</time>
</trkpt>
<trkpt lat="45.882485" lon="11.026623">
<time>2020-11-23T19:00:06Z</time>
</trkpt>
<trkpt lat="45.882473" lon="11.026581">
<time>2020-11-23T19:00:07Z</time>
</trkpt>
<trkpt lat="45.882463" lon="11.026541">
<time>2020-11-23T19:00:08Z</time>
</trkpt>
<trkpt lat="45.88245" lon="11.0265">
<time>2020-11-23T19:00:09Z</time>
</trkpt>
<trkpt lat="45.882436" lon="11.02646">
<time>2020-11-23T19:00:10Z</time>
</trkpt>
<trkpt lat="45.882421" lon="11.026418">
<time>2020-11-23T19:00:11Z</time>
</trkpt>
<trkpt lat="45.882406" lon="11.02638">
<time>2020-11-23T19:00:12Z</time>
</trkpt>
<trkpt lat="45.882393" lon="11.026343">
<time>2020-11-23T19:00:13Z</time>
</trkpt>
<trkpt lat="45.88238" lon="11.026305">
<time>2020-11-23T19:00:14Z</time>
</trkpt>
<trkpt lat="45.882368" lon="11.026266">
<time>2020-11-23T19:00:15Z</time>
</trkpt>
<trkpt lat="45.882355" lon="11.02623">
<time>2020-11-23T19:00:16Z</time>
</trkpt>
<trkpt lat="45.882343" lon="11.026196">
<time>2020-11-23T19:00:17Z</time>
</trkpt>
<trkpt lat="45.88233" lon="11.026161">
<time>2020-11-23T19:00:18Z</time>
</trkpt>
<trkpt lat="45.882316" lon="11.026126">
<time>2020-11-23T19:00:19Z</time>
</trkpt>
<trkpt lat="45.882308" lon="11.026088">
<time>2020-11-23T19:00:20Z</time>
</trkpt>
<trkpt lat="45.882296" lon="11.026055">
<time>2020-11-23T19:00:21Z</time>
</trkpt>
<trkpt lat="45.882288" lon="11.02602">
<time>2020-11-23T19:00:22Z</time>
</trkpt>
<trkpt lat="45.882278" lon="11.025985">
<time>2020-11-23T19:00:23Z</time>
</trkpt>
<trkpt lat="45.88227" lon="11.02595">
<time>2020-11-23T19:00:24Z</time>
</trkpt>
<trkpt lat="45.882263" lon="11.025916">
<time>2020-11-23T19:00:25Z</time>
</trkpt>
<trkpt lat="45.882251" lon="11.025885">
<time>2020-11-23T19:00:26Z</time>
</trkpt>
<trkpt lat="45.88224" lon="11.02585">
<time>2020-11-23T19:00:27Z</time>
</trkpt>
<trkpt lat="45.882226" lon="11.025815">
<time>2020-11-23T19:00:28Z</time>
</trkpt>
<trkpt lat="45.882215" lon="11.025776">
<time>2020-11-23T19:00:29Z</time>
</trkpt>
<trkpt lat="45.882205" lon="11.02574">
<time>2020-11-23T19:00:30Z</time>
</trkpt>
<trkpt lat="45.882196" lon="11.025703">
<time>2020-11-23T19:00:31Z</time>
</trkpt>
<trkpt lat="45.882185" lon="11.025666">
<time>2020-11-23T19:00:32Z</time>
</trkpt>
<trkpt lat="45.882176" lon="11.025633">
<time>2020-11-23T19:00:33Z</time>
</trkpt>
<trkpt lat="45.882166" lon="11.025598">
<time>2020-11-23T19:00:34Z</time>
</trkpt>
<trkpt lat="45.882161" lon="11.025563">
<time>2020-11-23T19:00:35Z</time>
</trkpt>
<trkpt lat="45.882158" lon="11.025533">
<time>2020-11-23T19:00:36Z</time>
</trkpt>
<trkpt lat="45.882163" lon="11.025506">
<time>2020-11-23T19:00:37Z</time>
</trkpt>
<trkpt lat="45.882175" lon="11.025486">
<time>2020-11-23T19:00:38Z</time>
</trkpt>
<trkpt lat="45.882193" lon="11.025471">
<time>2020-11-23T19:00:39Z</time>
</trkpt>
<trkpt lat="45.882213" lon="11.025458">
<time>2020-11-23T19:00:40Z</time>
</trkpt>
<trkpt lat="45.882236" lon="11.025448">
<time>2020-11-23T19:00:41Z</time>
</trkpt>
<trkpt lat="45.88226" lon="11.025433">
<time>2020-11-23T19:00:42Z</time>
</trkpt>
<trkpt lat="45.882285" lon="11.025418">
<time>2020-11-23T19:00:43Z</time>
</trkpt>
<trkpt lat="45.88231" lon="11.0254">
<time>2020-11-23T19:00:44Z</time>
</trkpt>
<trkpt lat="45.882326" lon="11.025375">
<time>2020-11-23T19:00:45Z</time>
</trkpt>
<trkpt lat="45.882336" lon="11.025343">
<time>2020-11-23T19:00:46Z</time>
</trkpt>
<trkpt lat="45.882338" lon="11.02531">
<time>2020-11-23T19:00:47Z</time>
</trkpt>
<trkpt lat="45.882333" lon="11.025275">
<time>2020-11-23T19:00:48Z</time>
</trkpt>
<trkpt lat="45.882325" lon="11.025241">
<time>2020-11-23T19:00:49Z</time>
</trkpt>
<trkpt lat="45.882315" lon="11.025208">
<time>2020-11-23T19:00:50Z</time>
</trkpt>
<trkpt lat="45.882305" lon="11.025178">
<time>2020-11-23T19:00:51Z</time>
</trkpt>
<trkpt lat="45.882295" lon="11.025146">
<time>2020-11-23T19:00:52Z</time>
</trkpt>
<trkpt lat="45.882285" lon="11.025113">
<time>2020-11-23T19:00:53Z</time>
</trkpt>
<trkpt lat="45.882276" lon="11.025081">
<time>2020-11-23T19:00:54Z</time>
</trkpt>
<trkpt lat="45.882265" lon="11.025051">
<time>2020-11-23T19:00:55Z</time>
</trkpt>
<trkpt lat="45.882253" lon="11.02502">
<time>2020-11-23T19:00:56Z</time>
</trkpt>
<trkpt lat="45.882245" lon="11.024988">
<time>2020-11-23T19:00:57Z</time>
</trkpt>
<trkpt lat="45.882236" lon="11.024958">
<time>2020-11-23T19:00:58Z</time>
</trkpt>
<trkpt lat="45.882226" lon="11.02493">
<time>2020-11-23T19:00:59Z</time>
</trkpt>
<trkpt lat="45.882218" lon="11.024901">
<time>2020-11-23T19:01:00Z</time>
</trkpt>
<trkpt lat="45.882208" lon="11.024873">
<time>2020-11-23T19:01:01Z</time>
</trkpt>
<trkpt lat="45.882196" lon="11.024846">
<time>2020-11-23T19:01:02Z</time>
</trkpt>
<trkpt lat="45.882185" lon="11.024821">
<time>2020-11-23T19:01:03Z</time>
</trkpt>
<trkpt lat="45.882173" lon="11.024793">
<time>2020-11-23T19:01:04Z</time>
</trkpt>
<trkpt lat="45.882163" lon="11.024766">
<time>2020-11-23T19:01:05Z</time>
</trkpt>
<trkpt lat="45.882153" lon="11.024738">
<time>2020-11-23T19:01:06Z</time>
</trkpt>
<trkpt lat="45.882146" lon="11.02471">
<time>2020-11-23T19:01:07Z</time>
</trkpt>
<trkpt lat="45.882136" lon="11.024683">
<time>2020-11-23T19:01:08Z</time>
</trkpt>
<trkpt lat="45.882128" lon="11.024658">
<time>2020-11-23T19:01:09Z</time>
</trkpt>
<trkpt lat="45.882118" lon="11.024631">
<time>2020-11-23T19:01:10Z</time>
</trkpt>
<trkpt lat="45.88211" lon="11.02461">
<time>2020-11-23T19:01:11Z</time>
</trkpt>
<trkpt lat="45.882106" lon="11.024591">
<time>2020-11-23T19:01:12Z</time>
</trkpt>
<trkpt lat="45.882101" lon="11.024576">
<time>2020-11-23T19:01:13Z</time>
</trkpt>
<trkpt lat="45.882096" lon="11.024565">
<time>2020-11-23T19:01:14Z</time>
</trkpt>
<trkpt lat="45.88209" lon="11.024561">
<time>2020-11-23T19:01:15Z</time>
</trkpt>
<trkpt lat="45.882085" lon="11.024563">
<time>2020-11-23T19:01:16Z</time>
</trkpt>
<trkpt lat="45.882083" lon="11.024561">
<time>2020-11-23T19:01:17Z</time>
</trkpt>
<trkpt lat="45.882085" lon="11.024556">
<time>2020-11-23T19:01:18Z</time>
</trkpt>
<trkpt lat="45.882088" lon="11.024548">
<time>2020-11-23T19:01:19Z</time>
</trkpt>
<trkpt lat="45.88209" lon="11.024536">
<time>2020-11-23T19:01:20Z</time>
</trkpt>
<trkpt lat="45.882093" lon="11.02452">
<time>2020-11-23T19:01:21Z</time>
</trkpt>
<trkpt lat="45.882095" lon="11.024503">
<time>2020-11-23T19:01:22Z</time>
</trkpt>
<trkpt lat="45.8821" lon="11.024491">
<time>2020-11-23T19:01:23Z</time>
</trkpt>
<trkpt lat="45.882106" lon="11.02448">
<time>2020-11-23T19:01:24Z</time>
</trkpt>
<trkpt lat="45.88212" lon="11.024466">
<time>2020-11-23T19:01:25Z</time>
</trkpt>
<trkpt lat="45.882125" lon="11.024456">
<time>2020-11-23T19:01:26Z</time>
</trkpt>
<trkpt lat="45.88213" lon="11.02445">
<time>2020-11-23T19:01:27Z</time>
</trkpt>
<trkpt lat="45.882131" lon="11.02444">
<time>2020-11-23T19:01:28Z</time>
</trkpt>
<trkpt lat="45.882136" lon="11.024426">
<time>2020-11-23T19:01:29Z</time>
</trkpt>
<trkpt lat="45.882138" lon="11.024411">
<time>2020-11-23T19:01:30Z</time>
</trkpt>
<trkpt lat="45.88215" lon="11.024391">
<time>2020-11-23T19:01:31Z</time>
</trkpt>
<trkpt lat="45.882156" lon="11.02438">
<time>2020-11-23T19:01:32Z</time>
</trkpt>
<trkpt lat="45.882163" lon="11.024361">
<time>2020-11-23T19:01:33Z</time>
</trkpt>
<trkpt lat="45.882171" lon="11.024345">
<time>2020-11-23T19:01:34Z</time>
</trkpt>
<trkpt lat="45.88218" lon="11.02433">
<time>2020-11-23T19:01:35Z</time>
</trkpt>
<trkpt lat="45.882191" lon="11.024313">
<time>2020-11-23T19:01:36Z</time>
</trkpt>
<trkpt lat="45.8822" lon="11.024296">
<time>2020-11-23T19:01:37Z</time>
</trkpt>
<trkpt lat="45.882208" lon="11.024281">
<time>2020-11-23T19:01:38Z</time>
</trkpt>
<trkpt lat="45.882221" lon="11.024266">
<time>2020-11-23T19:01:39Z</time>
</trkpt>
<trkpt lat="45.882233" lon="11.024253">
<time>2020-11-23T19:01:40Z</time>
</trkpt>
<trkpt lat="45.882243" lon="11.024241">
<time>2020-11-23T19:01:41Z</time>
</trkpt>
<trkpt lat="45.882253" lon="11.02423">
<time>2020-11-23T19:01:42Z</time>
</trkpt>
<trkpt lat="45.882263" lon="11.024216">
<time>2020-11-23T19:01:43Z</time>
</trkpt>
<trkpt lat="45.882268" lon="11.024201">
<time>2020-11-23T19:01:44Z</time>
</trkpt>
<trkpt lat="45.882273" lon="11.024186">
<time>2020-11-23T19:01:45Z</time>
</trkpt>
<trkpt lat="45.882278" lon="11.02417">
<time>2020-11-23T19:01:46Z</time>
</trkpt>
<trkpt lat="45.882283" lon="11.02415">
<time>2020-11-23T19:01:47Z</time>
</trkpt>
<trkpt lat="45.882286" lon="11.024136">
<time>2020-11-23T19:01:48Z</time>
</trkpt>
<trkpt lat="45.88229" lon="11.024121">
<time>2020-11-23T19:01:49Z</time>
</trkpt>
<trkpt lat="45.882295" lon="11.024101">
<time>2020-11-23T19:01:50Z</time>
</trkpt>
<trkpt lat="45.8823" lon="11.02409">
<time>2020-11-23T19:01:51Z</time>
</trkpt>
<trkpt lat="45.882308" lon="11.024075">
<time>2020-11-23T19:01:52Z</time>
</trkpt>
<trkpt lat="45.882316" lon="11.024056">
<time>2020-11-23T19:01:53Z</time>
</trkpt>
<trkpt lat="45.882326" lon="11.024025">
<time>2020-11-23T19:01:54Z</time>
</trkpt>
<trkpt lat="45.882333" lon="11.024">
<time>2020-11-23T19:01:55Z</time>
</trkpt>
<trkpt lat="45.88235" lon="11.023963">
<time>2020-11-23T19:01:56Z</time>
</trkpt>
<trkpt lat="45.88236" lon="11.023945">
<time>2020-11-23T19:01:57Z</time>
</trkpt>
<trkpt lat="45.882371" lon="11.02393">
<time>2020-11-23T19:01:58Z</time>
</trkpt>
<trkpt lat="45.882385" lon="11.02392">
<time>2020-11-23T19:01:59Z</time>
</trkpt>
<trkpt lat="45.882396" lon="11.023905">
<time>2020-11-23T19:02:00Z</time>
</trkpt>
<trkpt lat="45.88241" lon="11.023883">
<time>2020-11-23T19:02:01Z</time>
</trkpt>
<trkpt lat="45.882423" lon="11.023863">
<time>2020-11-23T19:02:02Z</time>
</trkpt>
<trkpt lat="45.882445" lon="11.023833">
<time>2020-11-23T19:02:03Z</time>
</trkpt>
<trkpt lat="45.882471" lon="11.0238">
<time>2020-11-23T19:02:04Z</time>
</trkpt>
<trkpt lat="45.882491" lon="11.023771">
<time>2020-11-23T19:02:05Z</time>
</trkpt>
<trkpt lat="45.882508" lon="11.023748">
<time>2020-11-23T19:02:06Z</time>
</trkpt>
<trkpt lat="45.88253" lon="11.023721">
<time>2020-11-23T19:02:07Z</time>
</trkpt>
<trkpt lat="45.882548" lon="11.023693">
<time>2020-11-23T19:02:08Z</time>
</trkpt>
<trkpt lat="45.88257" lon="11.023666">
<time>2020-11-23T19:02:09Z</time>
</trkpt>
<trkpt lat="45.88259" lon="11.023638">
<time>2020-11-23T19:02:10Z</time>
</trkpt>
<trkpt lat="45.882606" lon="11.023611">
<time>2020-11-23T19:02:11Z</time>
</trkpt>
<trkpt lat="45.882623" lon="11.023585">
<time>2020-11-23T19:02:12Z</time>
</trkpt>
<trkpt lat="45.88264" lon="11.02356">
<time>2020-11-23T19:02:13Z</time>
</trkpt>
<trkpt lat="45.882656" lon="11.023535">
<time>2020-11-23T19:02:14Z</time>
</trkpt>
<trkpt lat="45.882675" lon="11.02351">
<time>2020-11-23T19:02:15Z</time>
</trkpt>
<trkpt lat="45.88269" lon="11.023481">
<time>2020-11-23T19:02:16Z</time>
</trkpt>
<trkpt lat="45.882708" lon="11.023455">
<time>2020-11-23T19:02:17Z</time>
</trkpt>
<trkpt lat="45.882726" lon="11.023425">
<time>2020-11-23T19:02:18Z</time>
</trkpt>
<trkpt lat="45.882745" lon="11.023396">
<time>2020-11-23T19:02:19Z</time>
</trkpt>
<trkpt lat="45.882761" lon="11.023368">
<time>2020-11-23T19:02:20Z</time>
</trkpt>
<trkpt lat="45.882776" lon="11.023338">
<time>2020-11-23T19:02:21Z</time>
</trkpt>
<trkpt lat="45.882793" lon="11.023308">
<time>2020-11-23T19:02:22Z</time>
</trkpt>
<trkpt lat="45.882808" lon="11.02328">
<time>2020-11-23T19:02:23Z</time>
</trkpt>
<trkpt lat="45.882826" lon="11.023253">
<time>2020-11-23T19:02:24Z</time>
</trkpt>
<trkpt lat="45.882843" lon="11.023228">
<time>2020-11-23T19:02:25Z</time>
</trkpt>
<trkpt lat="45.88286" lon="11.023205">
<time>2020-11-23T19:02:26Z</time>
</trkpt>
<trkpt lat="45.88288" lon="11.023181">
<time>2020-11-23T19:02:27Z</time>
</trkpt>
<trkpt lat="45.882898" lon="11.023156">
<time>2020-11-23T19:02:28Z</time>
</trkpt>
<trkpt lat="45.882918" lon="11.023128">
<time>2020-11-23T19:02:29Z</time>
</trkpt>
<trkpt lat="45.882936" lon="11.023101">
<time>2020-11-23T19:02:30Z</time>
</trkpt>
<trkpt lat="45.882955" lon="11.023071">
<time>2020-11-23T19:02:31Z</time>
</trkpt>
<trkpt lat="45.882971" lon="11.023043">
<time>2020-11-23T19:02:32Z</time>
</trkpt>
<trkpt lat="45.882988" lon="11.023013">
<time>2020-11-23T19:02:33Z</time>
</trkpt>
<trkpt lat="45.883003" lon="11.022983">
<time>2020-11-23T19:02:34Z</time>
</trkpt>
<trkpt lat="45.883025" lon="11.022953">
<time>2020-11-23T19:02:35Z</time>
</trkpt>
<trkpt lat="45.883041" lon="11.022923">
<time>2020-11-23T19:02:36Z</time>
</trkpt>
<trkpt lat="45.883055" lon="11.022893">
<time>2020-11-23T19:02:37Z</time>
</trkpt>
<trkpt lat="45.883068" lon="11.022861">
<time>2020-11-23T19:02:38Z</time>
</trkpt>
<trkpt lat="45.88308" lon="11.02283">
<time>2020-11-23T19:02:39Z</time>
</trkpt>
<trkpt lat="45.883088" lon="11.022806">
<time>2020-11-23T19:02:40Z</time>
</trkpt>
<trkpt lat="45.883096" lon="11.022788">
<time>2020-11-23T19:02:41Z</time>
</trkpt>
<trkpt lat="45.883103" lon="11.022773">
<time>2020-11-23T19:02:42Z</time>
</trkpt>
<trkpt lat="45.88311" lon="11.022761">
<time>2020-11-23T19:02:43Z</time>
</trkpt>
<trkpt lat="45.883115" lon="11.022746">
<time>2020-11-23T19:02:44Z</time>
</trkpt>
<trkpt lat="45.883123" lon="11.022738">
<time>2020-11-23T19:02:45Z</time>
</trkpt>
<trkpt lat="45.883131" lon="11.022733">
<time>2020-11-23T19:02:46Z</time>
</trkpt>
<trkpt lat="45.883138" lon="11.02273">
<time>2020-11-23T19:02:47Z</time>
</trkpt>
<trkpt lat="45.883145" lon="11.022728">
<time>2020-11-23T19:02:48Z</time>
</trkpt>
<trkpt lat="45.883151" lon="11.022725">
<time>2020-11-23T19:02:49Z</time>
</trkpt>
<trkpt lat="45.883158" lon="11.02272">
<time>2020-11-23T19:02:50Z</time>
</trkpt>
<trkpt lat="45.883165" lon="11.022708">
<time>2020-11-23T19:02:51Z</time>
</trkpt>
<trkpt lat="45.883166" lon="11.02269">
<time>2020-11-23T19:02:52Z</time>
</trkpt>
<trkpt lat="45.883161" lon="11.02266">
<time>2020-11-23T19:02:53Z</time>
</trkpt>
<trkpt lat="45.883163" lon="11.022623">
<time>2020-11-23T19:02:54Z</time>
</trkpt>
<trkpt lat="45.883158" lon="11.022586">
<time>2020-11-23T19:02:55Z</time>
</trkpt>
<trkpt lat="45.88315" lon="11.022551">
<time>2020-11-23T19:02:56Z</time>
</trkpt>
<trkpt lat="45.883138" lon="11.022506">
<time>2020-11-23T19:02:57Z</time>
</trkpt>
<trkpt lat="45.883123" lon="11.022455">
<time>2020-11-23T19:02:58Z</time>
</trkpt>
<trkpt lat="45.883098" lon="11.02239">
<time>2020-11-23T19:02:59Z</time>
</trkpt>
<trkpt lat="45.88308" lon="11.022353">
<time>2020-11-23T19:03:00Z</time>
</trkpt>
<trkpt lat="45.88306" lon="11.022313">
<time>2020-11-23T19:03:01Z</time>
</trkpt>
<trkpt lat="45.883045" lon="11.022286">
<time>2020-11-23T19:03:02Z</time>
</trkpt>
<trkpt lat="45.883028" lon="11.022266">
<time>2020-11-23T19:03:03Z</time>
</trkpt>
<trkpt lat="45.883011" lon="11.022251">
<time>2020-11-23T19:03:04Z</time>
</trkpt>
<trkpt lat="45.882995" lon="11.022233">
<time>2020-11-23T19:03:05Z</time>
</trkpt>
<trkpt lat="45.882981" lon="11.022215">
<time>2020-11-23T19:03:06Z</time>
</trkpt>
<trkpt lat="45.882973" lon="11.022191">
<time>2020-11-23T19:03:07Z</time>
</trkpt>
<trkpt lat="45.882953" lon="11.022173">
<time>2020-11-23T19:03:08Z</time>
</trkpt>
<trkpt lat="45.882928" lon="11.022148">
<time>2020-11-23T19:03:09Z</time>
</trkpt>
<trkpt lat="45.882906" lon="11.022115">
<time>2020-11-23T19:03:10Z</time>
</trkpt>
<trkpt lat="45.882886" lon="11.02208">
<time>2020-11-23T19:03:11Z</time>
</trkpt>
<trkpt lat="45.882866" lon="11.022048">
<time>2020-11-23T19:03:12Z</time>
</trkpt>
<trkpt lat="45.882841" lon="11.022016">
<time>2020-11-23T19:03:13Z</time>
</trkpt>
<trkpt lat="45.882816" lon="11.02199">
<time>2020-11-23T19:03:14Z</time>
</trkpt>
<trkpt lat="45.882791" lon="11.021968">
<time>2020-11-23T19:03:15Z</time>
</trkpt>
<trkpt lat="45.882768" lon="11.021946">
<time>2020-11-23T19:03:16Z</time>
</trkpt>
<trkpt lat="45.882743" lon="11.02194">
<time>2020-11-23T19:03:17Z</time>
</trkpt>
<trkpt lat="45.882716" lon="11.021941">
<time>2020-11-23T19:03:18Z</time>
</trkpt>
<trkpt lat="45.882685" lon="11.021946">
<time>2020-11-23T19:03:19Z</time>
</trkpt>
<trkpt lat="45.88265" lon="11.021943">
<time>2020-11-23T19:03:20Z</time>
</trkpt>
<trkpt lat="45.882631" lon="11.021966">
<time>2020-11-23T19:03:21Z</time>
</trkpt>
<trkpt lat="45.882601" lon="11.021986">
<time>2020-11-23T19:03:22Z</time>
</trkpt>
<trkpt lat="45.88257" lon="11.021991">
<time>2020-11-23T19:03:23Z</time>
</trkpt>
<trkpt lat="45.882556" lon="11.022025">
<time>2020-11-23T19:03:24Z</time>
</trkpt>
<trkpt lat="45.882543" lon="11.022063">
<time>2020-11-23T19:03:25Z</time>
</trkpt>
<trkpt lat="45.882526" lon="11.022086">
<time>2020-11-23T19:03:26Z</time>
</trkpt>
<trkpt lat="45.882523" lon="11.022113">
<time>2020-11-23T19:03:27Z</time>
</trkpt>
<trkpt lat="45.882521" lon="11.022135">
<time>2020-11-23T19:03:28Z</time>
</trkpt>
<trkpt lat="45.882521" lon="11.022158">
<time>2020-11-23T19:03:29Z</time>
</trkpt>
<trkpt lat="45.882525" lon="11.022186">
<time>2020-11-23T19:03:30Z</time>
</trkpt>
<trkpt lat="45.882533" lon="11.022213">
<time>2020-11-23T19:03:31Z</time>
</trkpt>
<trkpt lat="45.882543" lon="11.022241">
<time>2020-11-23T19:03:32Z</time>
</trkpt>
<trkpt lat="45.882555" lon="11.022268">
<time>2020-11-23T19:03:33Z</time>
</trkpt>
<trkpt lat="45.882568" lon="11.02229">
<time>2020-11-23T19:03:34Z</time>
</trkpt>
<trkpt lat="45.882581" lon="11.022305">
<time>2020-11-23T19:03:35Z</time>
</trkpt>
<trkpt lat="45.882593" lon="11.02232">
<time>2020-11-23T19:03:36Z</time>
</trkpt>
<trkpt lat="45.882606" lon="11.022328">
<time>2020-11-23T19:03:37Z</time>
</trkpt>
<trkpt lat="45.882613" lon="11.022331">
<time>2020-11-23T19:03:38Z</time>
</trkpt>
<trkpt lat="45.882616" lon="11.022333">
<time>2020-11-23T19:03:39Z</time>
</trkpt>
<trkpt lat="45.88263" lon="11.022335">
<time>2020-11-23T19:03:40Z</time>
</trkpt>
<trkpt lat="45.882653" lon="11.022345">
<time>2020-11-23T19:03:41Z</time>
</trkpt>
<trkpt lat="45.882676" lon="11.022365">
<time>2020-11-23T19:03:42Z</time>
</trkpt>
<trkpt lat="45.882696" lon="11.022408">
<time>2020-11-23T19:03:43Z</time>
</trkpt>
<trkpt lat="45.88272" lon="11.022448">
<time>2020-11-23T19:03:44Z</time>
</trkpt>
<trkpt lat="45.88275" lon="11.022491">
<time>2020-11-23T19:03:45Z</time>
</trkpt>
<trkpt lat="45.88277" lon="11.022526">
<time>2020-11-23T19:03:46Z</time>
</trkpt>
<trkpt lat="45.88279" lon="11.022558">
<time>2020-11-23T19:03:47Z</time>
</trkpt>
<trkpt lat="45.882811" lon="11.022586">
<time>2020-11-23T19:03:48Z</time>
</trkpt>
<trkpt lat="45.882833" lon="11.022608">
<time>2020-11-23T19:03:49Z</time>
</trkpt>
<trkpt lat="45.88285" lon="11.022626">
<time>2020-11-23T19:03:50Z</time>
</trkpt>
<trkpt lat="45.88286" lon="11.022643">
<time>2020-11-23T19:03:51Z</time>
</trkpt>
<trkpt lat="45.882866" lon="11.022653">
<time>2020-11-23T19:03:52Z</time>
</trkpt>
<trkpt lat="45.882871" lon="11.022663">
<time>2020-11-23T19:03:53Z</time>
</trkpt>
<trkpt lat="45.882883" lon="11.02267">
<time>2020-11-23T19:03:54Z</time>
</trkpt>
<trkpt lat="45.882905" lon="11.022686">
<time>2020-11-23T19:03:55Z</time>
</trkpt>
<trkpt lat="45.88293" lon="11.022708">
<time>2020-11-23T19:03:56Z</time>
</trkpt>
<trkpt lat="45.882951" lon="11.022746">
<time>2020-11-23T19:03:57Z</time>
</trkpt>
<trkpt lat="45.882963" lon="11.022763">
<time>2020-11-23T19:03:58Z</time>
</trkpt>
<trkpt lat="45.882976" lon="11.022778">
<time>2020-11-23T19:03:59Z</time>
</trkpt>
<trkpt lat="45.882991" lon="11.022785">
<time>2020-11-23T19:04:00Z</time>
</trkpt>
<trkpt lat="45.882995" lon="11.022783">
<time>2020-11-23T19:04:01Z</time>
</trkpt>
<trkpt lat="45.882991" lon="11.022778">
<time>2020-11-23T19:04:02Z</time>
</trkpt>
<trkpt lat="45.882985" lon="11.022781">
<time>2020-11-23T19:04:03Z</time>
</trkpt>
<trkpt lat="45.882978" lon="11.022803">
<time>2020-11-23T19:04:04Z</time>
</trkpt>
<trkpt lat="45.882966" lon="11.022836">
<time>2020-11-23T19:04:05Z</time>
</trkpt>
<trkpt lat="45.882961" lon="11.02287">
<time>2020-11-23T19:04:06Z</time>
</trkpt>
<trkpt lat="45.882968" lon="11.022891">
<time>2020-11-23T19:04:07Z</time>
</trkpt>
<trkpt lat="45.882973" lon="11.022911">
<time>2020-11-23T19:04:08Z</time>
</trkpt>
<trkpt lat="45.882975" lon="11.02293">
<time>2020-11-23T19:04:09Z</time>
</trkpt>
<trkpt lat="45.882968" lon="11.022953">
<time>2020-11-23T19:04:10Z</time>
</trkpt>
<trkpt lat="45.882956" lon="11.02297">
<time>2020-11-23T19:04:11Z</time>
</trkpt>
<trkpt lat="45.88294" lon="11.022985">
<time>2020-11-23T19:04:12Z</time>
</trkpt>
<trkpt lat="45.882921" lon="11.023006">
<time>2020-11-23T19:04:13Z</time>
</trkpt>
<trkpt lat="45.882905" lon="11.023023">
<time>2020-11-23T19:04:14Z</time>
</trkpt>
<trkpt lat="45.882891" lon="11.023035">
<time>2020-11-23T19:04:15Z</time>
</trkpt>
<trkpt lat="45.882878" lon="11.023046">
<time>2020-11-23T19:04:16Z</time>
</trkpt>
<trkpt lat="45.882873" lon="11.023056">
<time>2020-11-23T19:04:17Z</time>
</trkpt>
<trkpt lat="45.882875" lon="11.023065">
<time>2020-11-23T19:04:18Z</time>
</trkpt>
<trkpt lat="45.882873" lon="11.023076">
<time>2020-11-23T19:04:19Z</time>
</trkpt>
<trkpt lat="45.882871" lon="11.02309">
<time>2020-11-23T19:04:20Z</time>
</trkpt>
<trkpt lat="45.882865" lon="11.023116">
<time>2020-11-23T19:04:21Z</time>
</trkpt>
<trkpt lat="45.882858" lon="11.023143">
<time>2020-11-23T19:04:22Z</time>
</trkpt>
<trkpt lat="45.882848" lon="11.023171">
<time>2020-11-23T19:04:23Z</time>
</trkpt>
<trkpt lat="45.882831" lon="11.0232">
<time>2020-11-23T19:04:24Z</time>
</trkpt>
<trkpt lat="45.88281" lon="11.023235">
<time>2020-11-23T19:04:25Z</time>
</trkpt>
<trkpt lat="45.882785" lon="11.023276">
<time>2020-11-23T19:04:26Z</time>
</trkpt>
<trkpt lat="45.88276" lon="11.023316">
<time>2020-11-23T19:04:27Z</time>
</trkpt>
<trkpt lat="45.882735" lon="11.023353">
<time>2020-11-23T19:04:28Z</time>
</trkpt>
<trkpt lat="45.882713" lon="11.023393">
<time>2020-11-23T19:04:29Z</time>
</trkpt>
<trkpt lat="45.882698" lon="11.023421">
<time>2020-11-23T19:04:30Z</time>
</trkpt>
<trkpt lat="45.882686" lon="11.023445">
<time>2020-11-23T19:04:31Z</time>
</trkpt>
<trkpt lat="45.882676" lon="11.023465">
<time>2020-11-23T19:04:32Z</time>
</trkpt>
<trkpt lat="45.882663" lon="11.02347">
<time>2020-11-23T19:04:33Z</time>
</trkpt>
<trkpt lat="45.882653" lon="11.023468">
<time>2020-11-23T19:04:34Z</time>
</trkpt>
<trkpt lat="45.882646" lon="11.023463">
<time>2020-11-23T19:04:35Z</time>
</trkpt>
<trkpt lat="45.882636" lon="11.023458">
<time>2020-11-23T19:04:36Z</time>
</trkpt>
<trkpt lat="45.88263" lon="11.023453">
<time>2020-11-23T19:04:37Z</time>
</trkpt>
<trkpt lat="45.882626" lon="11.023453">
<time>2020-11-23T19:04:38Z</time>
</trkpt>
<trkpt lat="45.882623" lon="11.023451">
<time>2020-11-23T19:04:39Z</time>
</trkpt>
<trkpt lat="45.88262" lon="11.023453">
<time>2020-11-23T19:04:40Z</time>
</trkpt>
<trkpt lat="45.882616" lon="11.023455">
<time>2020-11-23T19:04:41Z</time>
</trkpt>
<trkpt lat="45.882611" lon="11.023455">
<time>2020-11-23T19:04:42Z</time>
</trkpt>
<trkpt lat="45.882606" lon="11.023451">
<time>2020-11-23T19:04:43Z</time>
</trkpt>
<trkpt lat="45.882596" lon="11.023445">
<time>2020-11-23T19:04:44Z</time>
</trkpt>
<trkpt lat="45.88259" lon="11.023435">
<time>2020-11-23T19:04:45Z</time>
</trkpt>
<trkpt lat="45.882578" lon="11.023426">
<time>2020-11-23T19:04:46Z</time>
</trkpt>
<trkpt lat="45.882563" lon="11.023416">
<time>2020-11-23T19:04:47Z</time>
</trkpt>
<trkpt lat="45.882543" lon="11.023406">
<time>2020-11-23T19:04:48Z</time>
</trkpt>
<trkpt lat="45.882528" lon="11.02341">
<time>2020-11-23T19:04:49Z</time>
</trkpt>
<trkpt lat="45.88251" lon="11.023393">
<time>2020-11-23T19:04:50Z</time>
</trkpt>
<trkpt lat="45.882491" lon="11.023378">
<time>2020-11-23T19:04:51Z</time>
</trkpt>
<trkpt lat="45.882465" lon="11.023356">
<time>2020-11-23T19:04:52Z</time>
</trkpt>
<trkpt lat="45.882433" lon="11.023335">
<time>2020-11-23T19:04:53Z</time>
</trkpt>
<trkpt lat="45.88241" lon="11.023316">
<time>2020-11-23T19:04:54Z</time>
</trkpt>
<trkpt lat="45.882381" lon="11.023288">
<time>2020-11-23T19:04:55Z</time>
</trkpt>
<trkpt lat="45.882351" lon="11.023253">
<time>2020-11-23T19:04:56Z</time>
</trkpt>
<trkpt lat="45.882325" lon="11.023231">
<time>2020-11-23T19:04:57Z</time>
</trkpt>
<trkpt lat="45.882296" lon="11.023203">
<time>2020-11-23T19:04:58Z</time>
</trkpt>
<trkpt lat="45.882268" lon="11.023176">
<time>2020-11-23T19:04:59Z</time>
</trkpt>
<trkpt lat="45.882236" lon="11.023153">
<time>2020-11-23T19:05:00Z</time>
</trkpt>
<trkpt lat="45.882206" lon="11.023133">
<time>2020-11-23T19:05:01Z</time>
</trkpt>
<trkpt lat="45.882183" lon="11.023108">
<time>2020-11-23T19:05:02Z</time>
</trkpt>
<trkpt lat="45.882163" lon="11.023076">
<time>2020-11-23T19:05:03Z</time>
</trkpt>
<trkpt lat="45.882145" lon="11.023055">
<time>2020-11-23T19:05:04Z</time>
</trkpt>
<trkpt lat="45.882123" lon="11.023025">
<time>2020-11-23T19:05:05Z</time>
</trkpt>
<trkpt lat="45.882095" lon="11.022995">
<time>2020-11-23T19:05:06Z</time>
</trkpt>
<trkpt lat="45.882075" lon="11.02297">
<time>2020-11-23T19:05:07Z</time>
</trkpt>
<trkpt lat="45.88205" lon="11.022943">
<time>2020-11-23T19:05:08Z</time>
</trkpt>
<trkpt lat="45.882031" lon="11.022921">
<time>2020-11-23T19:05:09Z</time>
</trkpt>
<trkpt lat="45.88201" lon="11.022895">
<time>2020-11-23T19:05:10Z</time>
</trkpt>
<trkpt lat="45.881986" lon="11.022863">
<time>2020-11-23T19:05:11Z</time>
</trkpt>
<trkpt lat="45.881965" lon="11.022836">
<time>2020-11-23T19:05:12Z</time>
</trkpt>
<trkpt lat="45.881941" lon="11.022808">
<time>2020-11-23T19:05:13Z</time>
</trkpt>
<trkpt lat="45.881918" lon="11.022783">
<time>2020-11-23T19:05:14Z</time>
</trkpt>
<trkpt lat="45.881896" lon="11.022753">
<time>2020-11-23T19:05:15Z</time>
</trkpt>
<trkpt lat="45.881875" lon="11.022726">
<time>2020-11-23T19:05:16Z</time>
</trkpt>
<trkpt lat="45.881853" lon="11.0227">
<time>2020-11-23T19:05:17Z</time>
</trkpt>
<trkpt lat="45.881835" lon="11.022673">
<time>2020-11-23T19:05:18Z</time>
</trkpt>
<trkpt lat="45.881816" lon="11.022648">
<time>2020-11-23T19:05:19Z</time>
</trkpt>
<trkpt lat="45.881798" lon="11.022628">
<time>2020-11-23T19:05:20Z</time>
</trkpt>
<trkpt lat="45.88178" lon="11.022611">
<time>2020-11-23T19:05:21Z</time>
</trkpt>
<trkpt lat="45.881756" lon="11.0226">
<time>2020-11-23T19:05:22Z</time>
</trkpt>
<trkpt lat="45.88173" lon="11.022596">
<time>2020-11-23T19:05:23Z</time>
</trkpt>
<trkpt lat="45.881693" lon="11.022601">
<time>2020-11-23T19:05:24Z</time>
</trkpt>
<trkpt lat="45.881665" lon="11.022616">
<time>2020-11-23T19:05:25Z</time>
</trkpt>
<trkpt lat="45.88164" lon="11.022661">
<time>2020-11-23T19:05:26Z</time>
</trkpt>
<trkpt lat="45.881618" lon="11.0227">
<time>2020-11-23T19:05:27Z</time>
</trkpt>
<trkpt lat="45.8816" lon="11.022733">
<time>2020-11-23T19:05:28Z</time>
</trkpt>
<trkpt lat="45.881581" lon="11.022768">
<time>2020-11-23T19:05:29Z</time>
</trkpt>
<trkpt lat="45.881573" lon="11.022806">
<time>2020-11-23T19:05:30Z</time>
</trkpt>
<trkpt lat="45.881568" lon="11.022853">
<time>2020-11-23T19:05:31Z</time>
</trkpt>
<trkpt lat="45.881576" lon="11.022888">
<time>2020-11-23T19:05:32Z</time>
</trkpt>
<trkpt lat="45.881591" lon="11.022916">
<time>2020-11-23T19:05:33Z</time>
</trkpt>
<trkpt lat="45.881615" lon="11.02295">
<time>2020-11-23T19:05:34Z</time>
</trkpt>
<trkpt lat="45.881633" lon="11.022985">
<time>2020-11-23T19:05:35Z</time>
</trkpt>
<trkpt lat="45.881653" lon="11.023013">
<time>2020-11-23T19:05:36Z</time>
</trkpt>
<trkpt lat="45.881676" lon="11.023045">
<time>2020-11-23T19:05:37Z</time>
</trkpt>
<trkpt lat="45.881696" lon="11.023081">
<time>2020-11-23T19:05:38Z</time>
</trkpt>
<trkpt lat="45.881718" lon="11.023113">
<time>2020-11-23T19:05:39Z</time>
</trkpt>
<trkpt lat="45.881741" lon="11.023146">
<time>2020-11-23T19:05:40Z</time>
</trkpt>
<trkpt lat="45.881763" lon="11.023183">
<time>2020-11-23T19:05:41Z</time>
</trkpt>
<trkpt lat="45.881788" lon="11.02322">
<time>2020-11-23T19:05:42Z</time>
</trkpt>
<trkpt lat="45.881813" lon="11.023243">
<time>2020-11-23T19:05:43Z</time>
</trkpt>
<trkpt lat="45.881836" lon="11.023273">
<time>2020-11-23T19:05:44Z</time>
</trkpt>
<trkpt lat="45.881858" lon="11.02331">
<time>2020-11-23T19:05:45Z</time>
</trkpt>
<trkpt lat="45.881878" lon="11.023338">
<time>2020-11-23T19:05:46Z</time>
</trkpt>
<trkpt lat="45.8819" lon="11.023365">
<time>2020-11-23T19:05:47Z</time>
</trkpt>
<trkpt lat="45.88192" lon="11.023396">
<time>2020-11-23T19:05:48Z</time>
</trkpt>
<trkpt lat="45.881936" lon="11.023425">
<time>2020-11-23T19:05:49Z</time>
</trkpt>
<trkpt lat="45.881953" lon="11.023453">
<time>2020-11-23T19:05:50Z</time>
</trkpt>
<trkpt lat="45.88197" lon="11.023475">
<time>2020-11-23T19:05:51Z</time>
</trkpt>
<trkpt lat="45.881988" lon="11.023506">
<time>2020-11-23T19:05:52Z</time>
</trkpt>
<trkpt lat="45.882013" lon="11.02354">
<time>2020-11-23T19:05:53Z</time>
</trkpt>
<trkpt lat="45.88203" lon="11.023573">
<time>2020-11-23T19:05:54Z</time>
</trkpt>
<trkpt lat="45.882048" lon="11.023601">
<time>2020-11-23T19:05:55Z</time>
</trkpt>
<trkpt lat="45.882071" lon="11.023628">
<time>2020-11-23T19:05:56Z</time>
</trkpt>
<trkpt lat="45.882093" lon="11.023653">
<time>2020-11-23T19:05:57Z</time>
</trkpt>
<trkpt lat="45.882115" lon="11.023678">
<time>2020-11-23T19:05:58Z</time>
</trkpt>
<trkpt lat="45.882135" lon="11.023703">
<time>2020-11-23T19:05:59Z</time>
</trkpt>
<trkpt lat="45.882153" lon="11.02373">
<time>2020-11-23T19:06:00Z</time>
</trkpt>
<trkpt lat="45.882168" lon="11.023756">
<time>2020-11-23T19:06:01Z</time>
</trkpt>
<trkpt lat="45.882185" lon="11.023778">
<time>2020-11-23T19:06:02Z</time>
</trkpt>
<trkpt lat="45.882201" lon="11.023803">
<time>2020-11-23T19:06:03Z</time>
</trkpt>
<trkpt lat="45.882213" lon="11.023828">
<time>2020-11-23T19:06:04Z</time>
</trkpt>
<trkpt lat="45.882235" lon="11.023868">
<time>2020-11-23T19:06:05Z</time>
</trkpt>
<trkpt lat="45.882253" lon="11.023896">
<time>2020-11-23T19:06:06Z</time>
</trkpt>
<trkpt lat="45.882271" lon="11.023928">
<time>2020-11-23T19:06:07Z</time>
</trkpt>
<trkpt lat="45.88229" lon="11.02396">
<time>2020-11-23T19:06:08Z</time>
</trkpt>
<trkpt lat="45.882306" lon="11.024">
<time>2020-11-23T19:06:09Z</time>
</trkpt>
<trkpt lat="45.882325" lon="11.024031">
<time>2020-11-23T19:06:10Z</time>
</trkpt>
<trkpt lat="45.882348" lon="11.024068">
<time>2020-11-23T19:06:11Z</time>
</trkpt>
<trkpt lat="45.882373" lon="11.024101">
<time>2020-11-23T19:06:12Z</time>
</trkpt>
<trkpt lat="45.882396" lon="11.024135">
<time>2020-11-23T19:06:13Z</time>
</trkpt>
<trkpt lat="45.882421" lon="11.024166">
<time>2020-11-23T19:06:14Z</time>
</trkpt>
<trkpt lat="45.882443" lon="11.024196">
<time>2020-11-23T19:06:15Z</time>
</trkpt>
<trkpt lat="45.882468" lon="11.024228">
<time>2020-11-23T19:06:16Z</time>
</trkpt>
<trkpt lat="45.882493" lon="11.024256">
<time>2020-11-23T19:06:17Z</time>
</trkpt>
<trkpt lat="45.882518" lon="11.024288">
<time>2020-11-23T19:06:18Z</time>
</trkpt>
<trkpt lat="45.882543" lon="11.024323">
<time>2020-11-23T19:06:19Z</time>
</trkpt>
<trkpt lat="45.882568" lon="11.024358">
<time>2020-11-23T19:06:20Z</time>
</trkpt>
<trkpt lat="45.882593" lon="11.02439">
<time>2020-11-23T19:06:21Z</time>
</trkpt>
<trkpt lat="45.882621" lon="11.024426">
<time>2020-11-23T19:06:22Z</time>
</trkpt>
<trkpt lat="45.882651" lon="11.024465">
<time>2020-11-23T19:06:23Z</time>
</trkpt>
<trkpt lat="45.882685" lon="11.024518">
<time>2020-11-23T19:06:24Z</time>
</trkpt>
<trkpt lat="45.882708" lon="11.024551">
<time>2020-11-23T19:06:25Z</time>
</trkpt>
<trkpt lat="45.882728" lon="11.024586">
<time>2020-11-23T19:06:26Z</time>
</trkpt>
<trkpt lat="45.88275" lon="11.024623">
<time>2020-11-23T19:06:27Z</time>
</trkpt>
<trkpt lat="45.88277" lon="11.02466">
<time>2020-11-23T19:06:28Z</time>
</trkpt>
<trkpt lat="45.882788" lon="11.024695">
<time>2020-11-23T19:06:29Z</time>
</trkpt>
<trkpt lat="45.882805" lon="11.024731">
<time>2020-11-23T19:06:30Z</time>
</trkpt>
<trkpt lat="45.882816" lon="11.02477">
<time>2020-11-23T19:06:31Z</time>
</trkpt>
<trkpt lat="45.882828" lon="11.02481">
<time>2020-11-23T19:06:32Z</time>
</trkpt>
<trkpt lat="45.882836" lon="11.024843">
<time>2020-11-23T19:06:33Z</time>
</trkpt>
<trkpt lat="45.88285" lon="11.024876">
<time>2020-11-23T19:06:34Z</time>
</trkpt>
<trkpt lat="45.88286" lon="11.024893">
<time>2020-11-23T19:06:35Z</time>
</trkpt>
<trkpt lat="45.882866" lon="11.02491">
<time>2020-11-23T19:06:36Z</time>
</trkpt>
<trkpt lat="45.882878" lon="11.02492">
<time>2020-11-23T19:06:37Z</time>
</trkpt>
<trkpt lat="45.882885" lon="11.02492">
<time>2020-11-23T19:06:38Z</time>
</trkpt>
<trkpt lat="45.882891" lon="11.024911">
<time>2020-11-23T19:06:39Z</time>
</trkpt>
<trkpt lat="45.882895" lon="11.024906">
<time>2020-11-23T19:06:40Z</time>
</trkpt>
<trkpt lat="45.8829" lon="11.024895">
<time>2020-11-23T19:06:41Z</time>
</trkpt>
<trkpt lat="45.882908" lon="11.02488">
<time>2020-11-23T19:06:42Z</time>
</trkpt>
<trkpt lat="45.882918" lon="11.024868">
<time>2020-11-23T19:06:43Z</time>
</trkpt>
<trkpt lat="45.88293" lon="11.024863">
<time>2020-11-23T19:06:44Z</time>
</trkpt>
<trkpt lat="45.882945" lon="11.024861">
<time>2020-11-23T19:06:45Z</time>
</trkpt>
<trkpt lat="45.88296" lon="11.024851">
<time>2020-11-23T19:06:46Z</time>
</trkpt>
<trkpt lat="45.882971" lon="11.024841">
<time>2020-11-23T19:06:47Z</time>
</trkpt>
<trkpt lat="45.882988" lon="11.024823">
<time>2020-11-23T19:06:48Z</time>
</trkpt>
<trkpt lat="45.883008" lon="11.024803">
<time>2020-11-23T19:06:49Z</time>
</trkpt>
<trkpt lat="45.883031" lon="11.024781">
<time>2020-11-23T19:06:50Z</time>
</trkpt>
<trkpt lat="45.883053" lon="11.02476">
<time>2020-11-23T19:06:51Z</time>
</trkpt>
<trkpt lat="45.883073" lon="11.024738">
<time>2020-11-23T19:06:52Z</time>
</trkpt>
<trkpt lat="45.883091" lon="11.024713">
<time>2020-11-23T19:06:53Z</time>
</trkpt>
<trkpt lat="45.883108" lon="11.024681">
<time>2020-11-23T19:06:54Z</time>
</trkpt>
<trkpt lat="45.883121" lon="11.024645">
<time>2020-11-23T19:06:55Z</time>
</trkpt>
<trkpt lat="45.883133" lon="11.024606">
<time>2020-11-23T19:06:56Z</time>
</trkpt>
<trkpt lat="45.883141" lon="11.02457">
<time>2020-11-23T19:06:57Z</time>
</trkpt>
<trkpt lat="45.883146" lon="11.02453">
<time>2020-11-23T19:06:58Z</time>
</trkpt>
<trkpt lat="45.883151" lon="11.024493">
<time>2020-11-23T19:06:59Z</time>
</trkpt>
<trkpt lat="45.883166" lon="11.024465">
<time>2020-11-23T19:07:00Z</time>
</trkpt>
<trkpt lat="45.883188" lon="11.02444">
<time>2020-11-23T19:07:01Z</time>
</trkpt>
<trkpt lat="45.883211" lon="11.024418">
<time>2020-11-23T19:07:02Z</time>
</trkpt>
<trkpt lat="45.88324" lon="11.024395">
<time>2020-11-23T19:07:03Z</time>
</trkpt>
<trkpt lat="45.883268" lon="11.024375">
<time>2020-11-23T19:07:04Z</time>
</trkpt>
<trkpt lat="45.8833" lon="11.024356">
<time>2020-11-23T19:07:05Z</time>
</trkpt>
<trkpt lat="45.883328" lon="11.024338">
<time>2020-11-23T19:07:06Z</time>
</trkpt>
<trkpt lat="45.88336" lon="11.024323">
<time>2020-11-23T19:07:07Z</time>
</trkpt>
<trkpt lat="45.883391" lon="11.024308">
<time>2020-11-23T19:07:08Z</time>
</trkpt>
<trkpt lat="45.883423" lon="11.024291">
<time>2020-11-23T19:07:09Z</time>
</trkpt>
<trkpt lat="45.88345" lon="11.02428">
<time>2020-11-23T19:07:10Z</time>
</trkpt>
<trkpt lat="45.883476" lon="11.024263">
<time>2020-11-23T19:07:11Z</time>
</trkpt>
<trkpt lat="45.883503" lon="11.02425">
<time>2020-11-23T19:07:12Z</time>
</trkpt>
<trkpt lat="45.883528" lon="11.024231">
<time>2020-11-23T19:07:13Z</time>
</trkpt>
<trkpt lat="45.883551" lon="11.024215">
<time>2020-11-23T19:07:14Z</time>
</trkpt>
<trkpt lat="45.883571" lon="11.024193">
<time>2020-11-23T19:07:15Z</time>
</trkpt>
<trkpt lat="45.883586" lon="11.024166">
<time>2020-11-23T19:07:16Z</time>
</trkpt>
<trkpt lat="45.883601" lon="11.024136">
<time>2020-11-23T19:07:17Z</time>
</trkpt>
<trkpt lat="45.883618" lon="11.02411">
<time>2020-11-23T19:07:18Z</time>
</trkpt>
<trkpt lat="45.883638" lon="11.024085">
<time>2020-11-23T19:07:19Z</time>
</trkpt>
<trkpt lat="45.883661" lon="11.024061">
<time>2020-11-23T19:07:20Z</time>
</trkpt>
<trkpt lat="45.883683" lon="11.024043">
<time>2020-11-23T19:07:21Z</time>
</trkpt>
<trkpt lat="45.883696" lon="11.024036">
<time>2020-11-23T19:07:22Z</time>
</trkpt>
<trkpt lat="45.88371" lon="11.024033">
<time>2020-11-23T19:07:23Z</time>
</trkpt>
<trkpt lat="45.883721" lon="11.024033">
<time>2020-11-23T19:07:24Z</time>
</trkpt>
<trkpt lat="45.883735" lon="11.02403">
<time>2020-11-23T19:07:25Z</time>
</trkpt>
<trkpt lat="45.883745" lon="11.02402">
<time>2020-11-23T19:07:26Z</time>
</trkpt>
<trkpt lat="45.883753" lon="11.024006">
<time>2020-11-23T19:07:27Z</time>
</trkpt>
<trkpt lat="45.88376" lon="11.023991">
<time>2020-11-23T19:07:28Z</time>
</trkpt>
<trkpt lat="45.883761" lon="11.02398">
<time>2020-11-23T19:07:29Z</time>
</trkpt>
<trkpt lat="45.88376" lon="11.023965">
<time>2020-11-23T19:07:30Z</time>
</trkpt>
<trkpt lat="45.883761" lon="11.02395">
<time>2020-11-23T19:07:31Z</time>
</trkpt>
<trkpt lat="45.883765" lon="11.023938">
<time>2020-11-23T19:07:32Z</time>
</trkpt>
<trkpt lat="45.883765" lon="11.023933">
<time>2020-11-23T19:07:33Z</time>
</trkpt>
<trkpt lat="45.883765" lon="11.023928">
<time>2020-11-23T19:07:34Z</time>
</trkpt>
<trkpt lat="45.883763" lon="11.023923">
<time>2020-11-23T19:07:35Z</time>
</trkpt>
<trkpt lat="45.883763" lon="11.023915">
<time>2020-11-23T19:07:36Z</time>
</trkpt>
<trkpt lat="45.883761" lon="11.023898">
<time>2020-11-23T19:07:37Z</time>
</trkpt>
<trkpt lat="45.883756" lon="11.023871">
<time>2020-11-23T19:07:38Z</time>
</trkpt>
<trkpt lat="45.883748" lon="11.023855">
<time>2020-11-23T19:07:39Z</time>
</trkpt>
<trkpt lat="45.883741" lon="11.023835">
<time>2020-11-23T19:07:40Z</time>
</trkpt>
<trkpt lat="45.883736" lon="11.023815">
<time>2020-11-23T19:07:41Z</time>
</trkpt>
<trkpt lat="45.883726" lon="11.023785">
<time>2020-11-23T19:07:42Z</time>
</trkpt>
<trkpt lat="45.883715" lon="11.023755">
<time>2020-11-23T19:07:43Z</time>
</trkpt>
<trkpt lat="45.8837" lon="11.023721">
<time>2020-11-23T19:07:44Z</time>
</trkpt>
<trkpt lat="45.883681" lon="11.023691">
<time>2020-11-23T19:07:45Z</time>
</trkpt>
<trkpt lat="45.883668" lon="11.023665">
<time>2020-11-23T19:07:46Z</time>
</trkpt>
<trkpt lat="45.883658" lon="11.023633">
<time>2020-11-23T19:07:47Z</time>
</trkpt>
<trkpt lat="45.883651" lon="11.02361">
<time>2020-11-23T19:07:48Z</time>
</trkpt>
<trkpt lat="45.883648" lon="11.023591">
<time>2020-11-23T19:07:49Z</time>
</trkpt>
<trkpt lat="45.883641" lon="11.02357">
<time>2020-11-23T19:07:50Z</time>
</trkpt>
<trkpt lat="45.883638" lon="11.023553">
<time>2020-11-23T19:07:51Z</time>
</trkpt>
<trkpt lat="45.883633" lon="11.023538">
<time>2020-11-23T19:07:52Z</time>
</trkpt>
<trkpt lat="45.88363" lon="11.023528">
<time>2020-11-23T19:07:53Z</time>
</trkpt>
<trkpt lat="45.88363" lon="11.023521">
<time>2020-11-23T19:07:54Z</time>
</trkpt>
<trkpt lat="45.88363" lon="11.023515">
<time>2020-11-23T19:07:55Z</time>
</trkpt>
<trkpt lat="45.88362" lon="11.023508">
<time>2020-11-23T19:07:56Z</time>
</trkpt>
<trkpt lat="45.883608" lon="11.0235">
<time>2020-11-23T19:07:57Z</time>
</trkpt>
<trkpt lat="45.883591" lon="11.023481">
<time>2020-11-23T19:07:58Z</time>
</trkpt>
<trkpt lat="45.883576" lon="11.023463">
<time>2020-11-23T19:07:59Z</time>
</trkpt>
<trkpt lat="45.883555" lon="11.023438">
<time>2020-11-23T19:08:00Z</time>
</trkpt>
<trkpt lat="45.883538" lon="11.023415">
<time>2020-11-23T19:08:01Z</time>
</trkpt>
<trkpt lat="45.883523" lon="11.023393">
<time>2020-11-23T19:08:02Z</time>
</trkpt>
<trkpt lat="45.883501" lon="11.02337">
<time>2020-11-23T19:08:03Z</time>
</trkpt>
<trkpt lat="45.883485" lon="11.023346">
<time>2020-11-23T19:08:04Z</time>
</trkpt>
<trkpt lat="45.883471" lon="11.023323">
<time>2020-11-23T19:08:05Z</time>
</trkpt>
<trkpt lat="45.883455" lon="11.0233">
<time>2020-11-23T19:08:06Z</time>
</trkpt>
<trkpt lat="45.883436" lon="11.02328">
<time>2020-11-23T19:08:07Z</time>
</trkpt>
<trkpt lat="45.883416" lon="11.023261">
<time>2020-11-23T19:08:08Z</time>
</trkpt>
<trkpt lat="45.8834" lon="11.023245">
<time>2020-11-23T19:08:09Z</time>
</trkpt>
<trkpt lat="45.883373" lon="11.023218">
<time>2020-11-23T19:08:10Z</time>
</trkpt>
<trkpt lat="45.88336" lon="11.023201">
<time>2020-11-23T19:08:11Z</time>
</trkpt>
<trkpt lat="45.883341" lon="11.02317">
<time>2020-11-23T19:08:12Z</time>
</trkpt>
<trkpt lat="45.883321" lon="11.023138">
<time>2020-11-23T19:08:13Z</time>
</trkpt>
<trkpt lat="45.8833" lon="11.023106">
<time>2020-11-23T19:08:14Z</time>
</trkpt>
<trkpt lat="45.883278" lon="11.02308">
<time>2020-11-23T19:08:15Z</time>
</trkpt>
<trkpt lat="45.883256" lon="11.023045">
<time>2020-11-23T19:08:16Z</time>
</trkpt>
<trkpt lat="45.883248" lon="11.02302">
<time>2020-11-23T19:08:17Z</time>
</trkpt>
<trkpt lat="45.883241" lon="11.023003">
<time>2020-11-23T19:08:18Z</time>
</trkpt>
<trkpt lat="45.883238" lon="11.022986">
<time>2020-11-23T19:08:19Z</time>
</trkpt>
<trkpt lat="45.883235" lon="11.022976">
<time>2020-11-23T19:08:20Z</time>
</trkpt>
<trkpt lat="45.883233" lon="11.022971">
<time>2020-11-23T19:08:21Z</time>
</trkpt>
<trkpt lat="45.883228" lon="11.022971">
<time>2020-11-23T19:08:22Z</time>
</trkpt>
<trkpt lat="45.883223" lon="11.022978">
<time>2020-11-23T19:08:23Z</time>
</trkpt>
<trkpt lat="45.883221" lon="11.02298">
<time>2020-11-23T19:08:24Z</time>
</trkpt>
<trkpt lat="45.883216" lon="11.022988">
<time>2020-11-23T19:08:25Z</time>
</trkpt>
<trkpt lat="45.883221" lon="11.022996">
<time>2020-11-23T19:08:26Z</time>
</trkpt>
<trkpt lat="45.883226" lon="11.023011">
<time>2020-11-23T19:08:27Z</time>
</trkpt>
<trkpt lat="45.883231" lon="11.023018">
<time>2020-11-23T19:08:28Z</time>
</trkpt>
<trkpt lat="45.883235" lon="11.02302">
<time>2020-11-23T19:08:29Z</time>
</trkpt>
<trkpt lat="45.883236" lon="11.023025">
<time>2020-11-23T19:08:30Z</time>
</trkpt>
<trkpt lat="45.883235" lon="11.023023">
<time>2020-11-23T19:08:31Z</time>
</trkpt>
<trkpt lat="45.88323" lon="11.023021">
<time>2020-11-23T19:08:32Z</time>
</trkpt>
<trkpt lat="45.883226" lon="11.02302">
<time>2020-11-23T19:08:33Z</time>
</trkpt>
<trkpt lat="45.883226" lon="11.02302">
<time>2020-11-23T19:08:34Z</time>
</trkpt>
<trkpt lat="45.883226" lon="11.02302">
<time>2020-11-23T19:08:35Z</time>
</trkpt>
<trkpt lat="45.883226" lon="11.02302">
<time>2020-11-23T19:08:36Z</time>
</trkpt>
<trkpt lat="45.883226" lon="11.02302">
<time>2020-11-23T19:08:37Z</time>
</trkpt>
<trkpt lat="45.883226" lon="11.02302">
<time>2020-11-23T19:08:38Z</time>
</trkpt>
<trkpt lat="45.883226" lon="11.02302">
<time>2020-11-23T19:08:39Z</time>
</trkpt>
<trkpt lat="45.883226" lon="11.02302">
<time>2020-11-23T19:08:40Z</time>
</trkpt>
<trkpt lat="45.883226" lon="11.02302">
<time>2020-11-23T19:08:41Z</time>
</trkpt>
<trkpt lat="45.883226" lon="11.02302">
<time>2020-11-23T19:08:42Z</time>
</trkpt>
<trkpt lat="45.883226" lon="11.02302">
<time>2020-11-23T19:08:43Z</time>
</trkpt>
<trkpt lat="45.883226" lon="11.02302">
<time>2020-11-23T19:08:44Z</time>
</trkpt>
<trkpt lat="45.883226" lon="11.023018">
<time>2020-11-23T19:08:45Z</time>
</trkpt>
<trkpt lat="45.883226" lon="11.023018">
<time>2020-11-23T19:08:46Z</time>
</trkpt>
<trkpt lat="45.883226" lon="11.023018">
<time>2020-11-23T19:08:47Z</time>
</trkpt>
<trkpt lat="45.883226" lon="11.023018">
<time>2020-11-23T19:08:48Z</time>
</trkpt>
<trkpt lat="45.883226" lon="11.023016">
<time>2020-11-23T19:08:49Z</time>
</trkpt>
<trkpt lat="45.883228" lon="11.023016">
<time>2020-11-23T19:08:50Z</time>
</trkpt>
<trkpt lat="45.883228" lon="11.023015">
<time>2020-11-23T19:08:51Z</time>
</trkpt>
<trkpt lat="45.883228" lon="11.023011">
<time>2020-11-23T19:08:52Z</time>
</trkpt>
<trkpt lat="45.883228" lon="11.023008">
<time>2020-11-23T19:08:53Z</time>
</trkpt>
<trkpt lat="45.88323" lon="11.023003">
<time>2020-11-23T19:08:54Z</time>
</trkpt>
<trkpt lat="45.88323" lon="11.023003">
<time>2020-11-23T19:08:55Z</time>
</trkpt>
<trkpt lat="45.88323" lon="11.023003">
<time>2020-11-23T19:08:56Z</time>
</trkpt>
<trkpt lat="45.88323" lon="11.023001">
<time>2020-11-23T19:08:57Z</time>
</trkpt>
<trkpt lat="45.88323" lon="11.023">
<time>2020-11-23T19:08:58Z</time>
</trkpt>
<trkpt lat="45.88323" lon="11.022993">
<time>2020-11-23T19:08:59Z</time>
</trkpt>
<trkpt lat="45.88323" lon="11.02299">
<time>2020-11-23T19:09:00Z</time>
</trkpt>
<trkpt lat="45.88323" lon="11.022988">
<time>2020-11-23T19:09:01Z</time>
</trkpt>
<trkpt lat="45.88323" lon="11.022988">
<time>2020-11-23T19:09:02Z</time>
</trkpt>
<trkpt lat="45.88323" lon="11.022986">
<time>2020-11-23T19:09:03Z</time>
</trkpt>
<trkpt lat="45.88323" lon="11.022985">
<time>2020-11-23T19:09:04Z</time>
</trkpt>
<trkpt lat="45.88323" lon="11.022985">
<time>2020-11-23T19:09:05Z</time>
</trkpt>
<trkpt lat="45.88323" lon="11.022983">
<time>2020-11-23T19:09:06Z</time>
</trkpt>
<trkpt lat="45.883236" lon="11.022948">
<time>2020-11-23T19:09:07Z</time>
</trkpt>
<trkpt lat="45.883236" lon="11.022948">
<time>2020-11-23T19:09:08Z</time>
</trkpt>
<trkpt lat="45.883238" lon="11.022946">
<time>2020-11-23T19:09:09Z</time>
</trkpt>
<trkpt lat="45.883238" lon="11.022946">
<time>2020-11-23T19:09:10Z</time>
</trkpt>
<trkpt lat="45.883238" lon="11.022946">
<time>2020-11-23T19:09:11Z</time>
</trkpt>
<trkpt lat="45.883236" lon="11.022943">
<time>2020-11-23T19:09:12Z</time>
</trkpt>
<trkpt lat="45.883231" lon="11.022935">
<time>2020-11-23T19:09:13Z</time>
</trkpt>
<trkpt lat="45.883223" lon="11.022925">
<time>2020-11-23T19:09:14Z</time>
</trkpt>
<trkpt lat="45.88321" lon="11.022921">
<time>2020-11-23T19:09:15Z</time>
</trkpt>
<trkpt lat="45.883196" lon="11.022918">
<time>2020-11-23T19:09:16Z</time>
</trkpt>
<trkpt lat="45.883181" lon="11.022905">
<time>2020-11-23T19:09:17Z</time>
</trkpt>
<trkpt lat="45.88317" lon="11.022888">
<time>2020-11-23T19:09:18Z</time>
</trkpt>
<trkpt lat="45.883156" lon="11.022868">
<time>2020-11-23T19:09:19Z</time>
</trkpt>
<trkpt lat="45.883141" lon="11.02285">
<time>2020-11-23T19:09:20Z</time>
</trkpt>
<trkpt lat="45.883125" lon="11.022833">
<time>2020-11-23T19:09:21Z</time>
</trkpt>
<trkpt lat="45.8831" lon="11.022813">
<time>2020-11-23T19:09:22Z</time>
</trkpt>
<trkpt lat="45.88308" lon="11.022801">
<time>2020-11-23T19:09:23Z</time>
</trkpt>
<trkpt lat="45.88306" lon="11.022783">
<time>2020-11-23T19:09:24Z</time>
</trkpt>
<trkpt lat="45.883046" lon="11.022771">
<time>2020-11-23T19:09:25Z</time>
</trkpt>
<trkpt lat="45.883028" lon="11.022756">
<time>2020-11-23T19:09:26Z</time>
</trkpt>
<trkpt lat="45.883013" lon="11.022741">
<time>2020-11-23T19:09:27Z</time>
</trkpt>
<trkpt lat="45.882996" lon="11.022726">
<time>2020-11-23T19:09:28Z</time>
</trkpt>
<trkpt lat="45.882973" lon="11.0227">
<time>2020-11-23T19:09:29Z</time>
</trkpt>
<trkpt lat="45.882955" lon="11.022678">
<time>2020-11-23T19:09:30Z</time>
</trkpt>
<trkpt lat="45.882933" lon="11.022653">
<time>2020-11-23T19:09:31Z</time>
</trkpt>
<trkpt lat="45.882911" lon="11.02263">
<time>2020-11-23T19:09:32Z</time>
</trkpt>
<trkpt lat="45.88289" lon="11.022603">
<time>2020-11-23T19:09:33Z</time>
</trkpt>
<trkpt lat="45.88287" lon="11.022578">
<time>2020-11-23T19:09:34Z</time>
</trkpt>
<trkpt lat="45.882846" lon="11.022555">
<time>2020-11-23T19:09:35Z</time>
</trkpt>
<trkpt lat="45.882821" lon="11.022523">
<time>2020-11-23T19:09:36Z</time>
</trkpt>
<trkpt lat="45.882801" lon="11.022503">
<time>2020-11-23T19:09:37Z</time>
</trkpt>
<trkpt lat="45.882778" lon="11.022478">
<time>2020-11-23T19:09:38Z</time>
</trkpt>
<trkpt lat="45.882755" lon="11.022448">
<time>2020-11-23T19:09:39Z</time>
</trkpt>
<trkpt lat="45.882733" lon="11.022423">
<time>2020-11-23T19:09:40Z</time>
</trkpt>
<trkpt lat="45.882718" lon="11.022403">
<time>2020-11-23T19:09:41Z</time>
</trkpt>
<trkpt lat="45.8827" lon="11.022383">
<time>2020-11-23T19:09:42Z</time>
</trkpt>
<trkpt lat="45.882685" lon="11.022365">
<time>2020-11-23T19:09:43Z</time>
</trkpt>
<trkpt lat="45.882668" lon="11.022346">
<time>2020-11-23T19:09:44Z</time>
</trkpt>
<trkpt lat="45.88265" lon="11.022323">
<time>2020-11-23T19:09:45Z</time>
</trkpt>
<trkpt lat="45.882636" lon="11.0223">
<time>2020-11-23T19:09:46Z</time>
</trkpt>
<trkpt lat="45.882613" lon="11.022273">
<time>2020-11-23T19:09:47Z</time>
</trkpt>
<trkpt lat="45.8826" lon="11.022241">
<time>2020-11-23T19:09:48Z</time>
</trkpt>
<trkpt lat="45.882593" lon="11.022213">
<time>2020-11-23T19:09:49Z</time>
</trkpt>
<trkpt lat="45.882595" lon="11.022188">
<time>2020-11-23T19:09:50Z</time>
</trkpt>
<trkpt lat="45.882601" lon="11.022161">
<time>2020-11-23T19:09:51Z</time>
</trkpt>
<trkpt lat="45.882611" lon="11.022141">
<time>2020-11-23T19:09:52Z</time>
</trkpt>
<trkpt lat="45.882625" lon="11.022115">
<time>2020-11-23T19:09:53Z</time>
</trkpt>
<trkpt lat="45.882638" lon="11.022086">
<time>2020-11-23T19:09:54Z</time>
</trkpt>
<trkpt lat="45.882653" lon="11.02206">
<time>2020-11-23T19:09:55Z</time>
</trkpt>
<trkpt lat="45.882671" lon="11.022035">
<time>2020-11-23T19:09:56Z</time>
</trkpt>
<trkpt lat="45.882695" lon="11.022018">
<time>2020-11-23T19:09:57Z</time>
</trkpt>
<trkpt lat="45.88271" lon="11.022003">
<time>2020-11-23T19:09:58Z</time>
</trkpt>
<trkpt lat="45.882731" lon="11.022001">
<time>2020-11-23T19:09:59Z</time>
</trkpt>
<trkpt lat="45.882753" lon="11.02201">
<time>2020-11-23T19:10:00Z</time>
</trkpt>
<trkpt lat="45.882775" lon="11.022026">
<time>2020-11-23T19:10:01Z</time>
</trkpt>
<trkpt lat="45.882796" lon="11.022045">
<time>2020-11-23T19:10:02Z</time>
</trkpt>
<trkpt lat="45.88282" lon="11.022068">
<time>2020-11-23T19:10:03Z</time>
</trkpt>
<trkpt lat="45.88284" lon="11.02209">
<time>2020-11-23T19:10:04Z</time>
</trkpt>
<trkpt lat="45.882858" lon="11.022113">
<time>2020-11-23T19:10:05Z</time>
</trkpt>
<trkpt lat="45.882878" lon="11.022136">
<time>2020-11-23T19:10:06Z</time>
</trkpt>
<trkpt lat="45.882893" lon="11.022161">
<time>2020-11-23T19:10:07Z</time>
</trkpt>
<trkpt lat="45.882911" lon="11.022183">
<time>2020-11-23T19:10:08Z</time>
</trkpt>
<trkpt lat="45.882931" lon="11.022205">
<time>2020-11-23T19:10:09Z</time>
</trkpt>
<trkpt lat="45.882945" lon="11.022221">
<time>2020-11-23T19:10:10Z</time>
</trkpt>
<trkpt lat="45.882956" lon="11.022236">
<time>2020-11-23T19:10:11Z</time>
</trkpt>
<trkpt lat="45.882966" lon="11.022251">
<time>2020-11-23T19:10:12Z</time>
</trkpt>
<trkpt lat="45.882978" lon="11.022263">
<time>2020-11-23T19:10:13Z</time>
</trkpt>
<trkpt lat="45.882983" lon="11.022275">
<time>2020-11-23T19:10:14Z</time>
</trkpt>
<trkpt lat="45.882986" lon="11.02229">
<time>2020-11-23T19:10:15Z</time>
</trkpt>
<trkpt lat="45.88299" lon="11.022318">
<time>2020-11-23T19:10:16Z</time>
</trkpt>
<trkpt lat="45.882995" lon="11.022336">
<time>2020-11-23T19:10:17Z</time>
</trkpt>
<trkpt lat="45.883" lon="11.022358">
<time>2020-11-23T19:10:18Z</time>
</trkpt>
<trkpt lat="45.883005" lon="11.022376">
<time>2020-11-23T19:10:19Z</time>
</trkpt>
<trkpt lat="45.883011" lon="11.0224">
<time>2020-11-23T19:10:20Z</time>
</trkpt>
<trkpt lat="45.883013" lon="11.022411">
<time>2020-11-23T19:10:21Z</time>
</trkpt>
<trkpt lat="45.883016" lon="11.022416">
<time>2020-11-23T19:10:22Z</time>
</trkpt>
<trkpt lat="45.88302" lon="11.022423">
<time>2020-11-23T19:10:23Z</time>
</trkpt>
<trkpt lat="45.883023" lon="11.022433">
<time>2020-11-23T19:10:24Z</time>
</trkpt>
<trkpt lat="45.88303" lon="11.02245">
<time>2020-11-23T19:10:25Z</time>
</trkpt>
<trkpt lat="45.883031" lon="11.022468">
<time>2020-11-23T19:10:26Z</time>
</trkpt>
<trkpt lat="45.883033" lon="11.022483">
<time>2020-11-23T19:10:27Z</time>
</trkpt>
<trkpt lat="45.883036" lon="11.022495">
<time>2020-11-23T19:10:28Z</time>
</trkpt>
<trkpt lat="45.88304" lon="11.022506">
<time>2020-11-23T19:10:29Z</time>
</trkpt>
<trkpt lat="45.883041" lon="11.022521">
<time>2020-11-23T19:10:30Z</time>
</trkpt>
<trkpt lat="45.883041" lon="11.022536">
<time>2020-11-23T19:10:31Z</time>
</trkpt>
<trkpt lat="45.883045" lon="11.022555">
<time>2020-11-23T19:10:32Z</time>
</trkpt>
<trkpt lat="45.883046" lon="11.022576">
<time>2020-11-23T19:10:33Z</time>
</trkpt>
<trkpt lat="45.883045" lon="11.022598">
<time>2020-11-23T19:10:34Z</time>
</trkpt>
<trkpt lat="45.883043" lon="11.022621">
<time>2020-11-23T19:10:35Z</time>
</trkpt>
<trkpt lat="45.883046" lon="11.022643">
<time>2020-11-23T19:10:36Z</time>
</trkpt>
<trkpt lat="45.88305" lon="11.022663">
<time>2020-11-23T19:10:37Z</time>
</trkpt>
<trkpt lat="45.883056" lon="11.022681">
<time>2020-11-23T19:10:38Z</time>
</trkpt>
<trkpt lat="45.883066" lon="11.022696">
<time>2020-11-23T19:10:39Z</time>
</trkpt>
<trkpt lat="45.883075" lon="11.022711">
<time>2020-11-23T19:10:40Z</time>
</trkpt>
<trkpt lat="45.88308" lon="11.022725">
<time>2020-11-23T19:10:41Z</time>
</trkpt>
<trkpt lat="45.883083" lon="11.022735">
<time>2020-11-23T19:10:42Z</time>
</trkpt>
<trkpt lat="45.883085" lon="11.022745">
<time>2020-11-23T19:10:43Z</time>
</trkpt>
<trkpt lat="45.883086" lon="11.022755">
<time>2020-11-23T19:10:44Z</time>
</trkpt>
<trkpt lat="45.883085" lon="11.02276">
<time>2020-11-23T19:10:45Z</time>
</trkpt>
<trkpt lat="45.883086" lon="11.022765">
<time>2020-11-23T19:10:46Z</time>
</trkpt>
<trkpt lat="45.883086" lon="11.022766">
<time>2020-11-23T19:10:47Z</time>
</trkpt>
<trkpt lat="45.883085" lon="11.022771">
<time>2020-11-23T19:10:48Z</time>
</trkpt>
<trkpt lat="45.883083" lon="11.022775">
<time>2020-11-23T19:10:49Z</time>
</trkpt>
<trkpt lat="45.883083" lon="11.022775">
<time>2020-11-23T19:10:50Z</time>
</trkpt>
<trkpt lat="45.883081" lon="11.022776">
<time>2020-11-23T19:10:51Z</time>
</trkpt>
<trkpt lat="45.883078" lon="11.022775">
<time>2020-11-23T19:10:52Z</time>
</trkpt>
<trkpt lat="45.883076" lon="11.022776">
<time>2020-11-23T19:10:53Z</time>
</trkpt>
<trkpt lat="45.883078" lon="11.022776">
<time>2020-11-23T19:10:54Z</time>
</trkpt>
<trkpt lat="45.883075" lon="11.022778">
<time>2020-11-23T19:10:55Z</time>
</trkpt>
<trkpt lat="45.883075" lon="11.022783">
<time>2020-11-23T19:10:56Z</time>
</trkpt>
<trkpt lat="45.883071" lon="11.02279">
<time>2020-11-23T19:10:57Z</time>
</trkpt>
<trkpt lat="45.883063" lon="11.022795">
<time>2020-11-23T19:10:58Z</time>
</trkpt>
<trkpt lat="45.883051" lon="11.022806">
<time>2020-11-23T19:10:59Z</time>
</trkpt>
<trkpt lat="45.883043" lon="11.02282">
<time>2020-11-23T19:11:00Z</time>
</trkpt>
<trkpt lat="45.88303" lon="11.022831">
<time>2020-11-23T19:11:01Z</time>
</trkpt>
<trkpt lat="45.88302" lon="11.022846">
<time>2020-11-23T19:11:02Z</time>
</trkpt>
<trkpt lat="45.88301" lon="11.022861">
<time>2020-11-23T19:11:03Z</time>
</trkpt>
<trkpt lat="45.882996" lon="11.022875">
<time>2020-11-23T19:11:04Z</time>
</trkpt>
<trkpt lat="45.882986" lon="11.022891">
<time>2020-11-23T19:11:05Z</time>
</trkpt>
<trkpt lat="45.882981" lon="11.022906">
<time>2020-11-23T19:11:06Z</time>
</trkpt>
<trkpt lat="45.882976" lon="11.022923">
<time>2020-11-23T19:11:07Z</time>
</trkpt>
<trkpt lat="45.882968" lon="11.022936">
<time>2020-11-23T19:11:08Z</time>
</trkpt>
<trkpt lat="45.882958" lon="11.022948">
<time>2020-11-23T19:11:09Z</time>
</trkpt>
<trkpt lat="45.88295" lon="11.022961">
<time>2020-11-23T19:11:10Z</time>
</trkpt>
<trkpt lat="45.882941" lon="11.022975">
<time>2020-11-23T19:11:11Z</time>
</trkpt>
<trkpt lat="45.882933" lon="11.02299">
<time>2020-11-23T19:11:12Z</time>
</trkpt>
<trkpt lat="45.882925" lon="11.023003">
<time>2020-11-23T19:11:13Z</time>
</trkpt>
<trkpt lat="45.882915" lon="11.023018">
<time>2020-11-23T19:11:14Z</time>
</trkpt>
<trkpt lat="45.882905" lon="11.023033">
<time>2020-11-23T19:11:15Z</time>
</trkpt>
<trkpt lat="45.882896" lon="11.02305">
<time>2020-11-23T19:11:16Z</time>
</trkpt>
<trkpt lat="45.882886" lon="11.02306">
<time>2020-11-23T19:11:17Z</time>
</trkpt>
<trkpt lat="45.882878" lon="11.023073">
<time>2020-11-23T19:11:18Z</time>
</trkpt>
<trkpt lat="45.882871" lon="11.023088">
<time>2020-11-23T19:11:19Z</time>
</trkpt>
<trkpt lat="45.882863" lon="11.023103">
<time>2020-11-23T19:11:20Z</time>
</trkpt>
<trkpt lat="45.882855" lon="11.02312">
<time>2020-11-23T19:11:21Z</time>
</trkpt>
<trkpt lat="45.882843" lon="11.023135">
<time>2020-11-23T19:11:22Z</time>
</trkpt>
<trkpt lat="45.88283" lon="11.023151">
<time>2020-11-23T19:11:23Z</time>
</trkpt>
<trkpt lat="45.882821" lon="11.023166">
<time>2020-11-23T19:11:24Z</time>
</trkpt>
<trkpt lat="45.882811" lon="11.023181">
<time>2020-11-23T19:11:25Z</time>
</trkpt>
<trkpt lat="45.882801" lon="11.023195">
<time>2020-11-23T19:11:26Z</time>
</trkpt>
<trkpt lat="45.88279" lon="11.023208">
<time>2020-11-23T19:11:27Z</time>
</trkpt>
<trkpt lat="45.882778" lon="11.02322">
<time>2020-11-23T19:11:28Z</time>
</trkpt>
<trkpt lat="45.882766" lon="11.023231">
<time>2020-11-23T19:11:29Z</time>
</trkpt>
<trkpt lat="45.882763" lon="11.023245">
<time>2020-11-23T19:11:30Z</time>
</trkpt>
<trkpt lat="45.882751" lon="11.023255">
<time>2020-11-23T19:11:31Z</time>
</trkpt>
<trkpt lat="45.882743" lon="11.023265">
<time>2020-11-23T19:11:32Z</time>
</trkpt>
<trkpt lat="45.882733" lon="11.023271">
<time>2020-11-23T19:11:33Z</time>
</trkpt>
<trkpt lat="45.882726" lon="11.023281">
<time>2020-11-23T19:11:34Z</time>
</trkpt>
<trkpt lat="45.88272" lon="11.023295">
<time>2020-11-23T19:11:35Z</time>
</trkpt>
<trkpt lat="45.882711" lon="11.023311">
<time>2020-11-23T19:11:36Z</time>
</trkpt>
<trkpt lat="45.8827" lon="11.023326">
<time>2020-11-23T19:11:37Z</time>
</trkpt>
<trkpt lat="45.882688" lon="11.02334">
<time>2020-11-23T19:11:38Z</time>
</trkpt>
<trkpt lat="45.882676" lon="11.023355">
<time>2020-11-23T19:11:39Z</time>
</trkpt>
<trkpt lat="45.882666" lon="11.023366">
<time>2020-11-23T19:11:40Z</time>
</trkpt>
<trkpt lat="45.882656" lon="11.023376">
<time>2020-11-23T19:11:41Z</time>
</trkpt>
<trkpt lat="45.882645" lon="11.023391">
<time>2020-11-23T19:11:42Z</time>
</trkpt>
<trkpt lat="45.882636" lon="11.023401">
<time>2020-11-23T19:11:43Z</time>
</trkpt>
<trkpt lat="45.882626" lon="11.023416">
<time>2020-11-23T19:11:44Z</time>
</trkpt>
<trkpt lat="45.88262" lon="11.023433">
<time>2020-11-23T19:11:45Z</time>
</trkpt>
<trkpt lat="45.882608" lon="11.023445">
<time>2020-11-23T19:11:46Z</time>
</trkpt>
<trkpt lat="45.8826" lon="11.023456">
<time>2020-11-23T19:11:47Z</time>
</trkpt>
<trkpt lat="45.882585" lon="11.023475">
<time>2020-11-23T19:11:48Z</time>
</trkpt>
<trkpt lat="45.882575" lon="11.023486">
<time>2020-11-23T19:11:49Z</time>
</trkpt>
<trkpt lat="45.882566" lon="11.023503">
<time>2020-11-23T19:11:50Z</time>
</trkpt>
<trkpt lat="45.882555" lon="11.02352">
<time>2020-11-23T19:11:51Z</time>
</trkpt>
<trkpt lat="45.882546" lon="11.023531">
<time>2020-11-23T19:11:52Z</time>
</trkpt>
<trkpt lat="45.882535" lon="11.023546">
<time>2020-11-23T19:11:53Z</time>
</trkpt>
<trkpt lat="45.882523" lon="11.023561">
<time>2020-11-23T19:11:54Z</time>
</trkpt>
<trkpt lat="45.88251" lon="11.023578">
<time>2020-11-23T19:11:55Z</time>
</trkpt>
<trkpt lat="45.8825" lon="11.0236">
<time>2020-11-23T19:11:56Z</time>
</trkpt>
<trkpt lat="45.882493" lon="11.023615">
<time>2020-11-23T19:11:57Z</time>
</trkpt>
<trkpt lat="45.882488" lon="11.02363">
<time>2020-11-23T19:11:58Z</time>
</trkpt>
<trkpt lat="45.882481" lon="11.023638">
<time>2020-11-23T19:11:59Z</time>
</trkpt>
<trkpt lat="45.882475" lon="11.023651">
<time>2020-11-23T19:12:00Z</time>
</trkpt>
<trkpt lat="45.882465" lon="11.023668">
<time>2020-11-23T19:12:01Z</time>
</trkpt>
<trkpt lat="45.88246" lon="11.023683">
<time>2020-11-23T19:12:02Z</time>
</trkpt>
<trkpt lat="45.882451" lon="11.023698">
<time>2020-11-23T19:12:03Z</time>
</trkpt>
<trkpt lat="45.882446" lon="11.02371">
<time>2020-11-23T19:12:04Z</time>
</trkpt>
<trkpt lat="45.88244" lon="11.023723">
<time>2020-11-23T19:12:05Z</time>
</trkpt>
<trkpt lat="45.882428" lon="11.023741">
<time>2020-11-23T19:12:06Z</time>
</trkpt>
<trkpt lat="45.882416" lon="11.023761">
<time>2020-11-23T19:12:07Z</time>
</trkpt>
<trkpt lat="45.882406" lon="11.023775">
<time>2020-11-23T19:12:08Z</time>
</trkpt>
<trkpt lat="45.882398" lon="11.023788">
<time>2020-11-23T19:12:09Z</time>
</trkpt>
<trkpt lat="45.882388" lon="11.023801">
<time>2020-11-23T19:12:10Z</time>
</trkpt>
<trkpt lat="45.882373" lon="11.023818">
<time>2020-11-23T19:12:11Z</time>
</trkpt>
<trkpt lat="45.88236" lon="11.023833">
<time>2020-11-23T19:12:12Z</time>
</trkpt>
<trkpt lat="45.88235" lon="11.023848">
<time>2020-11-23T19:12:13Z</time>
</trkpt>
<trkpt lat="45.882341" lon="11.023861">
<time>2020-11-23T19:12:14Z</time>
</trkpt>
<trkpt lat="45.882328" lon="11.023881">
<time>2020-11-23T19:12:15Z</time>
</trkpt>
<trkpt lat="45.882315" lon="11.023896">
<time>2020-11-23T19:12:16Z</time>
</trkpt>
<trkpt lat="45.882308" lon="11.02391">
<time>2020-11-23T19:12:17Z</time>
</trkpt>
<trkpt lat="45.882298" lon="11.023923">
<time>2020-11-23T19:12:18Z</time>
</trkpt>
<trkpt lat="45.882291" lon="11.02394">
<time>2020-11-23T19:12:19Z</time>
</trkpt>
<trkpt lat="45.882281" lon="11.023961">
<time>2020-11-23T19:12:20Z</time>
</trkpt>
<trkpt lat="45.88227" lon="11.023975">
<time>2020-11-23T19:12:21Z</time>
</trkpt>
<trkpt lat="45.882255" lon="11.023983">
<time>2020-11-23T19:12:22Z</time>
</trkpt>
<trkpt lat="45.882246" lon="11.023993">
<time>2020-11-23T19:12:23Z</time>
</trkpt>
<trkpt lat="45.88224" lon="11.024008">
<time>2020-11-23T19:12:24Z</time>
</trkpt>
<trkpt lat="45.882233" lon="11.024023">
<time>2020-11-23T19:12:25Z</time>
</trkpt>
<trkpt lat="45.882225" lon="11.024041">
<time>2020-11-23T19:12:26Z</time>
</trkpt>
<trkpt lat="45.88222" lon="11.024056">
<time>2020-11-23T19:12:27Z</time>
</trkpt>
<trkpt lat="45.882215" lon="11.024076">
<time>2020-11-23T19:12:28Z</time>
</trkpt>
<trkpt lat="45.88221" lon="11.024095">
<time>2020-11-23T19:12:29Z</time>
</trkpt>
<trkpt lat="45.882205" lon="11.024113">
<time>2020-11-23T19:12:30Z</time>
</trkpt>
<trkpt lat="45.882198" lon="11.02413">
<time>2020-11-23T19:12:31Z</time>
</trkpt>
<trkpt lat="45.882188" lon="11.02415">
<time>2020-11-23T19:12:32Z</time>
</trkpt>
<trkpt lat="45.882181" lon="11.024163">
<time>2020-11-23T19:12:33Z</time>
</trkpt>
<trkpt lat="45.882173" lon="11.02418">
<time>2020-11-23T19:12:34Z</time>
</trkpt>
<trkpt lat="45.882163" lon="11.024198">
<time>2020-11-23T19:12:35Z</time>
</trkpt>
<trkpt lat="45.882156" lon="11.024213">
<time>2020-11-23T19:12:36Z</time>
</trkpt>
<trkpt lat="45.882146" lon="11.024226">
<time>2020-11-23T19:12:37Z</time>
</trkpt>
<trkpt lat="45.882138" lon="11.024238">
<time>2020-11-23T19:12:38Z</time>
</trkpt>
<trkpt lat="45.882135" lon="11.024251">
<time>2020-11-23T19:12:39Z</time>
</trkpt>
<trkpt lat="45.88213" lon="11.024266">
<time>2020-11-23T19:12:40Z</time>
</trkpt>
<trkpt lat="45.882123" lon="11.024283">
<time>2020-11-23T19:12:41Z</time>
</trkpt>
<trkpt lat="45.882118" lon="11.024296">
<time>2020-11-23T19:12:42Z</time>
</trkpt>
<trkpt lat="45.882113" lon="11.024308">
<time>2020-11-23T19:12:43Z</time>
</trkpt>
<trkpt lat="45.882113" lon="11.024326">
<time>2020-11-23T19:12:44Z</time>
</trkpt>
<trkpt lat="45.882115" lon="11.024346">
<time>2020-11-23T19:12:45Z</time>
</trkpt>
<trkpt lat="45.882115" lon="11.024368">
<time>2020-11-23T19:12:46Z</time>
</trkpt>
<trkpt lat="45.882111" lon="11.024386">
<time>2020-11-23T19:12:47Z</time>
</trkpt>
<trkpt lat="45.88211" lon="11.02441">
<time>2020-11-23T19:12:48Z</time>
</trkpt>
<trkpt lat="45.882103" lon="11.02443">
<time>2020-11-23T19:12:49Z</time>
</trkpt>
<trkpt lat="45.882098" lon="11.024446">
<time>2020-11-23T19:12:50Z</time>
</trkpt>
<trkpt lat="45.882095" lon="11.024463">
<time>2020-11-23T19:12:51Z</time>
</trkpt>
<trkpt lat="45.882091" lon="11.024478">
<time>2020-11-23T19:12:52Z</time>
</trkpt>
<trkpt lat="45.882088" lon="11.024495">
<time>2020-11-23T19:12:53Z</time>
</trkpt>
<trkpt lat="45.88208" lon="11.024511">
<time>2020-11-23T19:12:54Z</time>
</trkpt>
<trkpt lat="45.882075" lon="11.024526">
<time>2020-11-23T19:12:55Z</time>
</trkpt>
<trkpt lat="45.88207" lon="11.024545">
<time>2020-11-23T19:12:56Z</time>
</trkpt>
<trkpt lat="45.882063" lon="11.024561">
<time>2020-11-23T19:12:57Z</time>
</trkpt>
<trkpt lat="45.882063" lon="11.024583">
<time>2020-11-23T19:12:58Z</time>
</trkpt>
<trkpt lat="45.882063" lon="11.024603">
<time>2020-11-23T19:12:59Z</time>
</trkpt>
<trkpt lat="45.882066" lon="11.024631">
<time>2020-11-23T19:13:00Z</time>
</trkpt>
<trkpt lat="45.88207" lon="11.024648">
<time>2020-11-23T19:13:01Z</time>
</trkpt>
<trkpt lat="45.882076" lon="11.02467">
<time>2020-11-23T19:13:02Z</time>
</trkpt>
<trkpt lat="45.882088" lon="11.024698">
<time>2020-11-23T19:13:03Z</time>
</trkpt>
<trkpt lat="45.882095" lon="11.02472">
<time>2020-11-23T19:13:04Z</time>
</trkpt>
<trkpt lat="45.882103" lon="11.024735">
<time>2020-11-23T19:13:05Z</time>
</trkpt>
<trkpt lat="45.882115" lon="11.024756">
<time>2020-11-23T19:13:06Z</time>
</trkpt>
<trkpt lat="45.882123" lon="11.024773">
<time>2020-11-23T19:13:07Z</time>
</trkpt>
<trkpt lat="45.882131" lon="11.024798">
<time>2020-11-23T19:13:08Z</time>
</trkpt>
<trkpt lat="45.882136" lon="11.02482">
<time>2020-11-23T19:13:09Z</time>
</trkpt>
<trkpt lat="45.882143" lon="11.024845">
<time>2020-11-23T19:13:10Z</time>
</trkpt>
<trkpt lat="45.882148" lon="11.024866">
<time>2020-11-23T19:13:11Z</time>
</trkpt>
<trkpt lat="45.882156" lon="11.024901">
<time>2020-11-23T19:13:12Z</time>
</trkpt>
<trkpt lat="45.882166" lon="11.024941">
<time>2020-11-23T19:13:13Z</time>
</trkpt>
<trkpt lat="45.882183" lon="11.024993">
<time>2020-11-23T19:13:14Z</time>
</trkpt>
<trkpt lat="45.8822" lon="11.025036">
<time>2020-11-23T19:13:15Z</time>
</trkpt>
<trkpt lat="45.882211" lon="11.02507">
<time>2020-11-23T19:13:16Z</time>
</trkpt>
<trkpt lat="45.882226" lon="11.025108">
<time>2020-11-23T19:13:17Z</time>
</trkpt>
<trkpt lat="45.882243" lon="11.025156">
<time>2020-11-23T19:13:18Z</time>
</trkpt>
<trkpt lat="45.882255" lon="11.025195">
<time>2020-11-23T19:13:19Z</time>
</trkpt>
<trkpt lat="45.882266" lon="11.025231">
<time>2020-11-23T19:13:20Z</time>
</trkpt>
<trkpt lat="45.882276" lon="11.025261">
<time>2020-11-23T19:13:21Z</time>
</trkpt>
<trkpt lat="45.88229" lon="11.025296">
<time>2020-11-23T19:13:22Z</time>
</trkpt>
<trkpt lat="45.882301" lon="11.025335">
<time>2020-11-23T19:13:23Z</time>
</trkpt>
<trkpt lat="45.88231" lon="11.02536">
<time>2020-11-23T19:13:24Z</time>
</trkpt>
<trkpt lat="45.882315" lon="11.025378">
<time>2020-11-23T19:13:25Z</time>
</trkpt>
<trkpt lat="45.882325" lon="11.025398">
<time>2020-11-23T19:13:26Z</time>
</trkpt>
<trkpt lat="45.882333" lon="11.025408">
<time>2020-11-23T19:13:27Z</time>
</trkpt>
<trkpt lat="45.882346" lon="11.02542">
<time>2020-11-23T19:13:28Z</time>
</trkpt>
<trkpt lat="45.882363" lon="11.025423">
<time>2020-11-23T19:13:29Z</time>
</trkpt>
<trkpt lat="45.882383" lon="11.025421">
<time>2020-11-23T19:13:30Z</time>
</trkpt>
<trkpt lat="45.882405" lon="11.025413">
<time>2020-11-23T19:13:31Z</time>
</trkpt>
<trkpt lat="45.882428" lon="11.0254">
<time>2020-11-23T19:13:32Z</time>
</trkpt>
<trkpt lat="45.882456" lon="11.02538">
<time>2020-11-23T19:13:33Z</time>
</trkpt>
<trkpt lat="45.882481" lon="11.025363">
<time>2020-11-23T19:13:34Z</time>
</trkpt>
<trkpt lat="45.882501" lon="11.025346">
<time>2020-11-23T19:13:35Z</time>
</trkpt>
<trkpt lat="45.882528" lon="11.025326">
<time>2020-11-23T19:13:36Z</time>
</trkpt>
<trkpt lat="45.882561" lon="11.025305">
<time>2020-11-23T19:13:37Z</time>
</trkpt>
<trkpt lat="45.882588" lon="11.025286">
<time>2020-11-23T19:13:38Z</time>
</trkpt>
<trkpt lat="45.882616" lon="11.025266">
<time>2020-11-23T19:13:39Z</time>
</trkpt>
<trkpt lat="45.882638" lon="11.025251">
<time>2020-11-23T19:13:40Z</time>
</trkpt>
<trkpt lat="45.882668" lon="11.025236">
<time>2020-11-23T19:13:41Z</time>
</trkpt>
<trkpt lat="45.88269" lon="11.025226">
<time>2020-11-23T19:13:42Z</time>
</trkpt>
<trkpt lat="45.882718" lon="11.025211">
<time>2020-11-23T19:13:43Z</time>
</trkpt>
<trkpt lat="45.882745" lon="11.025195">
<time>2020-11-23T19:13:44Z</time>
</trkpt>
<trkpt lat="45.882771" lon="11.025176">
<time>2020-11-23T19:13:45Z</time>
</trkpt>
<trkpt lat="45.882801" lon="11.025155">
<time>2020-11-23T19:13:46Z</time>
</trkpt>
<trkpt lat="45.882828" lon="11.025135">
<time>2020-11-23T19:13:47Z</time>
</trkpt>
<trkpt lat="45.882853" lon="11.025118">
<time>2020-11-23T19:13:48Z</time>
</trkpt>
<trkpt lat="45.88288" lon="11.025105">
<time>2020-11-23T19:13:49Z</time>
</trkpt>
<trkpt lat="45.882898" lon="11.025095">
<time>2020-11-23T19:13:50Z</time>
</trkpt>
<trkpt lat="45.882928" lon="11.02508">
<time>2020-11-23T19:13:51Z</time>
</trkpt>
<trkpt lat="45.882955" lon="11.025066">
<time>2020-11-23T19:13:52Z</time>
</trkpt>
<trkpt lat="45.882978" lon="11.025056">
<time>2020-11-23T19:13:53Z</time>
</trkpt>
<trkpt lat="45.882998" lon="11.025048">
<time>2020-11-23T19:13:54Z</time>
</trkpt>
<trkpt lat="45.88303" lon="11.025035">
<time>2020-11-23T19:13:55Z</time>
</trkpt>
<trkpt lat="45.883055" lon="11.025026">
<time>2020-11-23T19:13:56Z</time>
</trkpt>
<trkpt lat="45.88308" lon="11.025015">
<time>2020-11-23T19:13:57Z</time>
</trkpt>
<trkpt lat="45.8831" lon="11.025005">
<time>2020-11-23T19:13:58Z</time>
</trkpt>
<trkpt lat="45.883121" lon="11.024996">
<time>2020-11-23T19:13:59Z</time>
</trkpt>
<trkpt lat="45.88315" lon="11.024983">
<time>2020-11-23T19:14:00Z</time>
</trkpt>
<trkpt lat="45.883171" lon="11.024968">
<time>2020-11-23T19:14:01Z</time>
</trkpt>
<trkpt lat="45.883193" lon="11.024953">
<time>2020-11-23T19:14:02Z</time>
</trkpt>
<trkpt lat="45.883211" lon="11.024943">
<time>2020-11-23T19:14:03Z</time>
</trkpt>
<trkpt lat="45.883233" lon="11.024928">
<time>2020-11-23T19:14:04Z</time>
</trkpt>
<trkpt lat="45.883256" lon="11.024908">
<time>2020-11-23T19:14:05Z</time>
</trkpt>
<trkpt lat="45.883285" lon="11.02489">
<time>2020-11-23T19:14:06Z</time>
</trkpt>
<trkpt lat="45.883308" lon="11.024875">
<time>2020-11-23T19:14:07Z</time>
</trkpt>
<trkpt lat="45.883333" lon="11.02486">
<time>2020-11-23T19:14:08Z</time>
</trkpt>
<trkpt lat="45.883356" lon="11.024845">
<time>2020-11-23T19:14:09Z</time>
</trkpt>
<trkpt lat="45.883378" lon="11.02483">
<time>2020-11-23T19:14:10Z</time>
</trkpt>
<trkpt lat="45.883401" lon="11.02482">
<time>2020-11-23T19:14:11Z</time>
</trkpt>
<trkpt lat="45.883425" lon="11.024803">
<time>2020-11-23T19:14:12Z</time>
</trkpt>
<trkpt lat="45.883448" lon="11.024786">
<time>2020-11-23T19:14:13Z</time>
</trkpt>
<trkpt lat="45.883471" lon="11.024771">
<time>2020-11-23T19:14:14Z</time>
</trkpt>
<trkpt lat="45.883495" lon="11.024751">
<time>2020-11-23T19:14:15Z</time>
</trkpt>
<trkpt lat="45.883518" lon="11.024733">
<time>2020-11-23T19:14:16Z</time>
</trkpt>
<trkpt lat="45.883541" lon="11.02472">
<time>2020-11-23T19:14:17Z</time>
</trkpt>
<trkpt lat="45.883565" lon="11.024706">
<time>2020-11-23T19:14:18Z</time>
</trkpt>
<trkpt lat="45.883588" lon="11.024695">
<time>2020-11-23T19:14:19Z</time>
</trkpt>
<trkpt lat="45.883611" lon="11.024681">
<time>2020-11-23T19:14:20Z</time>
</trkpt>
<trkpt lat="45.883633" lon="11.02467">
<time>2020-11-23T19:14:21Z</time>
</trkpt>
<trkpt lat="45.883656" lon="11.02466">
<time>2020-11-23T19:14:22Z</time>
</trkpt>
<trkpt lat="45.883681" lon="11.024643">
<time>2020-11-23T19:14:23Z</time>
</trkpt>
<trkpt lat="45.883703" lon="11.024625">
<time>2020-11-23T19:14:24Z</time>
</trkpt>
<trkpt lat="45.883725" lon="11.024611">
<time>2020-11-23T19:14:25Z</time>
</trkpt>
<trkpt lat="45.883748" lon="11.024601">
<time>2020-11-23T19:14:26Z</time>
</trkpt>
<trkpt lat="45.883771" lon="11.024591">
<time>2020-11-23T19:14:27Z</time>
</trkpt>
<trkpt lat="45.883795" lon="11.024576">
<time>2020-11-23T19:14:28Z</time>
</trkpt>
<trkpt lat="45.883818" lon="11.024563">
<time>2020-11-23T19:14:29Z</time>
</trkpt>
<trkpt lat="45.883841" lon="11.024548">
<time>2020-11-23T19:14:30Z</time>
</trkpt>
<trkpt lat="45.883863" lon="11.024533">
<time>2020-11-23T19:14:31Z</time>
</trkpt>
<trkpt lat="45.883886" lon="11.024516">
<time>2020-11-23T19:14:32Z</time>
</trkpt>
<trkpt lat="45.88391" lon="11.024501">
<time>2020-11-23T19:14:33Z</time>
</trkpt>
<trkpt lat="45.883931" lon="11.024481">
<time>2020-11-23T19:14:34Z</time>
</trkpt>
<trkpt lat="45.883953" lon="11.024466">
<time>2020-11-23T19:14:35Z</time>
</trkpt>
<trkpt lat="45.883978" lon="11.02445">
<time>2020-11-23T19:14:36Z</time>
</trkpt>
<trkpt lat="45.884001" lon="11.024435">
<time>2020-11-23T19:14:37Z</time>
</trkpt>
<trkpt lat="45.884025" lon="11.02442">
<time>2020-11-23T19:14:38Z</time>
</trkpt>
<trkpt lat="45.884048" lon="11.024405">
<time>2020-11-23T19:14:39Z</time>
</trkpt>
<trkpt lat="45.884071" lon="11.024386">
<time>2020-11-23T19:14:40Z</time>
</trkpt>
<trkpt lat="45.884096" lon="11.024368">
<time>2020-11-23T19:14:41Z</time>
</trkpt>
<trkpt lat="45.88412" lon="11.024351">
<time>2020-11-23T19:14:42Z</time>
</trkpt>
<trkpt lat="45.884143" lon="11.024338">
<time>2020-11-23T19:14:43Z</time>
</trkpt>
<trkpt lat="45.884161" lon="11.024328">
<time>2020-11-23T19:14:44Z</time>
</trkpt>
<trkpt lat="45.884185" lon="11.024316">
<time>2020-11-23T19:14:45Z</time>
</trkpt>
<trkpt lat="45.884206" lon="11.024301">
<time>2020-11-23T19:14:46Z</time>
</trkpt>
<trkpt lat="45.884231" lon="11.024293">
<time>2020-11-23T19:14:47Z</time>
</trkpt>
<trkpt lat="45.884255" lon="11.024281">
<time>2020-11-23T19:14:48Z</time>
</trkpt>
<trkpt lat="45.884278" lon="11.024268">
<time>2020-11-23T19:14:49Z</time>
</trkpt>
<trkpt lat="45.884305" lon="11.024246">
<time>2020-11-23T19:14:50Z</time>
</trkpt>
<trkpt lat="45.884326" lon="11.024228">
<time>2020-11-23T19:14:51Z</time>
</trkpt>
<trkpt lat="45.884348" lon="11.024205">
<time>2020-11-23T19:14:52Z</time>
</trkpt>
<trkpt lat="45.884368" lon="11.02418">
<time>2020-11-23T19:14:53Z</time>
</trkpt>
<trkpt lat="45.884386" lon="11.024155">
<time>2020-11-23T19:14:54Z</time>
</trkpt>
<trkpt lat="45.884408" lon="11.024128">
<time>2020-11-23T19:14:55Z</time>
</trkpt>
<trkpt lat="45.884428" lon="11.0241">
<time>2020-11-23T19:14:56Z</time>
</trkpt>
<trkpt lat="45.884448" lon="11.024073">
<time>2020-11-23T19:14:57Z</time>
</trkpt>
<trkpt lat="45.884468" lon="11.02405">
<time>2020-11-23T19:14:58Z</time>
</trkpt>
<trkpt lat="45.884488" lon="11.024026">
<time>2020-11-23T19:14:59Z</time>
</trkpt>
<trkpt lat="45.884506" lon="11.024003">
<time>2020-11-23T19:15:00Z</time>
</trkpt>
<trkpt lat="45.884528" lon="11.023981">
<time>2020-11-23T19:15:01Z</time>
</trkpt>
<trkpt lat="45.884553" lon="11.023963">
<time>2020-11-23T19:15:02Z</time>
</trkpt>
<trkpt lat="45.884578" lon="11.023945">
<time>2020-11-23T19:15:03Z</time>
</trkpt>
<trkpt lat="45.884603" lon="11.023928">
<time>2020-11-23T19:15:04Z</time>
</trkpt>
<trkpt lat="45.884626" lon="11.023911">
<time>2020-11-23T19:15:05Z</time>
</trkpt>
<trkpt lat="45.884648" lon="11.023896">
<time>2020-11-23T19:15:06Z</time>
</trkpt>
<trkpt lat="45.884665" lon="11.02388">
<time>2020-11-23T19:15:07Z</time>
</trkpt>
<trkpt lat="45.884685" lon="11.023866">
<time>2020-11-23T19:15:08Z</time>
</trkpt>
<trkpt lat="45.884706" lon="11.023851">
<time>2020-11-23T19:15:09Z</time>
</trkpt>
<trkpt lat="45.884728" lon="11.023838">
<time>2020-11-23T19:15:10Z</time>
</trkpt>
<trkpt lat="45.884748" lon="11.023828">
<time>2020-11-23T19:15:11Z</time>
</trkpt>
<trkpt lat="45.884765" lon="11.023821">
<time>2020-11-23T19:15:12Z</time>
</trkpt>
<trkpt lat="45.884791" lon="11.023818">
<time>2020-11-23T19:15:13Z</time>
</trkpt>
<trkpt lat="45.884805" lon="11.023828">
<time>2020-11-23T19:15:14Z</time>
</trkpt>
<trkpt lat="45.884823" lon="11.023848">
<time>2020-11-23T19:15:15Z</time>
</trkpt>
<trkpt lat="45.884836" lon="11.023876">
<time>2020-11-23T19:15:16Z</time>
</trkpt>
<trkpt lat="45.884846" lon="11.023905">
<time>2020-11-23T19:15:17Z</time>
</trkpt>
<trkpt lat="45.884853" lon="11.023931">
<time>2020-11-23T19:15:18Z</time>
</trkpt>
<trkpt lat="45.884863" lon="11.023965">
<time>2020-11-23T19:15:19Z</time>
</trkpt>
<trkpt lat="45.884876" lon="11.024006">
<time>2020-11-23T19:15:20Z</time>
</trkpt>
<trkpt lat="45.884881" lon="11.024043">
<time>2020-11-23T19:15:21Z</time>
</trkpt>
<trkpt lat="45.884888" lon="11.024083">
<time>2020-11-23T19:15:22Z</time>
</trkpt>
<trkpt lat="45.884898" lon="11.024113">
<time>2020-11-23T19:15:23Z</time>
</trkpt>
<trkpt lat="45.884906" lon="11.024148">
<time>2020-11-23T19:15:24Z</time>
</trkpt>
<trkpt lat="45.884911" lon="11.024186">
<time>2020-11-23T19:15:25Z</time>
</trkpt>
<trkpt lat="45.88492" lon="11.02422">
<time>2020-11-23T19:15:26Z</time>
</trkpt>
<trkpt lat="45.884925" lon="11.024258">
<time>2020-11-23T19:15:27Z</time>
</trkpt>
<trkpt lat="45.884928" lon="11.024288">
<time>2020-11-23T19:15:28Z</time>
</trkpt>
<trkpt lat="45.884931" lon="11.02432">
<time>2020-11-23T19:15:29Z</time>
</trkpt>
<trkpt lat="45.88494" lon="11.024348">
<time>2020-11-23T19:15:30Z</time>
</trkpt>
<trkpt lat="45.884948" lon="11.024376">
<time>2020-11-23T19:15:31Z</time>
</trkpt>
<trkpt lat="45.884953" lon="11.024406">
<time>2020-11-23T19:15:32Z</time>
</trkpt>
<trkpt lat="45.88496" lon="11.024433">
<time>2020-11-23T19:15:33Z</time>
</trkpt>
<trkpt lat="45.884966" lon="11.024463">
<time>2020-11-23T19:15:34Z</time>
</trkpt>
<trkpt lat="45.884976" lon="11.024493">
<time>2020-11-23T19:15:35Z</time>
</trkpt>
<trkpt lat="45.884985" lon="11.02452">
<time>2020-11-23T19:15:36Z</time>
</trkpt>
<trkpt lat="45.884993" lon="11.024548">
<time>2020-11-23T19:15:37Z</time>
</trkpt>
<trkpt lat="45.885005" lon="11.024578">
<time>2020-11-23T19:15:38Z</time>
</trkpt>
<trkpt lat="45.885018" lon="11.024606">
<time>2020-11-23T19:15:39Z</time>
</trkpt>
<trkpt lat="45.88503" lon="11.024638">
<time>2020-11-23T19:15:40Z</time>
</trkpt>
<trkpt lat="45.88504" lon="11.024671">
<time>2020-11-23T19:15:41Z</time>
</trkpt>
<trkpt lat="45.885048" lon="11.024706">
<time>2020-11-23T19:15:42Z</time>
</trkpt>
<trkpt lat="45.885058" lon="11.024741">
<time>2020-11-23T19:15:43Z</time>
</trkpt>
<trkpt lat="45.885065" lon="11.024776">
<time>2020-11-23T19:15:44Z</time>
</trkpt>
<trkpt lat="45.885075" lon="11.024811">
<time>2020-11-23T19:15:45Z</time>
</trkpt>
<trkpt lat="45.885086" lon="11.024846">
<time>2020-11-23T19:15:46Z</time>
</trkpt>
<trkpt lat="45.885095" lon="11.024881">
<time>2020-11-23T19:15:47Z</time>
</trkpt>
<trkpt lat="45.885106" lon="11.024913">
<time>2020-11-23T19:15:48Z</time>
</trkpt>
<trkpt lat="45.88512" lon="11.024945">
<time>2020-11-23T19:15:49Z</time>
</trkpt>
<trkpt lat="45.885126" lon="11.024981">
<time>2020-11-23T19:15:50Z</time>
</trkpt>
<trkpt lat="45.885136" lon="11.025016">
<time>2020-11-23T19:15:51Z</time>
</trkpt>
<trkpt lat="45.885146" lon="11.02505">
<time>2020-11-23T19:15:52Z</time>
</trkpt>
<trkpt lat="45.88515" lon="11.025083">
<time>2020-11-23T19:15:53Z</time>
</trkpt>
<trkpt lat="45.885151" lon="11.025116">
<time>2020-11-23T19:15:54Z</time>
</trkpt>
<trkpt lat="45.885155" lon="11.025156">
<time>2020-11-23T19:15:55Z</time>
</trkpt>
<trkpt lat="45.885161" lon="11.025193">
<time>2020-11-23T19:15:56Z</time>
</trkpt>
<trkpt lat="45.88517" lon="11.02523">
<time>2020-11-23T19:15:57Z</time>
</trkpt>
<trkpt lat="45.885178" lon="11.025263">
<time>2020-11-23T19:15:58Z</time>
</trkpt>
<trkpt lat="45.88519" lon="11.025295">
<time>2020-11-23T19:15:59Z</time>
</trkpt>
<trkpt lat="45.885205" lon="11.025325">
<time>2020-11-23T19:16:00Z</time>
</trkpt>
<trkpt lat="45.885221" lon="11.025356">
<time>2020-11-23T19:16:01Z</time>
</trkpt>
<trkpt lat="45.885233" lon="11.025396">
<time>2020-11-23T19:16:02Z</time>
</trkpt>
<trkpt lat="45.885243" lon="11.025441">
<time>2020-11-23T19:16:03Z</time>
</trkpt>
<trkpt lat="45.885253" lon="11.025483">
<time>2020-11-23T19:16:04Z</time>
</trkpt>
<trkpt lat="45.885263" lon="11.02552">
<time>2020-11-23T19:16:05Z</time>
</trkpt>
<trkpt lat="45.885276" lon="11.025568">
<time>2020-11-23T19:16:06Z</time>
</trkpt>
<trkpt lat="45.885293" lon="11.02561">
<time>2020-11-23T19:16:07Z</time>
</trkpt>
<trkpt lat="45.88531" lon="11.025653">
<time>2020-11-23T19:16:08Z</time>
</trkpt>
<trkpt lat="45.885321" lon="11.025696">
<time>2020-11-23T19:16:09Z</time>
</trkpt>
<trkpt lat="45.885333" lon="11.025736">
<time>2020-11-23T19:16:10Z</time>
</trkpt>
<trkpt lat="45.885338" lon="11.025775">
<time>2020-11-23T19:16:11Z</time>
</trkpt>
<trkpt lat="45.885346" lon="11.025815">
<time>2020-11-23T19:16:12Z</time>
</trkpt>
<trkpt lat="45.88535" lon="11.025856">
<time>2020-11-23T19:16:13Z</time>
</trkpt>
<trkpt lat="45.88536" lon="11.025898">
<time>2020-11-23T19:16:14Z</time>
</trkpt>
<trkpt lat="45.885366" lon="11.02594">
<time>2020-11-23T19:16:15Z</time>
</trkpt>
<trkpt lat="45.88538" lon="11.02598">
<time>2020-11-23T19:16:16Z</time>
</trkpt>
<trkpt lat="45.885391" lon="11.026015">
<time>2020-11-23T19:16:17Z</time>
</trkpt>
<trkpt lat="45.885406" lon="11.026046">
<time>2020-11-23T19:16:18Z</time>
</trkpt>
<trkpt lat="45.88542" lon="11.026081">
<time>2020-11-23T19:16:19Z</time>
</trkpt>
<trkpt lat="45.885428" lon="11.026105">
<time>2020-11-23T19:16:20Z</time>
</trkpt>
<trkpt lat="45.885435" lon="11.026148">
<time>2020-11-23T19:16:21Z</time>
</trkpt>
<trkpt lat="45.885431" lon="11.026183">
<time>2020-11-23T19:16:22Z</time>
</trkpt>
<trkpt lat="45.885418" lon="11.026191">
<time>2020-11-23T19:16:23Z</time>
</trkpt>
<trkpt lat="45.885406" lon="11.026206">
<time>2020-11-23T19:16:24Z</time>
</trkpt>
<trkpt lat="45.88539" lon="11.026223">
<time>2020-11-23T19:16:25Z</time>
</trkpt>
<trkpt lat="45.885373" lon="11.026241">
<time>2020-11-23T19:16:26Z</time>
</trkpt>
<trkpt lat="45.885348" lon="11.026241">
<time>2020-11-23T19:16:27Z</time>
</trkpt>
<trkpt lat="45.885326" lon="11.02625">
<time>2020-11-23T19:16:28Z</time>
</trkpt>
<trkpt lat="45.8853" lon="11.026251">
<time>2020-11-23T19:16:29Z</time>
</trkpt>
<trkpt lat="45.885275" lon="11.026251">
<time>2020-11-23T19:16:30Z</time>
</trkpt>
<trkpt lat="45.885248" lon="11.026256">
<time>2020-11-23T19:16:31Z</time>
</trkpt>
<trkpt lat="45.88522" lon="11.02627">
<time>2020-11-23T19:16:32Z</time>
</trkpt>
<trkpt lat="45.885191" lon="11.02629">
<time>2020-11-23T19:16:33Z</time>
</trkpt>
<trkpt lat="45.885166" lon="11.026315">
<time>2020-11-23T19:16:34Z</time>
</trkpt>
<trkpt lat="45.88514" lon="11.026338">
<time>2020-11-23T19:16:35Z</time>
</trkpt>
<trkpt lat="45.885116" lon="11.026366">
<time>2020-11-23T19:16:36Z</time>
</trkpt>
<trkpt lat="45.885093" lon="11.026396">
<time>2020-11-23T19:16:37Z</time>
</trkpt>
<trkpt lat="45.885068" lon="11.026428">
<time>2020-11-23T19:16:38Z</time>
</trkpt>
<trkpt lat="45.885045" lon="11.02646">
<time>2020-11-23T19:16:39Z</time>
</trkpt>
<trkpt lat="45.885021" lon="11.026493">
<time>2020-11-23T19:16:40Z</time>
</trkpt>
<trkpt lat="45.885001" lon="11.026533">
<time>2020-11-23T19:16:41Z</time>
</trkpt>
<trkpt lat="45.884978" lon="11.02657">
<time>2020-11-23T19:16:42Z</time>
</trkpt>
<trkpt lat="45.884955" lon="11.026603">
<time>2020-11-23T19:16:43Z</time>
</trkpt>
<trkpt lat="45.884931" lon="11.02663">
<time>2020-11-23T19:16:44Z</time>
</trkpt>
<trkpt lat="45.88491" lon="11.026653">
<time>2020-11-23T19:16:45Z</time>
</trkpt>
<trkpt lat="45.884883" lon="11.026665">
<time>2020-11-23T19:16:46Z</time>
</trkpt>
<trkpt lat="45.88485" lon="11.02667">
<time>2020-11-23T19:16:47Z</time>
</trkpt>
<trkpt lat="45.88482" lon="11.026675">
<time>2020-11-23T19:16:48Z</time>
</trkpt>
<trkpt lat="45.884793" lon="11.02668">
<time>2020-11-23T19:16:49Z</time>
</trkpt>
<trkpt lat="45.884766" lon="11.026683">
<time>2020-11-23T19:16:50Z</time>
</trkpt>
<trkpt lat="45.884738" lon="11.026681">
<time>2020-11-23T19:16:51Z</time>
</trkpt>
<trkpt lat="45.884708" lon="11.026678">
<time>2020-11-23T19:16:52Z</time>
</trkpt>
<trkpt lat="45.88468" lon="11.026676">
<time>2020-11-23T19:16:53Z</time>
</trkpt>
<trkpt lat="45.88465" lon="11.026675">
<time>2020-11-23T19:16:54Z</time>
</trkpt>
<trkpt lat="45.884625" lon="11.026675">
<time>2020-11-23T19:16:55Z</time>
</trkpt>
<trkpt lat="45.884606" lon="11.02668">
<time>2020-11-23T19:16:56Z</time>
</trkpt>
<trkpt lat="45.88458" lon="11.026681">
<time>2020-11-23T19:16:57Z</time>
</trkpt>
<trkpt lat="45.884558" lon="11.026678">
<time>2020-11-23T19:16:58Z</time>
</trkpt>
<trkpt lat="45.884543" lon="11.026665">
<time>2020-11-23T19:16:59Z</time>
</trkpt>
<trkpt lat="45.884523" lon="11.026648">
<time>2020-11-23T19:17:00Z</time>
</trkpt>
<trkpt lat="45.884495" lon="11.026636">
<time>2020-11-23T19:17:01Z</time>
</trkpt>
<trkpt lat="45.884471" lon="11.02663">
<time>2020-11-23T19:17:02Z</time>
</trkpt>
<trkpt lat="45.884448" lon="11.026621">
<time>2020-11-23T19:17:03Z</time>
</trkpt>
<trkpt lat="45.884428" lon="11.02662">
<time>2020-11-23T19:17:04Z</time>
</trkpt>
<trkpt lat="45.884401" lon="11.026625">
<time>2020-11-23T19:17:05Z</time>
</trkpt>
<trkpt lat="45.88438" lon="11.026628">
<time>2020-11-23T19:17:06Z</time>
</trkpt>
<trkpt lat="45.88435" lon="11.026638">
<time>2020-11-23T19:17:07Z</time>
</trkpt>
<trkpt lat="45.884321" lon="11.026646">
<time>2020-11-23T19:17:08Z</time>
</trkpt>
<trkpt lat="45.884296" lon="11.026655">
<time>2020-11-23T19:17:09Z</time>
</trkpt>
<trkpt lat="45.884271" lon="11.026661">
<time>2020-11-23T19:17:10Z</time>
</trkpt>
<trkpt lat="45.884253" lon="11.026668">
<time>2020-11-23T19:17:11Z</time>
</trkpt>
<trkpt lat="45.884243" lon="11.02667">
<time>2020-11-23T19:17:12Z</time>
</trkpt>
<trkpt lat="45.884235" lon="11.026671">
<time>2020-11-23T19:17:13Z</time>
</trkpt>
<trkpt lat="45.884225" lon="11.026676">
<time>2020-11-23T19:17:14Z</time>
</trkpt>
<trkpt lat="45.884215" lon="11.026686">
<time>2020-11-23T19:17:15Z</time>
</trkpt>
<trkpt lat="45.884195" lon="11.026698">
<time>2020-11-23T19:17:16Z</time>
</trkpt>
<trkpt lat="45.884161" lon="11.026708">
<time>2020-11-23T19:17:17Z</time>
</trkpt>
<trkpt lat="45.884131" lon="11.026713">
<time>2020-11-23T19:17:18Z</time>
</trkpt>
<trkpt lat="45.884101" lon="11.026718">
<time>2020-11-23T19:17:19Z</time>
</trkpt>
<trkpt lat="45.88408" lon="11.026725">
<time>2020-11-23T19:17:20Z</time>
</trkpt>
<trkpt lat="45.884051" lon="11.026743">
<time>2020-11-23T19:17:21Z</time>
</trkpt>
<trkpt lat="45.884031" lon="11.026763">
<time>2020-11-23T19:17:22Z</time>
</trkpt>
<trkpt lat="45.884016" lon="11.026785">
<time>2020-11-23T19:17:23Z</time>
</trkpt>
<trkpt lat="45.884001" lon="11.02681">
<time>2020-11-23T19:17:24Z</time>
</trkpt>
<trkpt lat="45.883985" lon="11.026838">
<time>2020-11-23T19:17:25Z</time>
</trkpt>
<trkpt lat="45.883966" lon="11.026865">
<time>2020-11-23T19:17:26Z</time>
</trkpt>
<trkpt lat="45.883951" lon="11.026898">
<time>2020-11-23T19:17:27Z</time>
</trkpt>
<trkpt lat="45.88394" lon="11.026933">
<time>2020-11-23T19:17:28Z</time>
</trkpt>
<trkpt lat="45.883931" lon="11.026973">
<time>2020-11-23T19:17:29Z</time>
</trkpt>
<trkpt lat="45.883923" lon="11.027013">
<time>2020-11-23T19:17:30Z</time>
</trkpt>
<trkpt lat="45.883915" lon="11.027048">
<time>2020-11-23T19:17:31Z</time>
</trkpt>
<trkpt lat="45.883908" lon="11.027081">
<time>2020-11-23T19:17:32Z</time>
</trkpt>
<trkpt lat="45.883903" lon="11.027116">
<time>2020-11-23T19:17:33Z</time>
</trkpt>
<trkpt lat="45.883903" lon="11.027156">
<time>2020-11-23T19:17:34Z</time>
</trkpt>
<trkpt lat="45.88391" lon="11.027186">
<time>2020-11-23T19:17:35Z</time>
</trkpt>
<trkpt lat="45.883915" lon="11.027228">
<time>2020-11-23T19:17:36Z</time>
</trkpt>
<trkpt lat="45.88392" lon="11.027265">
<time>2020-11-23T19:17:37Z</time>
</trkpt>
<trkpt lat="45.883923" lon="11.0273">
<time>2020-11-23T19:17:38Z</time>
</trkpt>
<trkpt lat="45.883921" lon="11.027335">
<time>2020-11-23T19:17:39Z</time>
</trkpt>
<trkpt lat="45.883928" lon="11.02737">
<time>2020-11-23T19:17:40Z</time>
</trkpt>
<trkpt lat="45.883936" lon="11.0274">
<time>2020-11-23T19:17:41Z</time>
</trkpt>
<trkpt lat="45.883938" lon="11.02743">
<time>2020-11-23T19:17:42Z</time>
</trkpt>
<trkpt lat="45.883943" lon="11.027461">
<time>2020-11-23T19:17:43Z</time>
</trkpt>
<trkpt lat="45.883946" lon="11.027495">
<time>2020-11-23T19:17:44Z</time>
</trkpt>
<trkpt lat="45.883955" lon="11.027536">
<time>2020-11-23T19:17:45Z</time>
</trkpt>
<trkpt lat="45.883961" lon="11.027575">
<time>2020-11-23T19:17:46Z</time>
</trkpt>
<trkpt lat="45.88397" lon="11.027611">
<time>2020-11-23T19:17:47Z</time>
</trkpt>
<trkpt lat="45.883971" lon="11.027646">
<time>2020-11-23T19:17:48Z</time>
</trkpt>
<trkpt lat="45.883975" lon="11.027686">
<time>2020-11-23T19:17:49Z</time>
</trkpt>
<trkpt lat="45.883978" lon="11.027721">
<time>2020-11-23T19:17:50Z</time>
</trkpt>
<trkpt lat="45.883978" lon="11.027745">
<time>2020-11-23T19:17:51Z</time>
</trkpt>
<trkpt lat="45.883985" lon="11.027776">
<time>2020-11-23T19:17:52Z</time>
</trkpt>
<trkpt lat="45.883988" lon="11.027805">
<time>2020-11-23T19:17:53Z</time>
</trkpt>
<trkpt lat="45.883995" lon="11.027835">
<time>2020-11-23T19:17:54Z</time>
</trkpt>
<trkpt lat="45.884" lon="11.027865">
<time>2020-11-23T19:17:55Z</time>
</trkpt>
<trkpt lat="45.884008" lon="11.027895">
<time>2020-11-23T19:17:56Z</time>
</trkpt>
<trkpt lat="45.884013" lon="11.027933">
<time>2020-11-23T19:17:57Z</time>
</trkpt>
<trkpt lat="45.88402" lon="11.027971">
<time>2020-11-23T19:17:58Z</time>
</trkpt>
<trkpt lat="45.884023" lon="11.028008">
<time>2020-11-23T19:17:59Z</time>
</trkpt>
<trkpt lat="45.88403" lon="11.028051">
<time>2020-11-23T19:18:00Z</time>
</trkpt>
<trkpt lat="45.884036" lon="11.028088">
<time>2020-11-23T19:18:01Z</time>
</trkpt>
<trkpt lat="45.884041" lon="11.02812">
<time>2020-11-23T19:18:02Z</time>
</trkpt>
<trkpt lat="45.884048" lon="11.028155">
<time>2020-11-23T19:18:03Z</time>
</trkpt>
<trkpt lat="45.884056" lon="11.02819">
<time>2020-11-23T19:18:04Z</time>
</trkpt>
<trkpt lat="45.884061" lon="11.028228">
<time>2020-11-23T19:18:05Z</time>
</trkpt>
<trkpt lat="45.884066" lon="11.028263">
<time>2020-11-23T19:18:06Z</time>
</trkpt>
<trkpt lat="45.884071" lon="11.028298">
<time>2020-11-23T19:18:07Z</time>
</trkpt>
<trkpt lat="45.884076" lon="11.028333">
<time>2020-11-23T19:18:08Z</time>
</trkpt>
<trkpt lat="45.884081" lon="11.028368">
<time>2020-11-23T19:18:09Z</time>
</trkpt>
<trkpt lat="45.884086" lon="11.028401">
<time>2020-11-23T19:18:10Z</time>
</trkpt>
<trkpt lat="45.884093" lon="11.028436">
<time>2020-11-23T19:18:11Z</time>
</trkpt>
<trkpt lat="45.884098" lon="11.028473">
<time>2020-11-23T19:18:12Z</time>
</trkpt>
<trkpt lat="45.884103" lon="11.02851">
<time>2020-11-23T19:18:13Z</time>
</trkpt>
<trkpt lat="45.884108" lon="11.028545">
<time>2020-11-23T19:18:14Z</time>
</trkpt>
<trkpt lat="45.884115" lon="11.028588">
<time>2020-11-23T19:18:15Z</time>
</trkpt>
<trkpt lat="45.88412" lon="11.028626">
<time>2020-11-23T19:18:16Z</time>
</trkpt>
<trkpt lat="45.884123" lon="11.028661">
<time>2020-11-23T19:18:17Z</time>
</trkpt>
<trkpt lat="45.884128" lon="11.028695">
<time>2020-11-23T19:18:18Z</time>
</trkpt>
<trkpt lat="45.884135" lon="11.02873">
<time>2020-11-23T19:18:19Z</time>
</trkpt>
<trkpt lat="45.884138" lon="11.028766">
<time>2020-11-23T19:18:20Z</time>
</trkpt>
<trkpt lat="45.884143" lon="11.028803">
<time>2020-11-23T19:18:21Z</time>
</trkpt>
<trkpt lat="45.884148" lon="11.028835">
<time>2020-11-23T19:18:22Z</time>
</trkpt>
<trkpt lat="45.884156" lon="11.028868">
<time>2020-11-23T19:18:23Z</time>
</trkpt>
<trkpt lat="45.884166" lon="11.028903">
<time>2020-11-23T19:18:24Z</time>
</trkpt>
<trkpt lat="45.884175" lon="11.028936">
<time>2020-11-23T19:18:25Z</time>
</trkpt>
<trkpt lat="45.884181" lon="11.028971">
<time>2020-11-23T19:18:26Z</time>
</trkpt>
<trkpt lat="45.884186" lon="11.028998">
<time>2020-11-23T19:18:27Z</time>
</trkpt>
<trkpt lat="45.884195" lon="11.029035">
<time>2020-11-23T19:18:28Z</time>
</trkpt>
<trkpt lat="45.884203" lon="11.029063">
<time>2020-11-23T19:18:29Z</time>
</trkpt>
<trkpt lat="45.88421" lon="11.029091">
<time>2020-11-23T19:18:30Z</time>
</trkpt>
<trkpt lat="45.884211" lon="11.029116">
<time>2020-11-23T19:18:31Z</time>
</trkpt>
<trkpt lat="45.884215" lon="11.029145">
<time>2020-11-23T19:18:32Z</time>
</trkpt>
<trkpt lat="45.88422" lon="11.02918">
<time>2020-11-23T19:18:33Z</time>
</trkpt>
<trkpt lat="45.884226" lon="11.029215">
<time>2020-11-23T19:18:34Z</time>
</trkpt>
<trkpt lat="45.884233" lon="11.029251">
<time>2020-11-23T19:18:35Z</time>
</trkpt>
<trkpt lat="45.88424" lon="11.029285">
<time>2020-11-23T19:18:36Z</time>
</trkpt>
<trkpt lat="45.884246" lon="11.029316">
<time>2020-11-23T19:18:37Z</time>
</trkpt>
<trkpt lat="45.884251" lon="11.029346">
<time>2020-11-23T19:18:38Z</time>
</trkpt>
<trkpt lat="45.884256" lon="11.029378">
<time>2020-11-23T19:18:39Z</time>
</trkpt>
<trkpt lat="45.884263" lon="11.029411">
<time>2020-11-23T19:18:40Z</time>
</trkpt>
<trkpt lat="45.88427" lon="11.029445">
<time>2020-11-23T19:18:41Z</time>
</trkpt>
<trkpt lat="45.884273" lon="11.029473">
<time>2020-11-23T19:18:42Z</time>
</trkpt>
<trkpt lat="45.884273" lon="11.029505">
<time>2020-11-23T19:18:43Z</time>
</trkpt>
<trkpt lat="45.884275" lon="11.02954">
<time>2020-11-23T19:18:44Z</time>
</trkpt>
<trkpt lat="45.884278" lon="11.029575">
<time>2020-11-23T19:18:45Z</time>
</trkpt>
<trkpt lat="45.884285" lon="11.02961">
<time>2020-11-23T19:18:46Z</time>
</trkpt>
<trkpt lat="45.88429" lon="11.029645">
<time>2020-11-23T19:18:47Z</time>
</trkpt>
<trkpt lat="45.884296" lon="11.029676">
<time>2020-11-23T19:18:48Z</time>
</trkpt>
<trkpt lat="45.884308" lon="11.029713">
<time>2020-11-23T19:18:49Z</time>
</trkpt>
<trkpt lat="45.884313" lon="11.029748">
<time>2020-11-23T19:18:50Z</time>
</trkpt>
<trkpt lat="45.884318" lon="11.02978">
<time>2020-11-23T19:18:51Z</time>
</trkpt>
<trkpt lat="45.884326" lon="11.029816">
<time>2020-11-23T19:18:52Z</time>
</trkpt>
<trkpt lat="45.884338" lon="11.029855">
<time>2020-11-23T19:18:53Z</time>
</trkpt>
<trkpt lat="45.884351" lon="11.029883">
<time>2020-11-23T19:18:54Z</time>
</trkpt>
<trkpt lat="45.884358" lon="11.029903">
<time>2020-11-23T19:18:55Z</time>
</trkpt>
<trkpt lat="45.884365" lon="11.029921">
<time>2020-11-23T19:18:56Z</time>
</trkpt>
<trkpt lat="45.884371" lon="11.02994">
<time>2020-11-23T19:18:57Z</time>
</trkpt>
<trkpt lat="45.884378" lon="11.029958">
<time>2020-11-23T19:18:58Z</time>
</trkpt>
<trkpt lat="45.884386" lon="11.029976">
<time>2020-11-23T19:18:59Z</time>
</trkpt>
<trkpt lat="45.884391" lon="11.029993">
<time>2020-11-23T19:19:00Z</time>
</trkpt>
<trkpt lat="45.8844" lon="11.030006">
<time>2020-11-23T19:19:01Z</time>
</trkpt>
<trkpt lat="45.884405" lon="11.03002">
<time>2020-11-23T19:19:02Z</time>
</trkpt>
<trkpt lat="45.88441" lon="11.030036">
<time>2020-11-23T19:19:03Z</time>
</trkpt>
<trkpt lat="45.884411" lon="11.030046">
<time>2020-11-23T19:19:04Z</time>
</trkpt>
</trkseg>
<name>Josè</name>
</trk>
</gpx>